     2              OBSERVATION DATA    GPS                 RINEX VERSION / TYPE
teqc 2000Feb29 Duncan Agnew 20000527 01:00:25UTC            PGM / RUN BY / DATE
                                                            COMMENT
L2: 1 -> 1; 5 -> 5; 60 -> 9                                 COMMENT
L2: 1 -> 1; 5 -> 5; 60 -> 9                                 COMMENT
L2: 1 -> 1; 5 -> 5; 60 -> 9                                 COMMENT
L2: 1 -> 1; 5 -> 5; 60 -> 9                                 COMMENT
L2: 1 -> 1; 5 -> 5; 60 -> 9                                 COMMENT
Original Marker Name: DASH                                  COMMENT
Campaign Name: CSRC Post Hector                             COMMENT
4-Character Station Name: DASH                              COMMENT
6-Character Antenna Code: TRMSST                            COMMENT
Vertical Measurement Point: BPA                             COMMENT
Vertical Offset to Rinex Ref. Point: 0.0000                 COMMENT
Radial Measurement Point: RRP                               COMMENT
Radial Offset to Rinex Ref. Point: 0.0000                   COMMENT
Antenna Height from Field Measurement: 2.0000 m             COMMENT
Additional Antenna Identification Info.:                    COMMENT
Model 14532.00                                              COMMENT
Original XYZ: -2420590.0127 -4733050.8813 3513115.3984      COMMENT
New XYZ position is based on association with SCEC monument COMMENT
E1D0F9J4+0011. Position of that monument is believed to be  COMMENT
valid to within 1 m horizontally; vertical accuracy         COMMENT
should be no worse than 3-times this value.                 COMMENT
                                                            COMMENT
Revised Rinex header created by UCSD GPS archive for        COMMENT
GSAC on 15-Jun-2000 (2000:167) 23:58:52 GMT                 COMMENT
For assistance contact dagnew@ucsd.edu                      COMMENT
or anderson@python.ucsd.edu                                 COMMENT
                                                            COMMENT
DASH 1972                                                   MARKER NAME
DASH                                                        MARKER NUMBER
-Unknown- NATIONAL GEODETIC SURVEY                          OBSERVER / AGENCY
6669 TRIMBLE 4000 SSE NP 7.29; SP 3.07                      REC # / TYPE / VERS
9 TR 4000SST L1/L2 GEO                                      ANT # / TYPE
 -2420586.6597 -4733049.1724  3513110.5923                  APPROX POSITION XYZ
        2.0000        0.0000        0.0000                  ANTENNA: DELTA H/E/N
     1     1     0                                          WAVELENGTH FACT L1/2
     7    C1    L1    L2    P1    P2    S1    S2            # / TYPES OF OBSERV
     0                                                      INTERVAL
  2000     5    16    14    55   30.000000                  TIME OF FIRST OBS
  2000     5    16    20    30   45.000000                  TIME OF LAST OBS
                                                            END OF HEADER
 00  5 16 14 55 30.0000000  0  6G 2G 4G 7G 9G24G26
  22023717.6094     614468.11757    478810.61157                  22023723.5864
        26.5004         30.7504
  21243734.0394   -1184786.69657   -906532.05357                  21243738.8094
        26.7504         31.5004
  21263421.7894     746419.22558    556552.94558                  21263425.7974
        28.0004         43.0004
  22094105.9534   -1072053.42257   -835360.20257                  22094109.9614
        24.0004         26.5004
  23453251.2194   -1777355.91455  -1338358.56255                  23453259.8484
        11.7504          6.7504
  24209305.4774    1221474.98455    951802.10855                  24209311.9574
        10.2504          5.2504
 00  5 16 14 55 45.0000000  0  6G 2G 4G 7G 9G24G26
  22027857.2194     636223.03347    495762.45647                  22027862.4454
        27.0004         31.2504
  21237957.6804   -1215142.00047   -930185.49047                  21237962.3444
        26.7504         31.2504
  21268283.6024     771967.13747    576460.40948                  21268287.5394
        27.7504         43.0004
  22088934.2034   -1099231.06647   -856537.57247                  22088938.2934
        23.7504         27.5004
  23443863.4224   -1826686.74745  -1376798.09245                  23443871.1604
        11.5004          6.2504
  24216776.1094    1260730.59445    982390.85745                  24216781.5474
        10.5004          4.5004
 00  5 16 14 56  0.0000000  0  6G 2G 4G 7G 9G24G26
  22032031.8444     658158.98047    512855.36947                  22032037.6214
        25.7504         30.0004
  21232226.1094   -1245261.26847   -953655.00347                  21232230.7854
        26.5004         31.5004
  21273177.7424     797687.25348    596502.05548                  21273181.7624
        28.0004         43.0004
  22083805.7734   -1126181.43047   -877537.81947                  22083809.8874
        23.7504         27.2504
  23434505.0634   -1875867.65545  -1415120.78845                  23434513.0824
        11.2504          6.5004
  24224274.7584    1300139.60245   1013099.13945                  24224281.4964
         9.7504          4.5004
 00  5 16 14 56 15.0000000  0  6G 2G 4G 7G 9G24G26
  22036240.0234     680273.99147    530087.81147                  22036245.3794
        27.0004         31.2504
  21226539.2814   -1275146.04147   -976941.79547                  21226543.9454
        26.2504         31.5004
  21278104.6254     823577.36848    616676.16448                  21278108.5274
        28.5004         43.0004
  22078720.3444   -1152906.29147   -898362.36047                  22078724.3054
        24.2504         27.7504
  23425174.1884   -1924900.33546  -1453327.97745                  23425182.7814
        12.2504          6.7504
  24231802.9304    1339699.74245   1043925.12645                  24231809.1644
        10.0004          4.5004
 00  5 16 14 56 30.0000000  0  6G 2G 4G 7G 9G24G26
  22040481.4534     702562.33247    547455.32847                  22040487.3484
        25.7504         30.7504
  21220895.9224   -1304802.01647  -1000050.30847                  21220900.5044
        26.7504         31.5004
  21283062.4694     849631.34748    636977.95848                  21283066.4064
        28.2504         43.5004
  22073676.2114   -1179411.21847   -919015.52547                  22073680.4654
        23.0004         26.2504
  23415870.8444   -1973790.40546  -1491424.07145                  23415877.9494
        12.2504          7.2504
  24239359.0944    1379404.83745   1074864.11845                  24239365.7154
        10.5004          5.0004
 00  5 16 14 56 45.0000000  0  6G 2G 4G 7G 9G24G26
  22044756.8914     725029.93347    564962.50547                  22044762.4694
        27.0004         30.7504
  21215297.3364   -1334223.05147  -1022975.74347                  21215301.8954
        27.0004         32.0004
  21288052.7424     875854.91548    657411.90248                  21288056.6564
        28.2504         43.0004
  22068675.6804   -1205690.10247   -939492.54347                  22068679.7234
        24.0004         26.5004
  23406595.5944   -2022531.62045  -1529404.16045                  23406603.3674
        11.7504          7.0004
  24246943.3914    1419260.27145   1105920.26045                  24246950.0354
        10.2504          5.0004
 00  5 16 14 57  0.0000000  0  6G 2G 4G 7G 9G24G26
  22049064.5164     747666.73247    582601.54147                  22049070.0234
        26.0004         31.0004
  21209741.5634   -1363418.80847  -1045725.64147                  21209746.0984
        27.2504         32.2504
  21293073.1884     902237.74948    677969.94648                  21293077.0204
        28.5004         43.7504
  22063716.1724   -1231752.81347   -959801.12747                  22063720.0514
        24.0004         27.0004
  23397346.4614   -2071133.72345  -1567275.83845                  23397354.6334
        11.5004          7.5004
  24254554.5004    1459255.49145   1137085.31745                  24254560.4064
        10.2504          4.5004
 00  5 16 14 57 15.0000000  0  6G 2G 4G 7G 9G24G26
  22053406.3284     770482.47147    600379.99747                  22053412.2344
        25.7504         30.5004
  21204230.3914   -1392379.53747  -1068292.40347                  21204234.9964
        27.5004         32.7504
  21298125.8284     928789.27948    698659.44648                  21298129.6844
        28.5004         43.7504
  22058799.5554   -1257589.52347   -979933.60347                  22058803.2704
        23.7504         26.0004
  23388126.6484   -2119586.82846  -1605031.41345                  23388134.5864
        12.0004          7.5004
  24262193.3444    1499399.84845   1168366.55145                  24262198.8984
        10.2504          4.7504
 00  5 16 14 57 30.0000000  0  6G 2G 4G 7G 9G24G26
  22057782.7664     793480.54247    618300.54647                  22057787.9574
        26.7504         31.0004
  21198764.8834   -1421101.45547  -1090673.07647                  21198769.5124
        27.0004         32.7504
  21303211.1724     955512.59148    719482.79948                  21303215.0164
        28.5004         43.5004
  22053926.5474   -1283196.57847   -999887.12947                  22053930.2034
        24.5004         26.5004
  23378935.4144   -2167887.05445  -1642667.88045                  23378943.3404
        11.7504          7.2504
  24269861.8754    1539696.24245   1199766.29645                  24269867.9804
        10.2504          4.5004
 00  5 16 14 57 45.0000000  0  6G 2G 4G 7G 9G24G26
  22062194.1724     816662.89047    636364.68847                  22062200.2774
        25.2504         30.2504
  21193344.9924   -1449582.47647  -1112866.04047                  21193349.7034
        27.0004         32.5004
  21308329.4534     982409.38948    740441.33948                  21308333.1914
        28.7504         43.7504
  22049098.0394   -1308571.92347  -1019660.09947                  22049101.6954
        23.7504         27.7504
  23369773.3834   -2216032.37346  -1680183.63645                  23369781.5664
        13.0004          7.5004
  24277558.5944    1580146.26745   1231285.76344                  24277565.1914
         9.5004          4.2504
 00  5 16 14 58  0.0000000  0  6G 2G 4G 7G 9G24G26
  22066640.0164     840025.02447    654568.90447                  22066645.5004
        26.7504         30.2504
  21187970.1024   -1477826.83847  -1134874.59647                  21187974.7074
        27.0004         32.2504
  21313479.7424    1009474.97848    761531.40548                  21313483.4574
        28.5004         43.0004
  22044312.2974   -1333719.77647  -1039255.80047                  22044316.2344
        23.5004         26.2504
  23360640.3754   -2264026.87546  -1717581.88145                  23360648.0434
        12.2504          7.0004
  24285284.3054    1620744.94545   1262920.99745                  24285290.3754
         9.7504          4.5004
 00  5 16 14 58 15.0000000  0  6G 2G 4G 7G 9G24G26
  22071118.3754     863559.47147    672907.41447                  22071124.1294
        25.0004         29.2504
  21182639.0474   -1505841.76747  -1156704.37247                  21182643.6414
        27.0004         32.5004
  21318660.8284    1036701.58448    782746.93648                  21318664.6374
        28.5004         43.2504
  22039568.8284   -1358647.37347  -1058679.88047                  22039572.6254
        24.2504         26.5004
  23351534.4064   -2311877.79546  -1754868.24545                  23351542.0394
        12.0004          7.0004
  24293037.2424    1661484.46445   1294666.01745                  24293043.5474
        10.2504          5.0004
 00  5 16 14 58 30.0000000  0  6G 2G 4G 7G 9G24G26
  22075629.2664     887264.10747    691378.51147                  22075634.9844
        25.7504         30.0004
  21177351.4384   -1533629.28547  -1178356.94447                  21177356.1604
        27.0004         32.7504
  21323871.9454    1064086.71248    804085.98948                  21323875.9304
        28.2504         43.2504
  22034866.5784   -1383356.82847  -1077933.98347                  22034870.5044
        23.0004         26.5004
  23342456.0004   -2359587.10446  -1792044.23745                  23342463.9494
        12.2504          7.2504
  24300815.5704    1702362.07745   1326518.65545                  24300821.6174
        10.2504          4.5004
 00  5 16 14 58 45.0000000  0  6G 2G 4G 7G 9G24G26
  22080172.2664     911137.71847    709981.30247                  22080177.9024
        26.0004         29.0004
  21172106.6804   -1561190.24947  -1199832.98647                  21172111.4844
        27.0004         32.2504
  21329113.1564    1091628.84448    825547.38348                  21329117.0234
        28.0004         42.5004
  22030205.9454   -1407849.17147  -1097018.89147                  22030210.0354
        23.7504         25.7504
  23333403.7734   -2407155.68245  -1829110.58345                  23333411.4304
        11.7504          7.2504
  24308620.5474    1743376.08845   1358477.59145                  24308626.6054
         9.7504          5.0004
 00  5 16 14 59  0.0000000  0  6G 2G 4G 7G 9G24G26
  22084747.9534     935182.49547    728717.45147                  22084753.8594
        26.0004         29.0004
  21166905.3754   -1588522.42347  -1221130.74747                  21166910.2974
        26.7504         32.7504
  21334384.5634    1119330.03648    847132.72048                  21334388.4884
        28.2504         42.7504
  22025587.1094   -1432122.00247  -1115932.77047                  22025590.8484
        23.5004         26.2504
  23324379.4224   -2454580.95546  -1866065.28145                  23324386.4344
        13.0004          7.0004
  24316451.9844    1784528.39745   1390544.25545                  24316459.0434
         9.7504          4.5004
 00  5 16 14 59 15.0000000  0  6G 2G 4G 7G 9G24G26
  22089356.3054     959399.48047    747587.79147                  22089362.0234
        26.0004         29.7504
  21161748.1884   -1615624.27647  -1242249.03847                  21161753.0634
        26.7504         32.7504
  21339686.2894    1147190.99247    868842.54448                  21339690.3094
        27.7504         42.7504
  22021009.9614   -1456174.01047  -1134674.56746                  22021013.8284
        23.2504         25.5004
  23315382.0474   -2501861.70646  -1902907.36045                  23315389.2114
        12.7504          7.2504
  24324309.2584    1825819.58145   1422719.13845                  24324315.9264
         9.2504          4.7504
 00  5 16 14 59 30.0000000  0  6G 2G 4G 7G 9G24G26
  22093996.6804     983785.51147    766589.85647                  22094002.7384
        25.2504         29.0004
  21156634.0164   -1642499.00947  -1263190.35547                  21156638.6214
        27.0004         32.5004
  21345017.9224    1175208.32947    890674.22548                  21345022.1054
        27.5004         42.2504
  22016474.3444   -1480008.19447  -1153246.64347                  22016478.0124
        23.2504         26.0004
  23306411.3674   -2549000.85946  -1939639.08745                  23306417.8014
        13.2504          7.5004
  24332192.3054    1867246.04845   1454999.40745                  24332197.7304
         9.7504          4.5004
 00  5 16 14 59 45.0000000  0  6G 2G 4G 7G 9G24G26
  22098668.8204    1008336.80947    785720.69947                  22098674.5744
        26.0004         29.2504
  21151562.5004   -1669150.00747  -1283957.32847                  21151567.1174
        27.0004         33.5004
  21350378.3204    1203377.95347    912624.57448                  21350382.5744
        27.0004         41.7504
  22011979.5944   -1503628.19747  -1171651.81647                  22011983.0984
        23.7504         26.0004
  23297467.3984   -2596001.83946  -1976263.15445                  23297474.5394
        12.7504          7.0004
  24340100.8054    1908803.45545   1487381.77145                  24340106.6524
         9.7504          4.7504
 00  5 16 15  0  0.0000000  0  6G 2G 4G 7G 9G24G26
  22103373.2034    1033058.50347    804984.33147                  22103378.7344
        26.0004         29.2504
  21146534.6174   -1695571.95147  -1304545.82747                  21146539.2114
        27.5004         33.2504
  21355768.8134    1231704.68147    934697.33848                  21355773.2304
        27.0004         41.2504
  22007526.7974   -1527028.69847  -1189885.95847                  22007530.4304
        23.5004         26.0004
  23288550.6564   -2642859.26646  -2012775.39045                  23288557.6564
        12.7504          7.0004
  24348034.6334    1950496.53345   1519869.82744                  24348041.0084
         9.7504          4.2504
 00  5 16 15  0 15.0000000  0  6G 2G 4G 7G 9G24G26
  22108111.6484    1057958.55447    824386.93547                  22108117.6954
        25.7504         29.0004
  21141551.7424   -1721756.79447  -1324949.56347                  21141556.1724
        27.7504         34.0004
  21361190.4384    1260196.24947    956898.55348                  21361194.8324
        27.0004         42.0004
  22003117.0394   -1550201.54247  -1207942.70046                  22003120.8134
        23.5004         25.5004
  23279662.9304   -2689564.93446  -2049169.33045                  23279669.6454
        13.0004          7.5004
  24355996.2584    1992332.87945   1552469.49144                  24356003.1024
         9.2504          3.7504
 00  5 16 15  0 30.0000000  0  6G 2G 4G 7G 9G24G26
  22112882.2894    1083028.55347    843921.96247                  22112887.9144
        27.0004         29.0004
  21136612.5004   -1747712.66947  -1345174.88847                  21136616.9304
        27.7504         33.7504
  21366641.8834    1288843.92147    979221.40248                  21366646.3364
        27.0004         41.7504
  21998749.0864   -1573155.10547  -1225828.57547                  21998752.8014
        23.2504         25.7504
  23270801.9694   -2736126.98246  -2085451.38345                  23270808.9454
        12.2504          6.7504
  24363982.2734    2034303.48645   1585173.80145                  24363989.4024
         9.2504          4.5004
 00  5 16 15  0 45.0000000  0  6G 2G 4G 7G 9G24G26
  22117683.0084    1108257.02247    863580.48047                  22117688.8094
        25.7504         29.2504
  21131714.5704   -1773450.94647  -1365230.65647                  21131719.0704
        27.5004         34.0004
  21372120.9614    1317635.95447   1001656.74148                  21372125.4024
        27.0004         41.5004
  21994420.7734   -1595900.61547  -1243552.32847                  21994424.4774
        23.5004         26.7504
  23261966.8364   -2782556.73646  -2121630.33645                  23261974.2704
        13.2504          7.5004
  24371993.1644    2076396.52045   1617973.48845                  24371999.1764
         9.2504          4.5004
 00  5 16 15  1  0.0000000  0  6G 2G 4G 7G 9G24G26
  22122511.3674    1133629.33347    883351.07047                  22122517.0394
        26.2504         29.5004
  21126855.4924   -1798985.91247  -1385127.98847                  21126859.9454
        27.7504         34.2504
  21377624.5474    1346557.47647   1024192.99148                  21377628.9184
        27.0004         42.0004
  21990129.1954   -1618452.57447  -1261125.26147                  21990133.2154
        23.2504         26.7504
  23253154.2894   -2828868.40346  -2157717.28045                  23253162.0744
        12.7504          7.2504
  24380023.1174    2118596.90245   1650856.85044                  24380029.0824
         9.5004          3.7504
 00  5 16 15  1 15.0000000  0  6G 2G 4G 7G 9G24G26
  22127370.6094    1159164.10547    903248.26747                  22127376.2234
        26.5004         28.7504
  21122038.6884   -1824298.77847  -1404852.26247                  21122043.2704
        27.7504         34.2504
  21383156.3984    1375626.83647   1046844.43748                  21383160.8634
        27.5004         42.0004
  21985878.3134   -1640792.00647  -1278532.58547                  21985882.2274
        24.0004         27.5004
  23244367.5634   -2875043.19546  -2193697.56645                  23244375.1134
        12.5004          7.0004
  24388078.3754    2160922.87445   1683838.06645                  24388084.8094
         9.7504          4.7504
 00  5 16 15  1 30.0000000  0  6G 2G 4G 7G 9G24G26
  22132262.3284    1184870.66747    923279.31147                  22132268.0944
        25.2504         29.0004
  21117265.6804   -1849379.94347  -1424395.99147                  21117270.1684
        27.7504         34.7504
  21388717.7664    1404853.09147   1069618.12848                  21388721.9844
        27.7504         42.2504
  21981669.4454   -1662909.49647  -1295766.98247                  21981673.1024
        23.7504         27.5004
  23235607.7274   -2921071.40945  -2229563.63245                  23235615.7704
        11.7504          7.5004
  24396158.7114    2203383.21545   1716923.98344                  24396165.1334
         9.7504          4.2504
 00  5 16 15  1 45.0000000  0  6G 2G 4G 7G 9G24G26
  22137181.4844    1210721.14647    943422.49847                  22137187.1454
        26.2504         29.0004
  21112531.9224   -1874257.11947  -1443780.76847                  21112536.6454
        27.7504         35.0004
  21394303.8754    1434208.11047   1092492.15348                  21394308.0704
        27.7504         42.2504
  21977497.5784   -1684832.67347  -1312849.95347                  21977501.0354
        24.5004         27.7504
  23226871.1174   -2966980.68946  -2265337.02445                  23226878.4454
        12.2504          7.0004
  24404257.9384    2245949.71545   1750092.60845                  24404264.4414
         9.7504          4.7504
 00  5 16 15  2  0.0000000  0  6G 2G 4G 7G 9G24G26
  22142130.2034    1236726.46547    963686.35647                  22142135.8404
        25.2504         28.5004
  21107838.7344   -1898919.04248  -1462997.82047                  21107843.2704
        28.0004         35.0004
  21399916.6724    1463702.66948   1115474.91048                  21399920.6454
        28.5004         42.7504
  21973364.8364   -1706550.42647  -1329772.86647                  21973368.3524
        24.0004         27.2504
  23218160.4534   -3012759.69546  -2301008.91045                  23218167.3594
        13.0004          7.2504
  24412380.2344    2288632.76745   1783352.05745                  24412386.6914
         9.2504          5.0004
 00  5 16 15  2 15.0000000  0  6G 2G 4G 7G 9G24G26
  22147109.8674    1262894.21247    984076.77047                  22147115.4104
        26.7504         29.0004
  21103188.0314   -1923358.07948  -1482041.18847                  21103192.5434
        28.0004         35.0004
  21405557.2734    1493343.95148   1138571.99648                  21405561.3284
        28.2504         42.5004
  21969272.8524   -1728055.11347  -1346529.73947                  21969276.3914
        24.7504         27.7504
  23209475.1644   -3058400.75446  -2336573.29145                  23209481.5744
        13.0004          7.0004
  24420526.0234    2331439.66145   1816708.00244                  24420531.7664
         9.0004          3.7504
 00  5 16 15  2 30.0000000  0  6G 2G 4G 7G 9G24G26
  22152121.1644    1289228.32847   1004596.82647                  22152126.9304
        25.2504         28.5004
  21098580.7974   -1947570.02748  -1500907.60447                  21098585.3794
        28.0004         35.0004
  21411226.5394    1523135.77248   1161786.39148                  21411230.4884
        28.0004         43.0004
  21965221.7504   -1749342.50247  -1363117.31047                  21965225.4304
        24.0004         28.0004
  23200817.0314   -3103899.40946  -2372026.71645                  23200823.7704
        13.2504          7.7504
  24428696.7504    2374373.87645   1850163.18344                  24428702.8674
         9.5004          4.0004
 00  5 16 15  2 45.0000000  0  6G 2G 4G 7G 9G24G26
  22157163.2504    1315723.85647   1025242.64447                  22157168.7704
        26.5004         28.0004
  21094015.7344   -1971559.54048  -1519600.69647                  21094020.3054
        28.5004         35.0004
  21416923.3054    1553072.80848   1185113.93948                  21416927.2544
        28.2504         43.0004
  21961211.4454   -1770417.48047  -1379539.34247                  21961215.2074
        24.2504         28.0004
  23192185.2814   -3149260.56446  -2407373.00945                  23192192.7974
        12.2504          7.2504
  24436890.0554    2417429.91945   1883713.28744                  24436895.7734
        10.2504          4.2504
 00  5 16 15  3  0.0000000  0  6G 2G 4G 7G 9G24G26
  22162234.5704    1342374.04347   1046009.00347                  22162239.9844
        25.2504         28.2504
  21089491.6724   -1995333.25248  -1538125.63147                  21089496.1024
        28.5004         35.2504
  21422646.5164    1583148.03948   1208549.16948                  21422650.4654
        28.2504         42.7504
  21957240.0314   -1791286.58347  -1395800.96447                  21957243.8984
        24.5004         28.5004
  23183577.4924   -3194490.61346  -2442617.11945                  23183584.5984
        12.2504          7.5004
  24445105.4924    2460600.68145   1917352.78145                  24445112.4924
        10.2504          4.7504
 00  5 16 15  3 15.0000000  0  6G 2G 4G 7G 9G24G26
  22167335.7034    1369180.27847   1066896.92247                  22167341.6914
        24.7504         27.5004
  21085009.1804   -2018889.52648  -1556481.13647                  21085013.7034
        28.5004         35.2504
  21428396.1564    1613362.65148   1232093.00948                  21428400.1294
        28.5004         43.0004
  21953308.5784   -1811948.32247  -1411900.99947                  21953312.7154
        24.5004         29.0004
  23174995.3914   -3239587.91346  -2477757.77745                  23175002.8954
        12.2504          7.5004
  24453342.5554    2503887.12745   1951082.40745                  24453348.5084
         9.7504          5.0004
 00  5 16 15  3 30.0000000  0  6G 2G 4G 7G 9G24G26
  22172466.7274    1396143.89147   1087907.49147                  22172471.6844
        26.5004         28.0004
  21080568.1414   -2042226.88748  -1574666.05947                  21080572.6644
        28.2504         35.2504
  21434172.4534    1643717.64548   1255746.24248                  21434176.5904
        28.2504         43.2504
  21949416.2894   -1832401.10547  -1427838.20947                  21949420.0164
        25.2504         29.7504
  23166439.9064   -3284550.78046  -2512793.70245                  23166446.2814
        13.7504          7.5004
  24461601.7274    2547290.08045   1984902.81345                  24461608.8094
         9.7504          4.7504
 00  5 16 15  3 45.0000000  0  7G 2G 4G 5G 7G 9G24G26
  22177627.9694    1423267.36347   1109042.64047                  22177633.7704
        24.2504         27.0004
  21076169.3284   -2065342.64948  -1592678.30447                  21076173.6884
        28.5004         35.2504
  24783057.3914     -18574.15654
         6.2504
  21439976.0004    1674215.29048   1279510.62648                  21439980.2194
        28.2504         43.2504
  21945564.4774   -1852642.35247  -1443610.60147                  21945568.4144
        24.7504         30.0004
  23157910.0394   -3329376.58246  -2547722.83445                  23157917.2854
        13.7504          7.7504
  24469883.6484    2590811.58145   2018815.56845                  24469890.6604
         9.7504          4.5004
 00  5 16 15  4  0.0000000  0  7G 2G 4G 5G 7G 9G24G26
  22182819.7584    1450548.95547   1130300.96247                  22182825.4184
        26.5004         27.2504
  21071812.4694   -2088238.39248  -1610519.11347                  21071816.8634
        28.5004         35.0004
  24776441.7734     -53338.41944
         6.2504
  21445806.1254    1704853.45848   1303384.50948                  21445810.3674
        28.2504         42.5004
  21941752.6414   -1872673.61847  -1459219.35547                  21941756.5904
        25.0004         30.2504
  23149405.3134   -3374066.64746  -2582546.18345                  23149412.2894
        13.2504          7.5004
  24478187.9924    2634449.45545   2052819.06245                  24478193.8874
        10.5004          4.5004
 00  5 16 15  4 15.0000000  0  7G 2G 4G 5G 7G 9G24G26
  22188041.1954    1477988.67047   1151682.53747                  22188046.5394
        25.2504         27.2504
  21067497.4064   -2110913.76448  -1628188.19947                  21067501.6844
        28.2504         35.0004
  24769842.5234     -88017.63544
         6.7504
  21451663.2504    1735632.12047   1327367.86648                  21451667.5744
        27.7504         43.0004
  21937980.7974   -1892494.64247  -1474664.28747                  21937984.5354
        25.7504         30.2504
  23140927.1884   -3418620.82146  -2617263.64745                  23140933.9964
        13.5004          8.2504
  24486513.9924    2678203.28645   2086912.90645                  24486520.4494
        10.2504          4.5004
 00  5 16 15  4 30.0000000  0  7G 2G 4G 5G 7G 9G24G26
  22193292.2424    1505582.67147   1173184.30547                  22193298.0904
        24.2504         26.7504
  21063223.6954   -2133372.56248  -1645688.53047                  21063228.0784
        28.2504         35.0004
  24763258.8914    -122615.76344
         6.7504
  21457546.2274    1766546.92947   1351457.31548                  21457550.7034
        27.5004         42.7504
  21934248.2344   -1912109.14247  -1489948.30547                  21934251.9144
        24.7504         29.7504
  23132473.9534   -3463042.60746  -2651877.94145                  23132481.0124
        13.5004          7.7504
  24494861.7344    2722068.88545   2121093.81245                  24494868.3204
        10.2504          5.0004
 00  5 16 15  4 45.0000000  0  7G 2G 4G 5G 7G 9G24G26
  22198572.7814    1533333.08247   1194807.96947                  22198578.3364
        26.0004         27.2504
  21058991.4064   -2155612.31847  -1663018.17747                  21058995.6254
        27.7504         35.0004
  24756691.0164    -157130.67644
         7.0004
  21463455.3674    1797599.94747   1375654.45548                  21463459.8094
        27.5004         42.5004
  21930555.4924   -1931514.81847  -1505069.59147                  21930559.1604
        25.5004         30.2504
  23124046.3134   -3507329.60646  -2686387.21045                  23124053.3244
        13.7504          8.2504
  24503230.8914    2766047.94145   2155363.11945                  24503237.2774
        10.7504          5.5004
 00  5 16 15  5  0.0000000  0  7G 2G 4G 5G 7G 9G24G26
  22203883.1484    1561238.45247   1216552.37947                  22203889.0434
        24.5004         26.5004
  21054800.7424   -2177634.35848  -1680178.17347                  21054805.1024
        28.2504         35.2504
  24750138.3524    -191563.85544    -12511.65153                  24750144.3754
         7.0004          2.5004
  21469390.4454    1828789.37348   1399957.88948                  21469394.7704
        28.0004         42.5004
  21926902.0474   -1950712.92047  -1520029.13447                  21926905.9614
        25.0004         30.0004
  23115644.1804   -3551482.95246  -2720792.32145                  23115651.1564
        13.7504          8.5004
  24511620.6954    2810138.41345   2189719.27445                  24511627.4344
        10.2504          4.7504
 00  5 16 15  5 15.0000000  0  7G 2G 4G 5G 7G 9G24G26
  22209222.9924    1589298.03947   1238416.94347                  22209228.6054
        25.0004         26.7504
  21050651.4064   -2199439.15248  -1697168.88647                  21050655.8014
        28.5004         35.2504
  24743601.3984    -225916.09744    -39279.55843                  24743606.9774
         7.0004          2.5004
  21475351.4614    1860114.28748   1424366.89948                  21475355.7034
        28.0004         42.7504
  21923288.2814   -1969704.19247  -1534827.50847                  21923292.1484
        25.2504         30.5004
  23107267.5554   -3595503.27746  -2755093.78245                  23107274.5314
        14.2504          9.0004
  24520031.5554    2854339.19245   2224161.36845                  24520038.6024
        10.0004          5.0004
 00  5 16 15  5 30.0000000  0  7G 2G 4G 5G 7G 9G24G26
  22214591.4224    1617510.40047   1260400.57647                  22214597.1174
        24.7504         26.5004
  21046543.1724   -2221028.05148  -1713991.37547                  21046547.6954
        28.2504         35.2504
  24737079.8524    -260188.78544    -65985.52743                  24737085.5704
         6.7504          2.5004
  21481337.8674    1891572.83148   1448880.03648                  21481342.0394
        28.0004         42.2504
  21919713.4844   -1988489.85347  -1549465.67047                  21919717.3874
        25.2504         30.7504
  23098915.6644   -3639391.59646  -2789292.39445                  23098922.1914
        14.2504          8.7504
  24528463.4064    2898648.41945   2258687.95445                  24528470.2154
         9.2504          4.7504
 00  5 16 15  5 45.0000000  0  7G 2G 4G 5G 7G 9G24G26
  22219989.0784    1645874.87447   1282502.72147                  22219994.9734
        24.7504         26.2504
  21042475.9144   -2242401.51548  -1730645.98947                  21042480.3324
        28.0004         35.5004
  24730572.4384    -294382.60144    -92630.01442                  24730578.4024
         6.7504          2.2504
  21487349.4924    1923164.18348   1473496.65748                  21487353.6644
        28.2504         42.5004
  21916177.6644   -2007070.33847  -1563943.95247                  21916181.5554
        25.7504         31.0004
  23090589.3134   -3683148.29746  -2823388.44445                  23090595.3834
        14.0004          8.5004
  24536915.1644    2943064.96345   2293298.15844                  24536922.5274
         9.0004          4.2504
 00  5 16 15  6  0.0000000  0  7G 2G 4G 5G 7G 9G24G26
  22225416.5004    1674395.65847   1304726.66647                  22225421.9614
        26.0004         27.0004
  21038450.5084   -2263555.12948  -1747129.29147                  21038454.8794
        28.2504         35.5004
  24724081.4844    -328493.27344   -119209.70143                  24724088.5084
         6.7504          2.7504
  21493387.3284    1954892.29848   1498219.84748                  21493391.5594
        28.0004         42.5004
  21912682.0004   -2025441.36547  -1578259.02047                  21912686.0904
        25.2504         31.0004
  23082288.1334   -3726768.89946  -2857378.43445                  23082294.6844
        13.7504          8.7504
  24545389.1094    2987592.59645   2327994.93044                  24545394.9344
         9.2504          4.0004
 00  5 16 15  6 15.0000000  0  7G 2G 4G 5G 7G 9G24G26
  22230873.3524    1703071.78547   1327071.66547                  22230879.3054
        24.5004         26.2504
  21034466.9224   -2284489.62148  -1763441.85447                  21034471.2934
        28.2504         36.0004
  24717606.3674    -362521.79044   -145725.37742                  24717613.1414
         6.7504          2.2504
  21499450.7424    1986755.94848   1523048.64748                  21499454.9964
        28.2504         42.7504
  21909225.7034   -2043603.68747  -1592411.46247                  21909229.3364
        25.7504         31.0004
  23074013.0394   -3770254.08146  -2891262.90045                  23074019.7664
        13.5004          9.2504
  24553883.2814    3032229.97945   2362777.22744                  24553889.5394
         9.0004          3.7504
 00  5 16 15  6 30.0000000  0  7G 2G 4G 5G 7G 9G24G26
  22236359.3984    1731901.15147   1349536.05347                  22236365.2934
        25.0004         26.5004
  21030524.3914   -2305206.88848  -1779585.14547                  21030528.8444
        28.2504         36.0004
  24711145.6484    -396470.20144   -172178.65243                  24711152.9534
         6.5004          2.5004
  21505539.5474    2018752.82348   1547981.26348                  21505543.6724
        28.2504         42.7504
  21905808.8674   -2061559.14947  -1606402.72047                  21905812.5124
        25.2504         30.5004
  23065763.5634   -3813605.69446  -2925043.27645                  23065770.3594
        14.2504          9.5004
  24562397.7894    3076974.60045   2397643.10044                  24562404.0124
         8.2504          3.5004
 00  5 16 15  6 45.0000000  0  7G 2G 4G 5G 7G 9G24G26
  22241874.9534    1760884.16547   1372120.18147                  22241880.2384
        25.7504         26.5004
  21026623.4844   -2325706.27948  -1795558.66347                  21026627.7274
        28.5004         36.5004
  24704700.6254    -430338.05844   -198569.18443                  24704707.2934
         6.2504          2.5004
  21511653.5394    2050883.12448   1573017.84648                  21511657.7704
        28.0004         42.2504
  21902431.4064   -2079307.13347  -1620232.29847                  21902435.1334
        25.2504         30.0004
  23057539.6644   -3856823.03746  -2958719.05645                  23057546.1094
        14.7504          9.2504
  24570932.7734    3121826.47445   2432592.54344                  24570940.1954
         8.0004          3.7504
 00  5 16 15  7  0.0000000  0  7G 2G 4G 5G 7G 9G24G26
  22247419.8364    1790023.02447   1394825.75347                  22247425.7424
        23.7504         25.7504
  21022764.5704   -2345985.42748  -1811360.56647                  21022768.8364
        28.5004         36.7504
  24698271.8834    -464123.20044   -224895.22842                  24698277.1214
         6.2504          2.0004
  21517793.5944    2083148.62448   1598159.77248                  21517797.6604
        28.5004         42.2504
  21899094.0234   -2096845.39847  -1633898.46547                  21899097.7504
        24.7504         29.7504
  23049341.3524   -3899903.55746  -2992288.20445                  23049347.9844
        14.2504          9.5004
  24579488.7194    3166787.20445   2467626.79344                  24579496.0124
         8.5004          4.0004
 00  5 16 15  7 15.0000000  0  7G 2G 4G 5G 7G 9G24G26
  22252993.1094    1819310.15447   1417646.84147                  22252999.0394
        25.7504         27.0004
  21018945.8594   -2366051.89848  -1826996.74647                  21018950.2194
        28.2504         37.0004
  24691856.5474    -497833.33843   -251162.82742                  24691863.6884
         6.0004          1.7504
  21523957.8754    2115541.53448   1623400.98748                  21523962.0474
        28.2504         42.5004
  21895795.0554   -2114181.39247  -1647407.01347                  21895798.7344
        25.2504         30.0004
  23041168.0004   -3942854.70246  -3025756.53345                  23041174.9884
        14.7504          9.5004
  24588063.9304    3211848.77745   2502739.61244                  24588071.1884
         8.7504          4.0004
 00  5 16 15  7 30.0000000  0  7G 2G 4G 5G 7G 9G24G26
  22258595.3594    1848750.21047   1440587.11047                  22258600.7734
        25.5004         26.5004
  21015168.9454   -2385900.72548  -1842463.33147                  21015173.3524
        28.5004         37.2504
  24685457.4844    -531463.72543   -277368.25542                  24685462.8404
         5.7504          2.2504
  21530147.1954    2148066.28748   1648744.93348                  21530151.3914
        28.2504         42.0004
  21892535.5704   -2131310.22147  -1660754.14047                  21892539.2154
        25.0004         30.2504
  23033020.5474   -3985671.45446  -3059120.14445                  23033026.9694
        14.7504          9.0004
  24596658.4304    3257015.58645   2537934.43844                  24596664.8634
         8.5004          3.7504
 00  5 16 15  7 45.0000000  0  7G 2G 4G 5G 7G 9G24G26
  22264226.4844    1878342.81247   1463646.23246                  22264232.5434
        23.5004         25.5004
  21011432.9774   -2405532.08648  -1857760.47347                  21011437.2424
        28.5004         37.0004
  24679072.7664    -565014.77743   -303511.88842                  24679079.4224
         5.2504          1.7504
  21536361.3594    2180722.20048   1674191.07848                  21536365.6134
        28.0004         42.0004
  21889315.6094   -2148232.07247  -1673939.98047                  21889319.3484
        25.7504         31.0004
  23024898.0314   -4028353.92646  -3092379.13445                  23024904.4304
        14.5004          9.5004
  24605273.5784    3302286.78145   2573210.62044                  24605279.8834
         8.2504          3.5004
 00  5 16 15  8  0.0000000  0  7G 2G 4G 5G 7G 9G24G26
  22269886.5474    1908086.74447   1486823.27747                  22269892.5704
        25.7504         26.7504
  21007738.5314   -2424947.07448  -1872889.00247                  21007742.9024
        28.0004         37.0004
  24672702.9144    -598487.65443   -329594.59542                  24672708.4224
         5.2504          1.5004
  21542600.2034    2213507.91247   1699738.37548                  21542604.4224
        27.7504         41.7504
  21886134.7664   -2164947.94147  -1686965.32147                  21886138.2344
        25.7504         31.2504
  23016801.6644   -4070903.10746  -3125534.23745                  23016808.1684
        15.5004          9.5004
  24613908.3364    3347660.59845   2608566.78344                  24613914.4534
         8.2504          3.5004
 00  5 16 15  8 15.0000000  0  7G 2G 4G 5G 7G 9G24G26
  22275575.4534    1937981.73547   1510118.03046                  22275581.4304
        23.7504         25.5004
  21004085.0084   -2444145.70248  -1887848.94347                  21004089.3794
        28.2504         36.7504
  24666347.3914    -631882.68743   -355616.61042                  24666352.4884
         5.0004          1.5004
  21548863.8284    2246422.80447   1725386.32848                  21548868.2114
        27.5004         41.7504
  21882992.9774   -2181458.06647  -1699830.33547                  21882996.5514
        25.5004         30.7504
  23008729.7734   -4113319.01546  -3158585.52145                  23008736.1254
        15.0004          9.5004
  24622561.7424    3393136.37045   2644002.36744                  24622568.6374
         8.0004          4.0004
 00  5 16 15  8 30.0000000  0  7G 2G 4G 5G 7G 9G24G26
  22281292.4144    1968023.95747   1533527.50747                  22281298.1804
        24.5004         25.7504
  21000472.0634   -2463131.64448  -1902643.15347                  21000476.4574
        28.5004         36.7504
  24660007.1254    -665203.79943   -381581.10342                  24660011.4964
         5.2504          1.7504
  21555150.9064    2279462.77747   1751131.74848                  21555155.4064
        27.5004         41.5004
  21879889.3524   -2197766.12747  -1712537.90247                  21879892.8444
        25.2504         30.7504
  23000682.9304   -4155605.15146  -3191535.66145                  23000688.9774
        15.0004          9.7504
  24631233.8914    3438709.85345   2679514.09243                  24631240.0314
         7.5004          3.2504
 00  5 16 15  8 45.0000000  0  7G 2G 4G 5G 7G 9G24G26
  22287037.0314    1998211.67947   1557050.37047                  22287043.0314
        25.0004         26.2504
  20996899.4534   -2481906.46948  -1917272.86147                  20996903.8364
        28.7504         36.2504
  24653680.2344    -698452.52343   -407489.11642                  24653688.3834
         5.2504          1.7504
  21561461.8364    2312625.97847   1776973.18848                  21561466.3594
        27.5004         41.5004
  21876824.1724   -2213873.66047  -1725089.21447                  21876827.8524
        24.7504         30.2504
  22992660.4614   -4197762.89846  -3224385.77945                  22992667.3324
        14.5004          9.7504
  24639924.6804    3484378.96244   2715100.32044                  24639931.4414
         7.2504          3.5004
 00  5 16 15  9  0.0000000  0  7G 2G 4G 5G 7G 9G24G26
  22292809.5164    2028545.49147   1580687.06347                  22292815.5044
        24.0004         26.5004
  20993367.1954   -2500469.29748  -1931737.37247                  20993371.4494
        28.7504         36.7504
  24647367.6884    -731628.37643   -433340.40642                  24647373.9224
         5.2504          1.5004
  21567796.1094    2345912.67447   1802910.85948                  21567800.6334
        27.5004         42.0004
  21873797.3914   -2229780.00747  -1737483.75247                  21873801.0704
        25.0004         29.7504
  22984662.2664   -4239791.45246  -3257135.20645                  22984668.8984
        14.2504          9.5004
  24648633.0864    3530143.80945   2750761.12944                  24648640.9774
         7.5004          3.5004
 00  5 16 15  9 15.0000000  0  7G 2G 4G 5G 7G 9G24G26
  22298609.3594    2059024.48347   1604436.87046                  22298615.2894
        24.2504         25.5004
  20989874.8594   -2518821.03348  -1946037.39647                  20989879.1484
        28.5004         37.0004
  24641067.1024    -764732.23343   -459135.56342                  24641072.7854
         5.5004          1.7504
  21574153.7344    2379321.70947   1828943.86248                  21574158.0474
        27.7504         41.5004
  21870808.6484   -2245485.81047  -1749722.02447                  21870812.5394
        24.7504         30.0004
  22976689.7424   -4281691.41746  -3289784.44745                  22976696.3524
        15.0004         10.0004
  24657360.8444    3576003.03445   2786495.49944                  24657367.3134
         7.7504          3.7504
 00  5 16 15  9 30.0000000  0  7G 2G 4G 5G 7G 9G24G26
  22304437.5784    2089651.28947   1628301.86346                  22304443.6604
        24.7504         25.5004
  20986423.3444   -2536958.76048  -1960170.66047                  20986427.5744
        28.5004         37.0004
  24634782.7584    -797761.39943   -484872.52442                  24634788.9104
         5.5004          1.7504
  21580534.8984    2412855.48447   1855074.05848                  21580539.3164
        27.7504         41.7504
  21867858.6484   -2260988.24647  -1761801.83047                  21867862.5394
        25.2504         30.5004
  22968741.0084   -4323459.80446  -3322331.15545                  22968747.5124
        15.2504         10.2504
  24666105.9224    3621958.84845   2822305.15943                  24666112.8984
         8.0004          3.2504
 00  5 16 15  9 45.0000000  0  7G 2G 4G 5G 7G 9G24G26
  22310293.4844    2120423.19347   1652279.92347                  22310299.5084
        25.0004         25.7504
  20983012.0554   -2554884.87648  -1974139.03847                  20983016.5204
        28.5004         36.7504
  24628511.0164    -830718.52743   -510553.34942                  24628517.8134
         6.0004          1.7504
  21586939.2504    2446511.01548   1881299.12948                  21586943.5274
        28.0004         42.0004
  21864946.8674   -2276289.95247  -1773725.22347                  21864950.4884
        25.0004         30.0004
  22960817.1884   -4365099.12546  -3354777.31045                  22960824.3404
        15.2504         10.2504
  24674868.0944    3668008.18644   2858187.66943                  24674874.9774
         7.2504          2.7504
 00  5 16 15 10  0.0000000  0  7G 2G 4G 5G 7G 9G24G26
  22316175.6414    2151336.20047   1676367.94146                  22316181.6054
        23.5004         25.5004
  20979640.4224   -2572603.27448  -1987945.55047                  20979644.6644
        28.7504         37.5004
  24622251.9694    -863607.65844   -536181.19042                  24622257.5594
         6.2504          2.0004
  21593366.1254    2480284.15747   1907615.84348                  21593370.4614
        27.7504         42.0004
  21862072.4144   -2291394.73347  -1785495.16947                  21862075.8484
        25.7504         31.0004
  22952917.5704   -4406613.09146  -3387125.77045                  22952924.0744
        15.5004         10.2504
  24683648.5234    3714146.65844   2894139.61643                  24683653.7274
         7.2504          2.7504
 00  5 16 15 10 15.0000000  0  7G 2G 4G 5G 7G 9G24G26
  22322085.0784    2182388.97047   1700564.85647                  22322090.7624
        25.0004         25.7504
  20976307.9614   -2590115.30648  -2001591.26447                  20976312.1914
        29.0004         37.7504
  24616006.0004    -896430.11044   -561757.09342                  24616011.9304
         6.2504          2.0004
  21599814.9224    2514173.23147   1934022.89648                  21599819.1994
        27.5004         41.7504
  21859235.5164   -2306303.75847  -1797112.58147                  21859239.1954
        25.5004         31.0004
  22945041.4304   -4448002.73546  -3419377.36445                  22945047.7704
        15.2504         10.2504
  24692445.3134    3760372.48145   2930159.65843                  24692452.2664
         7.7504          2.5004
 00  5 16 15 10 30.0000000  0  7G 2G 4G 5G 7G 9G24G26
  22328020.6254    2213580.66347   1724870.04746                  22328026.5664
        23.7504         25.5004
  20973014.7894   -2607421.39248  -2015076.50247                  20973019.0204
        29.2504         38.2504
  24609772.7584    -929186.72244   -587281.67843                  24609778.6884
         6.7504          2.5004
  21606285.8364    2548177.12047   1960519.41748                  21606290.1254
        27.7504         41.7504
  21856435.3754   -2321017.78447  -1808578.04747                  21856438.7974
        25.2504         30.7504
  22937188.2974   -4489268.69246  -3451532.58445                  22937194.7774
        15.0004          9.7504
  24701257.9924    3806684.22045   2966246.69243                  24701264.6604
         7.7504          2.7504
 00  5 16 15 10 45.0000000  0  7G 2G 4G 5G 7G 9G24G26
  22333982.1884    2244908.27347   1749281.11146                  22333988.3404
        23.2504         25.2504
  20969760.0234   -2624524.48648  -2028403.56447                  20969764.1484
        29.5004         38.7504
  24603551.2664    -961880.45144   -612757.23343                  24603556.5864
         7.0004          2.5004
  21612777.7974    2582292.66048   1987102.94148                  21612782.1804
        28.0004         42.0004
  21853672.0784   -2335539.50147  -1819893.65647                  21853675.7814
        25.2504         30.0004
  22929358.6174   -4530413.62446  -3483593.48645                  22929365.5004
        15.5004         10.7504
  24710086.7664    3853078.56345   3002398.04243                  24710093.9184
         8.0004          3.0004
 00  5 16 15 11  0.0000000  0  7G 2G 4G 5G 7G 9G24G26
  22339969.7344    2276373.84947   1773799.68546                  22339975.2194
        25.2504         25.0004
  20966544.5004   -2641422.23048  -2041570.61047                  20966548.7074
        29.5004         38.5004
  24597342.1564    -994509.27945   -638182.26042                  24597350.7154
         7.5004          2.2504
  21619291.4224    2616521.60647   2013774.82648                  21619295.7464
        27.7504         41.7504
  21850945.6484   -2349866.80447  -1831057.77347                  21850949.4574
        24.2504         29.7504
  22921552.5314   -4571435.24746  -3515558.31845                  22921559.1054
        15.2504         10.2504
  24718930.9844    3899557.13045   3038615.00743                  24718938.6884
         8.2504          3.2504
 00  5 16 15 11 15.0000000  0  7G 2G 4G 5G 7G 9G24G26
  22345983.1094    2307973.58647   1798422.82846                  22345989.0984
        23.2504         24.7504
  20963367.6174   -2658118.45348  -2054580.62447                  20963371.6604
        29.7504         39.2504
  24591144.8054   -1027077.07745   -663559.73642                  24591151.8754
         8.0004          2.0004
  21625825.7664    2650859.92147   2040531.93548                  21625830.0204
        27.7504         41.5004
  21848255.4534   -2364003.35947  -1842073.25447                  21848259.5084
        24.7504         29.7504
  22913768.8834   -4612337.02046  -3547429.75745                  22913775.8244
        15.5004         10.5004
  24727791.5554    3946115.74545   3074894.37543                  24727798.8014
         8.5004          3.2504
 00  5 16 15 11 30.0000000  0  7G 2G 4G 5G 7G 9G24G26
  22352021.6174    2339706.44047   1823149.67146                  22352027.7114
        23.2504         24.7504
  20960228.4454   -2674613.75848  -2067434.08347                  20960232.4534
        29.7504         39.2504
  24584958.7504   -1059584.78745   -688890.35342                  24584965.9144
         8.2504          2.2504
  21632380.7814    2685306.41747   2067373.34748                  21632385.0704
        27.5004         41.5004
  21845601.5554   -2377950.02247  -1852940.77147                  21845605.2584
        25.0004         30.5004
  22906008.6564   -4653119.56646  -3579208.28145                  22906014.9494
        15.7504         10.5004
  24736666.6254    3992752.96345   3111235.00343                  24736673.2114
         9.0004          3.2504
 00  5 16 15 11 45.0000000  0  7G 2G 4G 5G 7G 9G24G26
  22358086.4064    2371575.48147   1847982.63546                  22358092.3014
        24.2504         24.7504
  20957128.0704   -2690905.06348  -2080128.58247                  20957132.1484
        29.5004         39.0004
  24578784.6174   -1092029.23445   -714171.72542                  24578791.8874
         8.2504          1.7504
  21638956.6804    2719863.86047   2094301.20548                  21638961.1094
        27.5004         41.2504
  21842984.3204   -2391703.63147  -1863657.85847                  21842987.8714
        25.7504         31.0004
  22898271.0314   -4693779.68246  -3610891.42645                  22898277.6294
        16.0004         10.7504
  24745556.5944    4039471.37345   3147638.85444                  24745564.7544
         8.5004          3.5004
 00  5 16 15 12  0.0000000  0  7G 2G 4G 5G 7G 9G24G26
  22364175.4534    2403574.25647   1872916.71046                  22364181.4774
        23.7504         24.2504
  20954065.6954   -2706998.70748  -2092669.05747                  20954069.9024
        30.0004         39.0004
  24572620.9384   -1124416.92345   -739408.85943                  24572629.3674
         8.5004          2.5004
  21645552.6804    2754525.50947   2121310.27048                  21645557.2034
        27.0004         41.0004
  21840402.7344   -2405270.38847  -1874229.34747                  21840406.2034
        26.0004         31.5004
  22890555.6884   -4734323.55546  -3642483.98845                  22890562.0744
        15.5004         11.0004
  24754460.3594    4086264.11245   3184100.64543                  24754467.7704
         8.5004          3.2504
 00  5 16 15 12 15.0000000  0  7G 2G 4G 5G 7G 9G24G26
  22370289.4454    2435703.31447   1897952.28746                  22370295.3404
        23.2504         24.0004
  20951041.0474   -2722893.84348  -2105054.85647                  20951045.2894
        29.5004         39.0004
  24566469.5164   -1156747.29445   -764601.32443                  24566476.0204
         8.5004          2.7504
  21652168.4694    2789291.76847   2148400.84348                  21652172.9924
        27.2504         41.0004
  21837856.6174   -2418649.62547  -1884654.71447                  21837860.1454
        26.0004         31.5004
  22882862.6024   -4774750.27146  -3673985.25845                  22882868.6484
        15.7504         11.0004
  24763379.8524    4133131.28145   3220620.43044                  24763387.7774
         8.7504          3.5004
 00  5 16 15 12 30.0000000  0  7G 2G 4G 5G 7G 9G24G26
  22376428.3134    2467962.52847   1923089.28846                  22376434.2424
        23.5004         24.2504
  20948054.0394   -2738590.46848  -2117285.96447                  20948058.1524
        29.0004         39.0004
  24560327.6564   -1189020.51145   -789749.26643                  24560334.4774
         8.2504          2.5004
  21658804.1564    2824162.25147   2175572.63148                  21658808.6214
        27.0004         41.0004
  21835346.4694   -2431841.29947  -1894933.92847                  21835349.8444
        26.0004         31.7504
  22875192.1094   -4815059.56246  -3705395.03945                  22875198.4144
        16.0004         11.2504
  24772312.1644    4180072.44545   3257197.87643                  24772319.3754
         9.0004          3.0004
 00  5 16 15 12 45.0000000  0  7G 2G 4G 5G 7G 9G24G26
  22382593.3444    2500360.37547   1948334.32746                  22382599.2504
        23.7504         24.5004
  20945106.3134   -2754079.88748  -2129355.61447                  20945110.5434
        29.7504         38.7504
  24554198.8754   -1221228.05245   -814846.00442                  24554206.6374
         7.5004          2.2504
  21665461.1804    2859145.17847   2202832.03948                  21665465.7624
        27.0004         40.7504
  21832873.2734   -2444836.75847  -1905060.24947                  21832876.9184
        25.2504         31.0004
  22867545.5394   -4855242.91846  -3736706.66845                  22867551.9844
        16.2504         11.0004
  24781260.3914    4227095.62445   3293839.22043                  24781265.8404
         8.5004          3.0004
 00  5 16 15 13  0.0000000  0  7G 2G 4G 5G 7G 9G24G26
  22388782.9694    2532887.04747   1973679.74846                  22388789.0274
        23.0004         24.2504
  20942196.4924   -2769371.82048  -2141271.38347                  20942200.6764
        29.5004         38.7504
  24548080.4224   -1253379.73244   -839899.26342                  24548087.6094
         6.7504          2.0004
  21672137.5234    2894230.45347   2230171.20048                  21672142.1174
        27.0004         40.7504
  21830435.9454   -2457645.72847  -1915041.25047                  21830439.5664
        25.2504         31.0004
  22859921.1644   -4895309.82246  -3767927.57545                  22859927.6804
        16.5004         11.5004
  24790222.0634    4274190.53045   3330536.48243                  24790229.3094
         8.2504          3.2504
 00  5 16 15 13 15.0000000  0  7G 2G 4G 5G 7G 9G24G26
  22394996.0784    2565536.54747   1999120.86546                  22395002.0084
        23.5004         23.0004
  20939322.8054   -2784472.02848  -2153037.75347                  20939327.1644
        29.5004         38.0004
  24541971.4224   -1285481.43843   -864913.50842                  24541978.7624
         5.7504          2.0004
  21678832.5704    2929411.89647   2257585.29248                  21678837.2234
        27.2504         39.7504
  21828032.7584   -2470274.11347  -1924881.53647                  21828036.7304
        25.2504         30.7504
  22852317.3754   -4935265.87046  -3799062.10046                  22852323.8914
        16.7504         12.0004
  24799196.8594    4321350.77345   3367284.64643                  24799203.4224
         8.5004          3.2504
 00  5 16 15 13 30.0000000  0  7G 2G 4G 5G 7G 9G24G26
  22401233.4774    2598314.09347   2024661.77546                  22401238.9494
        24.5004         24.2504
  20936486.7344   -2799375.20148  -2164650.59147                  20936491.0474
        29.0004         39.0004
  24535873.5234   -1317528.07142   -889884.87642                  24535880.9924
         4.7504          1.7504
  21685546.5234    2964694.48547   2285078.20548                  21685551.2814
        27.0004         40.2504
  21825664.9304   -2482716.46147  -1934576.86147                  21825668.5984
        26.0004         31.5004
  22844736.2344   -4975105.65646  -3830106.02745                  22844742.7384
        16.5004         11.7504
  24808184.3284    4368581.17445   3404087.44744                  24808190.7624
         9.0004          3.7504
 00  5 16 15 13 45.0000000  0  7G 2G 4G 5G 7G 9G24G26
  22407494.7114    2631216.42447   2050299.92446                  22407501.0164
        22.7504         24.0004
  20933687.7814   -2814084.35848  -2176112.24847                  20933692.1644
        29.5004         39.0004
  24529785.0084   -1349522.77542   -914815.76442                  24529789.4964
         4.0004          1.5004
  21692279.2114    3000074.66547   2312647.15648                  21692283.8404
        27.2504         40.0004
  21823332.1564   -2494975.89247  -1944129.65447                  21823335.7424
        26.0004         31.7504
  22837176.5084   -5014832.14546  -3861061.67846                  22837182.5664
        17.0004         12.0004
  24817185.3914    4415877.99045   3440942.00144                  24817193.2464
         9.7504          3.5004
 00  5 16 15 14  0.0010000  0  7G 2G 4G 5G 7G 9G24G26
  22413779.4274    2664243.89247   2076035.54946                  22413785.2044
        23.7504         23.7504
  20930925.0284   -2828602.13748  -2187424.77947                  20930929.3294
        29.0004         39.2504
  24523705.6464   -1381469.45242   -939709.18841                  24523711.8804
         3.7504          1.2504
  21699030.5674    3035552.85247   2340292.48048                  21699035.1264
        27.5004         40.5004
  21821033.7004   -2507054.84347  -1953541.81647                  21821037.1344
        26.2504         32.2504
  22829637.2244   -5054449.41246  -3891932.22046                  22829643.4464
        16.2504         12.0004
  24826198.4034    4463242.32645   3477849.19944                  24826204.5794
         9.5004          4.0004
 00  5 16 15 14 15.0010000  0  7G 2G 4G 5G 7G 9G24G26
  22420087.0994    2697390.12847   2101863.75346                  22420092.6654
        24.0004         23.2504
  20928198.9894   -2842928.43948  -2198588.11048                  20928203.3964
        29.2504         39.5004
  24517635.8724   -1413365.80042   -964563.42442                  24517640.6184
         4.5004          1.7504
  21705799.0994    3071122.05247   2368008.72448                  21705803.6104
        27.5004         40.0004
  21818769.4664   -2518953.57547  -1962813.54347                  21818773.4744
        25.7504         31.7504
  22822120.3254   -5093953.98446  -3922714.94046                  22822126.9234
        17.2504         12.2504
  24835222.6144    4510665.30345   3514802.06343                  24835229.5914
         9.0004          3.2504
 00  5 16 15 14 30.0010000  0  7G 2G 4G 5G 7G 9G24G26
  22426418.7394    2730662.86747   2127790.51646                  22426424.6224
        23.5004         23.0004
  20925510.3254   -2857058.53748  -2209598.55248                  20925514.4974
        29.7504         39.7504
  24511575.8964   -1445208.40343   -989375.79242                  24511582.1534
         5.5004          2.0004
  21712586.5754    3106790.01147   2395801.91548                  21712591.0524
        27.7504         40.0004
  21816540.2944   -2530667.26047  -1971941.08147                  21816543.9034
        26.2504         31.7504
  22814624.5524   -5133342.66546  -3953407.37346                  22814630.6574
        17.2504         12.2504
  24844259.3254    4558155.21145   3551807.10343                  24844266.5134
         9.0004          2.7504
 00  5 16 15 14 45.0010000  0  7G 2G 4G 5G 7G 9G24G26
  22432773.4814    2764055.78147   2153810.90246                  22432779.4354
        24.2504         23.7504
  20922857.5054   -2870998.49048  -2220460.82848                  20922861.5364
        30.2504         39.7504
  24505525.8724   -1477003.53044  -1014151.12043                  24505531.3104
         6.7504          2.5004
  21719391.5674    3142550.05947   2423666.87248                  21719396.0674
        27.5004         40.2504
  21814345.2314   -2542202.00647  -1980929.18247                  21814348.9934
        25.5004         31.2504
  22807150.0214   -5172621.41046  -3984014.12846                  22807156.4784
        17.0004         12.5004
  24853307.9354    4605705.40845   3588859.14043                  24853314.0174
         9.0004          3.2504
 00  5 16 15 15  0.0010000  0  7G 2G 4G 5G 7G 9G24G26
  22439151.0054    2797571.65747   2179927.13746                  22439156.9114
        23.0004         23.5004
  20920241.5054   -2884745.53648  -2231172.79048                  20920245.6184
        30.2504         39.7504
  24499484.8724   -1508748.34545  -1038887.34143                  24499490.4624
         7.7504          3.0004
  21726214.7084    3178404.77247   2451605.58948                  21726219.1494
        27.5004         40.2504
  21812184.9814   -2553554.91147  -1989775.59447                  21812188.4974
        25.7504         31.5004
  22799696.7314   -5211787.14446  -4014532.82746                  22799703.2124
        17.0004         12.7504
  24862368.8494    4653318.17845   3625959.93743                  24862375.5634
         9.0004          2.7504
 00  5 16 15 15 15.0010000  0  7G 2G 4G 5G 7G 9G24G26
  22445552.4974    2831210.27147   2206138.99546                  22445558.5564
        23.5004         23.0004
  20917662.2864   -2898299.63448  -2241734.40448                  20917666.4814
        30.0004         40.2504
  24493453.5214   -1540443.07845  -1063584.45344                  24493459.2634
         8.7504          3.5004
  21733055.4814    3214353.74747   2479617.76248                  21733059.9704
        27.5004         40.2504
  21810059.1614   -2564726.13447  -1998480.43347                  21810062.9814
        25.5004         31.7504
  22792265.2634   -5250839.86646  -4044963.47146                  22792271.6384
        16.5004         12.7504
  24871440.9504    4700992.93145   3663109.00143                  24871448.5834
         9.0004          3.2504
 00  5 16 15 15 30.0010000  0  7G 2G 4G 5G 7G 9G24G26
  22451976.2164    2864966.88047   2232442.79846                  22451982.0524
        24.5004         23.5004
  20915118.7394   -2911665.38548  -2252149.25548                  20915122.9464
        29.7504         40.0004
  24487431.5364   -1572092.43745  -1088246.27244                  24487437.9814
         9.5004          3.7504
  21739913.1854    3250391.95047   2507699.45848                  21739917.5324
        27.5004         40.2504
  21807966.9974   -2575720.22047  -2007047.24247                  21807970.4424
        26.2504         32.5004
  22784854.6924   -5289784.07046  -4075309.55446                  22784861.0564
        17.0004         12.7504
  24880523.8174    4748724.51145   3700302.37444                  24880532.0014
         8.7504          3.7504
 00  5 16 15 15 45.0010000  0  7G 2G 4G 5G 7G 9G24G26
  22458423.1304    2898846.15947   2258842.18646                  22458429.2474
        23.5004         22.7504
  20912612.0994   -2924837.97348  -2262413.59048                  20912616.3414
        29.7504         40.0004
  24481418.6064   -1603691.72445  -1112869.06144                  24481424.8294
         9.7504          3.7504
  21746789.0674    3286523.76547   2535854.10148                  21746793.5214
        27.5004         40.2504
  21805909.5214   -2586532.21647  -2015472.17047                  21805912.9664
        26.2504         33.5004
  22777465.2004   -5328614.81146  -4105567.22246                  22777471.4464
        17.2504         12.5004
  24889618.5914    4796517.05445   3737543.22744                  24889626.5174
         7.7504          3.5004
 00  5 16 15 16  0.0010000  0  7G 2G 4G 5G 7G 9G24G26
  22464893.7314    2932847.66647   2285336.80046                  22464899.3804
        23.5004         22.5004
  20910142.1614   -2937817.65348  -2272527.60648                  20910146.5324
        29.7504         39.7504
  24475414.3804   -1635241.50145  -1137453.28844                  24475420.0634
         9.7504          3.7504
  21753682.4424    3322748.68547   2564081.28748                  21753686.9074
        27.5004         40.2504
  21803886.8174   -2597162.49247  -2023755.49547                  21803890.1694
        26.7504         33.7504
  22770097.4894   -5367332.15046  -4135736.52046                  22770103.8764
        17.5004         12.7504
  24898723.7394    4844369.85944   3774830.99944                  24898731.8174
         7.0004          3.5004
 00  5 16 15 16 15.0010000  0  7G 2G 4G 5G 7G 9G24G26
  22471385.6144    2966963.11047   2311920.22046                  22471391.4854
        23.7504         23.0004
  20907707.3174   -2950612.56048  -2282497.64248                  20907711.6654
        30.0004         39.5004
  24469418.3414   -1666749.85845  -1162005.19044                  24469423.7904
         9.2504          3.7504
  21760591.7634    3359058.09947   2592374.31748                  21760596.1464
        27.7504         40.0004
  21801897.0134   -2607619.16647  -2031903.54647                  21801900.5404
        26.0004         33.5004
  22762750.0134   -5405944.14246  -4165823.73946                  22762756.2474
        17.5004         13.0004
  24907840.8414    4892274.30844   3812159.02343                  24907849.4934
         7.0004          3.2504
 00  5 16 15 16 30.0010000  0  7G 2G 4G 5G 7G 9G24G26
  22477899.9584    3001196.53447   2338595.56546                  22477906.1104
        22.2504         22.7504
  20905308.4114   -2963218.48248  -2292320.41648                  20905312.6184
        29.7504         39.7504
  24463431.8964   -1698212.73645  -1186521.67243                  24463437.8724
         8.7504          3.2504
  21767518.1854    3395455.83947   2620736.17248                  21767522.5214
        27.7504         40.0004
  21799940.7244   -2617898.09247  -2039913.08947                  21799944.3804
        26.2504         33.2504
  22755423.3254   -5444446.42446  -4195825.47346                  22755429.6184
        17.5004         12.7504
  24916967.0054    4940233.82145   3849529.94943                  24916974.6144
         7.5004          3.2504
 00  5 16 15 16 45.0010000  0  7G 2G 4G 5G 7G 9G24G26
  22484437.4114    3035551.19147   2365365.35446                  22484443.3294
        23.5004         22.5004
  20902946.2864   -2975632.07148  -2301993.32348                  20902950.4934
        29.7504         39.5004
  24457453.5524   -1729626.83645  -1211000.21542                  24457459.4354
         7.7504          2.0004
  21774461.9114    3431945.01747   2649169.27548                  21774466.1654
        27.7504         40.0004
  21798019.2004   -2627995.81947  -2047781.44347                  21798023.0444
        25.7504         32.7504
  22748118.1224   -5482835.44146  -4225738.95346                  22748124.2514
        17.7504         13.0004
  24926105.6064    4988251.45245   3886946.22644                  24926112.3104
         8.7504          3.5004
 00  5 16 15 17  0.0010000  0  7G 2G 4G 5G 7G 9G24G26
  22490997.9354    3070026.84647   2392229.45946                  22491003.9464
        22.7504         22.5004
  20900620.6854   -2987853.29448  -2311516.33148                  20900624.8684
        30.0004         40.0004
  24451484.4974   -1760992.39544  -1235440.84842                  24451491.6734
         6.7504          2.0004
  21781422.6924    3468525.17647   2677673.26948                  21781426.9704
        27.5004         40.0004
  21796132.3334   -2637912.49247  -2055508.70447                  21796136.0604
        26.2504         33.2504
  22740834.5364   -5521111.06946  -4255564.06046                  22740840.8414
        18.2504         13.0004
  24935253.6064    5036326.44745   3924407.17743                  24935261.0634
         9.2504          3.0004
 00  5 16 15 17 15.0010000  0  7G 2G 4G 5G 7G 9G24G26
  22497582.0214    3104625.74547   2419189.57746                  22497588.1384
        23.0004         22.2504
  20898332.0444   -2999879.79848  -2320887.61648                  20898336.0874
        30.0004         40.0004
  24445525.8564   -1792307.12243  -1259841.93042                  24445531.8104
         6.0004          1.5004
  21788401.5054    3505198.22347   2706249.65148                  21788405.7944
        27.5004         39.5004
  21794280.0444   -2647645.81747  -2063093.10647                  21794283.8064
        26.2504         33.7504
  22733572.8104   -5559270.89446  -4285298.94746                  22733579.2084
        18.0004         12.7504
  24944413.4584    5084460.69545   3961914.30844                  24944420.7634
         9.0004          4.0004
 00  5 16 15 17 30.0010000  0  7G 2G 4G 5G 7G 9G24G26
  22504188.3104    3139340.43947   2446239.91146                  22504194.2394
        24.2504         22.5004
  20896079.0604   -3011718.86048  -2330112.83748                  20896083.2784
        29.5004         39.7504
  24439574.4814   -1823578.41243  -1284209.09041                  24439579.0054
         5.2504          1.2504
  21795396.3804    3541956.50847   2734892.45047                  21795400.7394
        27.5004         39.2504
  21792461.4664   -2657203.05847  -2070540.30247                  21792464.9934
        27.0004         34.2504
  22726331.8104   -5597322.08346  -4314949.18246                  22726337.7514
        17.5004         12.5004
  24953582.4424    5132646.18745   3999461.36444                  24953590.2864
         8.2504          4.0004
 00  5 16 15 17 45.0010000  0  7G 2G 4G 5G 7G 9G24G26
  22510814.4894    3174161.73147   2473373.34846                  22510820.6064
        22.7504         22.0004
  20893859.9974   -3023379.58648  -2339199.09648                  20893864.2514
        29.5004         40.0004
  24433630.1694   -1854815.38643  -1308549.54942                  24433636.1574
         5.7504          1.5004
  21802405.5994    3578790.68147   2763594.38247                  21802410.0404
        27.5004         39.0004
  21790674.5134   -2666593.16647  -2077857.26047                  21790678.2634
        26.2504         34.7504
  22719109.9744   -5635273.47446  -4344521.65646                  22719115.9854
        18.2504         12.5004
  24962759.6144    5180873.56045   4037041.03644                  24962767.4934
         7.5004          3.7504
 00  5 16 15 18  0.0010000  0  7G 2G 4G 5G 7G 9G24G26
  22517462.7474    3209098.33847   2500596.60746                  22517468.6884
        22.7504         22.2504
  20891676.8174   -3034853.11748  -2348139.48748                  20891681.0714
        29.7504         40.2504
  24427694.1144   -1886009.30944  -1332856.50042                  24427700.3964
         6.5004          2.0004
  21809431.0754    3615709.15147   2792362.00147                  21809435.5754
        27.2504         38.7504
  21788921.2714   -2675807.39747  -2085037.16947                  21788924.8684
        26.7504         35.2504
  22711908.7554   -5673116.11646  -4374009.38646                  22711914.7084
        18.2504         13.0004
  24971947.0524    5229150.95745   4074659.66944                  24971954.3564
         8.2504          3.7504
 00  5 16 15 18 15.0010000  0  7G 2G 4G 5G 7G 9G24G26
  22524133.0754    3244150.39147   2527909.83746                  22524138.8534
        24.5004         23.0004
  20889529.2004   -3046139.19148  -2356933.81248                  20889533.4664
        29.7504         40.2504
  24421766.7944   -1917159.95645  -1357129.64343                  24421774.0994
         7.5004          2.5004
  21816472.3884    3652711.81447   2821195.22147                  21816477.0284
        27.0004         38.0004
  21787201.2004   -2684845.43247  -2092079.78947                  21787204.9154
        26.2504         34.7504
  22704728.2164   -5710849.61446  -4403412.07646                  22704734.4744
        18.2504         12.5004
  24981143.2864    5277478.14045   4112317.15743                  24981150.0834
         8.5004          3.2504
 00  5 16 15 18 30.0010000  0  7G 2G 4G 5G 7G 9G24G26
  22530824.8804    3279317.08947   2555312.41146                  22530830.8564
        21.7504         21.7504
  20887417.2314   -3057238.34348  -2365582.48248                  20887421.4854
        29.7504         40.2504
  24415847.0134   -1948268.19645  -1381369.80343                  24415852.9074
         8.2504          2.7504
  21823529.5604    3689797.82047   2850093.38947                  21823534.1304
        26.7504         38.0004
  21785514.6774   -2693707.99047  -2098985.66747                  21785518.4274
        26.2504         35.0004
  22697568.4814   -5748474.37346  -4432730.02846                  22697574.3174
        18.0004         13.0004
  24990349.1224    5325853.83645   4150012.39844                  24990356.2744
         8.7504          3.7504
 00  5 16 15 18 45.0010000  0  7G 2G 4G 5G 7G 9G24G26
  22537539.4664    3314600.61747   2582805.99046                  22537545.5014
        22.7504         22.2504
  20885340.8964   -3068148.38748  -2374083.79348                  20885345.0914
        29.7504         40.7504
  24409935.8884   -1979331.73245  -1405575.13943                  24409941.2204
         8.5004          3.2504
  21830603.2474    3726968.94747   2879057.88247                  21830607.9704
        26.7504         37.7504
  21783862.2634   -2702392.71847  -2105752.98247                  21783866.3534
        25.7504         34.5004
  22690429.7714   -5785988.03646  -4461961.40946                  22690436.0634
        18.2504         13.2504
  24999564.0214    5374279.94045   4187746.94543                  24999571.3134
         8.5004          3.2504
 00  5 16 15 19  0.0010000  0  7G 2G 4G 5G 7G 9G24G26
  22544275.1774    3349996.89947   2610387.44046                  22544281.1064
        23.0004         22.5004
  20883300.0834   -3078873.04048  -2382440.64548                  20883304.2904
        30.0004         40.5004
  24404032.6694   -2010354.57845  -1429748.72843                  24404038.0484
         8.2504          3.2504
  21837691.8964    3764220.99947   2908085.43347                  21837696.6064
        26.7504         37.7504
  21782242.6144   -2710903.51847  -2112384.75947                  21782246.6224
        26.2504         35.0004
  22683311.7864   -5823394.31246  -4491109.10446                  22683318.1734
        18.2504         13.5004
  25008788.1464    5422752.04045   4225517.32343                  25008795.2984
         7.7504          2.7504
 00  5 16 15 19 15.0010000  0  7G 2G 4G 5G 7G 9G24G26
  22551032.4974    3385506.88347   2638057.49846                  22551038.5214
        22.0004         21.5004
  20881294.7084   -3089411.38048  -2390652.32248                  20881298.8454
        30.2504         40.7504
  24398137.2314   -2041335.81145  -1453889.89943                  24398142.9384
         7.5004          3.0004
  21844796.2634    3801554.78847   2937176.67947                  21844801.1034
        26.5004         38.0004
  21780656.3174   -2719239.30647  -2118880.17247                  21780660.3494
        26.0004         35.2504
  22676214.1614   -5860691.91146  -4520172.12946                  22676220.4784
        18.2504         13.5004
  25018020.1064    5471270.66744   4263323.95943                  25018029.5564
         6.5004          2.5004
 00  5 16 15 19 30.0010000  0  7G 2G 4G 5G 7G 9G24G26
  22557810.5994    3421126.14247   2665812.69246                  22557816.6104
        23.0004         21.7504
  20879324.0134   -3099767.58648  -2398722.07348                  20879328.1034
        30.5004         40.5004
  24392248.2244   -2072279.69444  -1478001.96843                  24392255.0324
         7.0004          3.0004
  21851915.3254    3838965.59547   2966327.93747                  21851920.0834
        27.0004         37.7504
  21779102.6614   -2727404.37547  -2125242.55447                  21779106.4704
        26.5004         35.2504
  22669136.5364   -5897884.96146  -4549153.69546                  22669142.4894
        18.0004         13.2504
  25027261.5834    5519830.98144   4301163.07743                  25027270.2594
         7.0004          2.7504
 00  5 16 15 19 45.0010000  0  7G 2G 4G 5G 7G 9G24G26
  22564609.1694    3456853.39647   2693652.04846                  22564615.1104
        22.5004         22.5004
  20877387.6304   -3109942.81248  -2406650.80148                  20877391.7314
        30.2504         40.0004
  24386366.7394   -2103187.46944  -1502085.92143                  24386372.3534
         6.2504          2.7504
  21859048.9034    3876451.93647   2995538.05447                  21859053.5914
        27.0004         38.0004
  21777581.3564   -2735399.88147  -2131472.81047                  21777585.0834
        26.7504         35.2504
  22662078.6774   -5934974.55846  -4578054.63346                  22662084.6884
        18.2504         13.5004
  25036510.6224    5568431.27845   4339033.35343                  25036519.5324
         7.5004          3.2504
 00  5 16 15 20  0.0010000  0  7G 2G 4G 5G 7G 9G24G26
  22571430.3884    3492698.52647   2721583.24646                  22571436.3884
        22.7504         21.7504
  20875487.7244   -3119927.09448  -2414430.74048                  20875491.7204
        30.2504         40.5004
  24380494.2314   -2134049.23344  -1526133.96943                  24380501.2554
         6.2504          2.5004
  21866198.5914    3914023.47247   3024814.55447                  21866203.1384
        27.0004         37.7504
  21776093.8414   -2743215.77147  -2137563.10747                  21776097.2744
        26.7504         35.2504
  22655041.9424   -5971950.41446  -4606866.95346                  22655048.0244
        17.7504         13.0004
  25045767.9664    5617080.95745   4376942.11343                  25045776.6064
         7.5004          3.2504
 00  5 16 15 20 15.0010000  0  7G 2G 4G 5G 7G 9G24G26
  22578272.8104    3528655.45447   2749601.58446                  22578278.7044
        22.0004         21.5004
  20873623.0674   -3129726.39648  -2422066.53748                  20873627.1814
        30.2504         40.2504
  24374628.6854   -2164871.05444  -1550150.89242                  24374633.9114
         7.0004          2.2504
  21873363.1064    3951673.87347   3054152.50647                  21873367.6184
        27.0004         38.2504
  21774639.4974   -2750858.01547  -2143518.09447                  21774643.0714
        26.2504         35.0004
  22648026.4504   -6008818.37646  -4635595.18446                  22648032.4154
        18.0004         13.7504
  25055033.9744    5665773.66245   4414884.39143                  25055041.5244
         7.7504          3.0004
 00  5 16 15 20 30.0010000  0  7G 2G 4G 5G 7G 9G24G26
  22585136.6614    3564723.96147   2777706.84946                  22585142.7204
        22.5004         21.5004
  20871793.4504   -3139340.63348  -2429558.13048                  20871797.5054
        30.2504         40.2504
  24368771.1144   -2195653.07445  -1574136.87643                  24368777.4074
         8.0004          2.5004
  21880542.7394    3989402.78347   3083551.62647                  21880547.1104
        27.5004         38.0004
  21773218.1774   -2758326.76647  -2149337.88847                  21773221.7284
        26.2504         34.7504
  22641030.9194   -6045578.44946  -4664239.35346                  22641036.9894
        17.7504         14.0004
  25064307.8494    5714508.76145   4452859.70044                  25064314.6574
         7.7504          3.7504
 00  5 16 15 20 45.0010000  0  7G 2G 4G 5G 7G 9G24G26
  22592020.8564    3600900.91147   2805896.61446                  22592026.9274
        23.5004         22.0004
  20869998.5134   -3148772.93848  -2436907.96148                  20870002.6494
        30.0004         40.2504
  24362920.5054   -2226398.40945  -1598094.19043                  24362926.6464
         9.0004          3.0004
  21887736.5604    4027206.84147   3113009.31447                  21887741.0134
        27.0004         38.2504
  21771829.2474   -2765624.96147  -2155024.78547                  21771832.7744
        26.0004         35.0004
  22634056.0054   -6082233.25746  -4692801.49346                  22634062.0054
        18.5004         14.5004
  25073589.6854    5763282.70845   4490865.30044                  25073598.3374
         7.7504          3.7504
 00  5 16 15 21  0.0010000  0  7G 2G 4G 5G 7G 9G24G26
  22598924.0754    3637177.43247   2834163.96146                  22598929.9234
        22.5004         21.2504
  20868236.4974   -3158032.02648  -2444122.81448                  20868240.5174
        30.2504         40.0004
  24357075.3104   -2257115.90345  -1622029.89744                  24357081.7314
         9.7504          3.5004
  21894943.1464    4065076.93947   3142518.46047                  21894947.5174
        27.5004         38.0004
  21770471.4274   -2772761.26647  -2160585.52447                  21770475.2714
        26.0004         34.5004
  22627098.9744   -6118791.56846  -4721288.44346                  22627105.1034
        18.0004         14.7504
  25082876.2784    5812086.20944   4528893.91343                  25082884.9424
         7.0004          2.7504
 00  5 16 15 21 15.0010000  0  7G 2G 4G 5G 7G 9G24G26
  22605847.5524    3673559.81747   2862513.80146                  22605853.6104
        22.0004         21.5004
  20866508.6924   -3167111.44548  -2451197.66848                  20866512.8994
        30.0004         40.5004
  24351236.6064   -2287799.14845  -1645938.85044                  24351242.7824
        10.0004          3.7504
  21902163.3254    4103019.28247   3172083.90147                  21902167.7314
        27.0004         38.0004
  21769145.3804   -2779729.28047  -2166015.13447                  21769149.3174
        25.7504         34.7504
  22620161.9194   -6155246.81046  -4749695.07746                  22620168.1534
        18.5004         14.7504
  25092170.0834    5860925.22144   4566950.19743                  25092177.3884
         7.0004          3.0004
 00  5 16 15 21 30.0010000  0  7G 2G 4G 5G 7G 9G24G26
  22612791.9034    3710051.42947   2890948.75646                  22612797.8454
        22.7504         21.2504
  20864815.8964   -3176007.72848  -2458129.81348                  20864820.0564
        30.2504         39.7504
  24345404.4744   -2318444.83645  -1669818.59144                  24345410.8374
         9.7504          3.7504
  21909397.8564    4141036.77447   3201707.89947                  21909402.2634
        27.5004         37.0004
  21767852.2634   -2786525.59747  -2171310.95647                  21767856.1304
        25.7504         34.5004
  22613244.8884   -6191595.23646  -4778018.48746                  22613251.0634
        18.2504         14.7504
  25101471.3024    5909802.71145   4605036.47543                  25101480.6464
         7.7504          3.0004
 00  5 16 15 21 45.0010000  0  7G 2G 4G 5G 7G 9G24G26
  22619757.0134    3746653.71747   2919469.96446                  22619763.0604
        22.2504         21.2504
  20863158.2474   -3184719.25148  -2464917.99448                  20863162.2434
        30.7504         40.7504
  24339580.4584   -2349051.45345  -1693667.84844                  24339586.9624
         9.2504          3.7504
  21916646.8104    4179130.81347   3231391.54747                  21916651.3454
        27.0004         38.2504
  21766591.7474   -2793148.73647  -2176471.82647                  21766595.6144
        25.7504         34.5004
  22606348.7394   -6227835.22846  -4806257.39446                  22606354.9274
        18.5004         14.7504
  25110779.9814    5958719.62445   4643153.47044                  25110788.3994
         8.2504          3.5004
 00  5 16 15 22  0.0010000  0  7G 2G 4G 5G 7G 9G24G26
  22626743.0284    3783366.37347   2948077.16546                  22626749.0524
        21.7504         20.5004
  20861535.4814   -3193246.23348  -2471562.37448                  20861539.5244
        30.7504         41.5004
  24333763.7164   -2379619.17945  -1717486.82943                  24333769.0714
         7.7504          3.2504
  21923910.4114    4217300.86447   3261134.42547                  21923915.0874
        27.2504         38.5004
  21765364.1774   -2799598.72547  -2181497.78047                  21765368.1144
        25.7504         34.2504
  22599473.1144   -6263966.75046  -4834411.78346                  22599479.2314
        18.2504         14.7504
  25120096.5524    6007675.36545   4681300.69244                  25120105.5794
         8.0004          3.7504
 00  5 16 15 22 15.0010000  0  7G 2G 4G 5G 7G 9G24G26
  22633750.3104    3820188.17247   2976769.40346                  22633756.2514
        22.2504         21.0004
  20859947.7164   -3201589.80548  -2478063.84348                  20859951.7474
        30.5004         41.2504
  24327953.5134   -2410149.23344  -1741276.40343                  24327957.6614
         6.2504          2.5004
  21931188.3564    4255545.53847   3290935.44847                  21931193.0564
        27.5004         38.0004
  21764169.7164   -2805876.67447  -2186389.67647                  21764173.6884
        25.5004         34.0004
  22592617.6534   -6299990.68446  -4862482.33346                  22592623.8064
        18.2504         15.5004
  25129419.2314    6056668.20345   4719476.83744                  25129428.5634
         8.0004          3.5004
 00  5 16 15 22 30.0010000  0  7G 2G 4G 5G 7G 9G24G26
  22640777.3884    3857115.25647   3005543.70246                  22640783.4234
        22.2504         21.0004
  20858394.1534   -3209753.47748  -2484425.12448                  20858398.1964
        30.2504         41.2504
  24322149.7554   -2440645.30543  -1765039.53142                  24322156.0364
         5.2504          2.2504
  21938479.2554    4293860.72447   3320791.41947                  21938483.8724
        27.5004         38.2504
  21763006.9744   -2811986.33947  -2191150.44147                  21763010.8994
        25.2504         33.7504
  22585782.3964   -6335910.61546  -4890471.84346                  22585788.6424
        18.5004         15.0004
  25138748.3804    6105694.05245   4757678.72044                  25138756.0714
         7.7504          3.5004
 00  5 16 15 22 45.0010000  0  7G 2G 4G 5G 7G 9G24G26
  22647824.2004    3894146.83647   3034399.40946                  22647830.3534
        22.0004         21.0004
  20856874.8104   -3217738.06248  -2490646.86148                  20856878.9464
        30.2504         41.0004
  24316352.8644   -2471108.11743  -1788776.68842                  24316359.0404
         5.2504          2.0004
  21945783.7864    4332245.49947   3350701.61047                  21945788.3334
        27.5004         37.5004
  21761876.0754   -2817928.29847  -2195780.52947                  21761879.9664
        25.2504         33.7504
  22578967.0674   -6371726.87146  -4918380.56846                  22578973.0794
        18.7504         15.5004
  25148083.9894    6154751.79044   4795905.43643                  25148094.2824
         6.2504          2.5004
 00  5 16 15 23  0.0010000  0  7G 2G 4G 5G 7G 9G24G26
  22654891.9664    3931289.08547   3063341.34746                  22654898.0244
        22.0004         21.0004
  20855390.7634   -3225537.24048  -2496724.12448                  20855394.7594
        30.5004         41.5004
  24310564.1854   -2501531.52944  -1812483.12242                  24310569.3534
         6.5004          2.0004
  21953102.5364    4370705.82747   3380670.67647                  21953107.2714
        27.5004         37.7504
  21760778.6534   -2823696.31247  -2200275.07447                  21760782.6494
        25.5004         34.0004
  22572172.3024   -6407433.24146  -4946203.66346                  22572178.5014
        19.0004         15.7504
  25157425.1854    6203847.10943   4834161.39342                  25157435.1264
         5.5004          2.2504
 00  5 16 15 23 15.0010000  0  7G 2G 4G 5G 7G 9G24G26
  22661980.7394    3968538.32447   3092366.66146                  22661986.7984
        21.5004         19.5004
  20853941.2244   -3233154.53248  -2502659.66048                  20853945.3024
        30.5004         41.5004
  24304781.2474   -2531919.12145  -1836161.75542                  24304788.8564
         8.2504          2.2504
  21960434.9354    4409237.70547   3410695.49347                  21960439.6574
        27.0004         38.0004
  21759713.2864   -2829293.86747  -2204636.79447                  21759717.1064
        25.7504         34.2504
  22565397.9504   -6443033.07146  -4973943.74846                  22565404.0444
        19.5004         15.5004
  25166774.8254    6252975.88943   4872443.53642                  25166783.8414
         5.7504          1.7504
 00  5 16 15 23 30.0010000  0  7G 2G 4G 5G 7G 9G24G26
  22669088.8104    4005892.02847   3121473.38246                  22669094.7744
        21.7504         21.2504
  20852525.8104   -3240592.35948  -2508455.34548                  20852529.9814
        30.2504         41.0004
  24299005.6224   -2562273.32745  -1859814.39743                  24299010.4384
         9.5004          2.7504
  21967780.5444    4447838.53147   3440774.03847                  21967785.4424
        26.7504         37.2504
  21758680.4034   -2834723.45847  -2208867.63047                  21758684.2594
        26.5004         35.0004
  22558643.0754   -6478528.51046  -5001602.47946                  22558649.2164
        19.0004         15.7504
  25176130.0444    6302135.28844   4910749.41342                  25176138.0754
         6.7504          2.2504
 00  5 16 15 23 45.0010000  0  7G 2G 4G 5G 7G 9G24G26
  22676217.3964    4043353.10647   3150663.76446                  22676223.3134
        21.0004         20.7504
  20851145.0524   -3247847.79148  -2514108.90748                  20851149.1884
        30.7504         40.7504
  24293235.5994   -2592591.17445  -1883438.64943                  24293240.7674
        10.2504          3.0004
  21975139.5914    4486510.98047   3470908.39447                  21975144.5014
        26.7504         37.5004
  21757679.7864   -2839982.06747  -2212965.24047                  21757683.5014
        26.2504         36.0004
  22551908.8414   -6513916.31646  -5029177.34646                  22551914.8064
        19.2504         16.2504
  25185491.5284    6351327.72044   4949081.11842                  25185499.8644
         7.2504          2.2504
 00  5 16 15 24  0.0010000  0  7G 2G 4G 5G 7G 9G24G26
  22683366.5214    4080921.41947   3179937.70446                  22683372.5094
        21.5004         20.5004
  20849799.1924   -3254920.78648  -2519620.31448                  20849803.3994
        30.0004         40.7504
  24287473.9584   -2622872.76245  -1907034.70344                  24287479.3134
        10.7504          3.5004
  21982512.2394    4525254.71647   3501098.29547                  21982517.2314
        26.7504         36.7504
  21756711.6304   -2845069.70347  -2216929.62047                  21756715.4034
        26.5004         36.2504
  22545195.3024   -6549196.49946  -5056668.34646                  22545201.5014
        19.2504         16.2504
  25194858.8564    6400552.74645   4987438.26642                  25194867.0634
         7.7504          2.2504
 00  5 16 15 24 15.0010000  0  7G 2G 4G 5G 7G 9G24G26
  22690535.4114    4118595.42147   3209294.01846                  22690541.4584
        21.2504         20.5004
  20848487.6774   -3261812.59248  -2524990.53248                  20848491.8254
        30.2504         40.7504
  24281718.1064   -2653119.59545  -1930603.63444                  24281723.5324
        10.0004          3.5004
  21989898.1224    4564067.99747   3531342.39247                  21989903.1964
        26.2504         36.7504
  21755775.8334   -2849987.74747  -2220761.85347                  21755779.5834
        26.2504         36.2504
  22538502.1854   -6584370.21646  -5084076.39146                  22538508.2674
        19.5004         16.0004
  25204230.9974    6449808.49045   5025819.25143                  25204240.6464
         7.5004          2.5004
 00  5 16 15 24 30.0010000  0  7G 2G 4G 5G 7G 9G24G26
  22697723.2784    4156367.95947   3238727.09646                  22697729.3494
        21.0004         21.2504
  20847209.3024   -3268530.28548  -2530225.07948                  20847213.4034
        30.0004         40.2504
  24275967.2864   -2683338.73545  -1954150.95644                  24275973.0524
         9.2504          3.5004
  21997295.8804    4602943.49147   3561634.96447                  21997300.8494
        26.7504         36.5004
  21754870.7394   -2854743.24147  -2224467.42447                  21754874.5484
        26.5004         35.5004
  22531827.7714   -6619444.24146  -5111406.76346                  22531833.7824
        19.5004         16.0004
  25213609.7004    6499087.32545   5064218.29443                  25213617.9194
         7.5004          3.2504
 00  5 16 15 24 45.0010000  0  7G 2G 4G 5G 7G 9G24G26
  22704930.7004    4194240.67447   3268238.23746                  22704936.8534
        21.2504         21.0004
  20845964.3964   -3275072.23648  -2535322.68848                  20845968.3924
        30.2504         40.5004
  24270221.7004   -2713528.47945  -1977675.36944                  24270227.9704
         8.2504          4.0004
  22004705.9354    4641882.65047   3591977.14347                  22004710.8684
        27.0004         36.7504
  21753997.1924   -2859334.36847  -2228044.91447                  21754000.7784
        26.2504         35.0004
  22525172.6384   -6654416.78446  -5138658.04046                  22525178.4744
        19.5004         16.2504
  25222991.1774    6548390.56344   5102636.31343                  25223000.9784
         7.0004          3.0004
 00  5 16 15 25  0.0010000  0  7G 2G 4G 5G 7G 9G24G26
  22712156.4354    4232213.39447   3297827.30346                  22712162.4354
        21.7504         20.5004
  20844753.0364   -3281438.35448  -2540283.28248                  20844757.0094
        30.2504         40.5004
  24264482.5834   -2743688.87445  -2001176.90144                  24264488.2204
         8.5004          4.0004
  22012127.7554    4680885.08447   3622368.62847                  22012132.6184
        26.7504         36.2504
  21753154.7314   -2863761.20947  -2231494.39147                  21753158.2124
        26.2504         35.0004
  22518536.9034   -6689287.43846  -5165829.93146                  22518543.0794
        19.0004         16.2504
  25232378.0364    6597717.71644   5141072.94243                  25232388.2474
         7.2504          3.2504
 00  5 16 15 25 15.0010000  0  7G 2G 4G 5G 7G 9G24G26
  22719401.6464    4270286.90547   3327494.90746                  22719407.7634
        21.0004         20.5004
  20843575.3174   -3287627.78748  -2545106.20148                  20843579.2434
        30.2504         40.7504
  24258748.9664   -2773819.17045  -2024654.99644                  24258754.5214
         9.0004          4.2504
  22019561.8564    4719951.43447   3652809.91847                  22019566.9074
        26.5004         36.7504
  21752343.7244   -2868022.93047  -2234815.20347                  21752347.2514
        26.5004         34.7504
  22511920.6614   -6724055.45946  -5192921.84346                  22511926.5794
        19.5004         16.2504
  25241769.1064    6647069.17444   5179528.55343                  25241776.3294
         6.7504          2.7504
 00  5 16 15 25 30.0010000  0  7G 2G 4G 5G 7G 9G24G26
  22726666.0284    4308461.88047   3357241.57146                  22726672.2864
        20.5004         20.5004
  20842431.2004   -3293639.83648  -2549790.89848                  20842435.1264
        30.2504         40.7504
  24253021.6384   -2803918.52245  -2048108.98245                  24253027.3334
         9.5004          4.5004
  22027008.2084    4759082.17147   3683301.37447                  22027013.2354
        26.7504         36.5004
  21751564.2554   -2872118.68447  -2238006.69247                  21751567.5604
        26.7504         35.2504
  22505324.2784   -6758719.78646  -5219932.96046                  22505330.4544
        19.5004         17.0004
  25251165.5674    6696445.18545   5218003.22343                  25251174.4544
         7.5004          2.7504
 00  5 16 15 25 45.0010000  0  7G 2G 4G 5G 7G 9G24G26
  22733950.3804    4346740.13947   3387068.71546                  22733956.6854
        21.7504         20.7504
  20841321.3024   -3299472.32548  -2554335.67648                  20841325.2744
        30.2504         40.7504
  24247300.3724   -2833985.00745  -2071537.35744                  24247306.5604
         9.7504          3.7504
  22034467.1304    4798278.90647   3713844.25847                  22034472.0634
        26.5004         36.7504
  21750817.1064   -2876046.55347  -2241067.36247                  21750820.3884
        26.7504         35.2504
  22498747.9744   -6793278.24746  -5246861.58146                  22498753.8684
        19.7504         16.5004
  25260567.0134    6745847.14445   5256498.18143                  25260574.9974
         7.7504          2.5004
 00  5 16 15 26  0.0010000  0  7G 2G 4G 5G 7G 9G24G26
  22741253.6384    4385118.77747   3416974.08646                  22741259.7434
        21.0004         20.5004
  20840244.8334   -3305128.41248  -2558742.99948                  20840248.6884
        30.7504         41.0004
  24241584.2944   -2864021.58445  -2094942.47244                  24241588.9584
         9.0004          3.7504
  22041938.1144    4837538.50847   3744436.14147                  22041942.9314
        27.2504         36.7504
  21750100.8644   -2879809.33747  -2243999.39747                  21750104.3804
        27.0004         35.5004
  22492191.2084   -6827733.45347  -5273709.75446                  22492197.1734
        20.0004         16.2504
  25269972.4114    6795271.73145   5295010.77243                  25269981.0634
         7.7504          2.7504
 00  5 16 15 26 15.0010000  0  7G 2G 4G 5G 7G 9G24G26
  22748577.1774    4423601.25546   3446960.36846                  22748583.2824
        19.7504         20.2504
  20839202.8334   -3310604.33348  -2563009.93348                  20839206.7474
        30.5004         41.0004
  24235874.4274   -2894024.75745  -2118321.52443                  24235880.8374
         7.7504          3.0004
  22049421.5054    4876864.16947   3775079.48847                  22049426.3334
        27.5004         37.0004
  21749416.8724   -2883403.49447  -2246800.03047                  21749420.2004
        27.0004         36.0004
  22485654.8724   -6862081.85746  -5300474.70246                  22485660.9074
        19.5004         16.5004
  25279381.7164    6844722.13344   5333543.49143                  25279390.9424
         7.2504          2.7504
 00  5 16 15 26 30.0010000  0  7G 2G 4G 5G 7G 9G24G26
  22755918.2004    4462180.65347   3477022.15546                  22755924.3174
        22.2504         20.5004
  20838193.7084   -3315906.81748  -2567141.72448                  20838197.7394
        30.0004         41.0004
  24230169.4584   -2924001.23744  -2141679.79143                  24230174.2634
         7.0004          2.5004
  22056916.2634    4916248.92347   3805768.87847                  22056921.0794
        27.5004         37.0004
  21748763.8414   -2886835.70447  -2249474.47547                  21748767.2514
        27.0004         36.2504
  22479137.8174   -6896329.72646  -5327161.30746                  22479143.8294
        19.7504         16.2504
  25288796.1064    6894191.00844   5372090.59643                  25288803.7864
         6.7504          2.5004
 00  5 16 15 26 45.0010000  0  7G 2G 4G 5G 7G 9G24G26
  22763278.6144    4500860.39047   3507162.15746                  22763284.5564
        21.0004         20.7504
  20837218.3104   -3321032.44648  -2571135.70848                  20837222.3884
        30.0004         40.7504
  24224471.2314   -2953947.57544  -2165014.51343                  24224477.2434
         7.0004          2.7504
  22064422.7634    4955695.94647   3836506.79347                  22064427.6614
        27.0004         36.7504
  21748142.1694   -2890102.46047  -2252019.99347                  21748145.7784
        26.7504         35.5004
  22472640.4814   -6930473.66046  -5353766.91846                  22472646.4584
        19.5004         16.5004
  25298212.1694    6943681.51143   5410654.54942                  25298221.6534
         5.7504          2.0004
 00  5 16 15 27  0.0010000  0  6G 2G 4G 5G 7G 9G24
  22770658.1224    4539638.61147   3537378.87146                  22770664.0994
        20.5004         19.5004
  20836276.1694   -3325982.99748  -2574993.26148                  20836280.3644
        30.0004         41.2504
  24218778.1924   -2983865.58245  -2188327.22943                  24218783.7594
         7.7504          3.2504
  22071940.8494    4995203.10647   3867291.56947                  22071945.5954
        27.5004         36.7504
  21747551.4744   -2893205.60547  -2254438.02447                  21747555.0484
        27.0004         36.0004
  22466162.3644   -6964515.10046  -5380292.66646                  22466168.5284
        19.7504         16.5004
 00  5 16 15 27 15.0010000  0  6G 2G 4G 5G 7G 9G24
  22778056.8884    4578518.46547   3567674.79346                  22778062.9704
        21.5004         20.2504
  20835368.3414   -3330754.94148  -2578711.64548                  20835372.5014
        30.0004         40.7504
  24213091.1464   -3013751.82545  -2211615.16744                  24213096.6424
         8.7504          3.5004
  22079470.7784    5034773.59547   3898125.69847                  22079475.5134
        27.0004         37.0004
  21746992.9424   -2896141.72747  -2256725.90247                  21746996.3994
        27.0004         35.2504
  22459705.0674   -6998450.50347  -5406735.79346                  22459711.1964
        20.2504         16.7504
 00  5 16 15 27 30.0010000  0  6G 2G 4G 5G 7G 9G24
  22785473.7004    4617495.64147   3598046.55846                  22785480.2984
        20.5004         21.0004
  20834493.3494   -3335352.66848  -2582294.27148                  20834497.4504
        30.0004         40.5004
  24207409.2714   -3043610.60445  -2234881.68645                  24207415.3064
         9.7504          4.5004
  22087012.0284    5074402.86947   3929005.63247                  22087016.8684
        27.5004         36.5004
  21746465.0914   -2898915.04347  -2258886.92847                  21746468.6064
        26.0004         34.7504
  22453266.6304   -7032283.85647  -5433099.39746                  22453272.6884
        20.2504         17.2504
 00  5 16 15 27 45.0010000  0  6G 2G 4G 5G 7G 9G24
  22792909.6854    4656570.31247   3628494.27046                  22792916.2244
        20.2504         20.0004
  20833651.5674   -3339775.71248  -2585740.78248                  20833655.7044
        30.2504         40.5004
  24201732.9744   -3073441.73445  -2258126.67144                  24201739.0214
        10.5004          4.2504
  22094564.5134    5114090.93047   3959931.36947                  22094569.2944
        27.2504         36.5004
  21745968.2084   -2901525.31847  -2260920.90047                  21745971.6774
        26.7504         34.2504
  22446847.9034   -7066014.84147  -5459383.23346                  22446853.8684
        20.5004         17.2504
 00  5 16 15 28  0.0010000  0  6G 2G 4G 5G 7G 9G24
  22800364.1144    4695743.59947   3659018.84046                  22800370.1854
        21.2504         18.7504
  20832843.4354   -3344022.96948  -2589050.32048                  20832847.5834
        30.2504         40.2504
  24196061.8804   -3103244.01845  -2281349.20044                  24196066.9544
        10.5004          4.0004
  22102128.2314    5153838.66647   3990903.60347                  22102133.0834
        27.0004         36.5004
  21745503.0364   -2903971.26747  -2262826.83547                  21745506.4704
        26.7504         34.5004
  22440448.4814   -7099641.90747  -5485586.10046                  22440454.5524
        20.2504         17.0004
 00  5 16 15 28 15.0010000  0  6G 2G 4G 5G 7G 9G24
  22807837.7554    4735016.97647   3689621.41946                  22807843.8844
        21.5004         19.7504
  20832068.8724   -3348092.89148  -2592221.67248                  20832072.9744
        30.2504         40.2504
  24190395.8254   -3133015.87045  -2304548.01544                  24190401.3684
        10.0004          3.5004
  22109703.5674    5193647.32247   4021923.30447                  22109708.3724
        27.2504         36.2504
  21745068.9814   -2906251.23247  -2264603.42747                  21745072.3684
        26.7504         34.7504
  22434069.9274   -7133163.38347  -5511706.68146                  22434076.1264
        20.0004         17.5004
 00  5 16 15 28 30.0010000  0  6G 2G 4G 5G 7G 9G24
  22815329.0604    4774383.43547   3720296.50646                  22815335.9894
        20.2504         20.2504
  20831326.9584   -3351992.25748  -2595260.12448                  20831331.0484
        30.0004         40.2504
  24184735.1774   -3162764.25045  -2327728.58343                  24184740.2744
         9.2504          3.2504
  22117289.2004    5233509.79647   4052984.94747                  22117294.0524
        27.2504         36.2504
  21744665.6464   -2908372.17247  -2266256.11047                  21744668.9274
        26.7504         35.2504
  22427709.6064   -7166585.90046  -5537750.15246                  22427715.7244
        19.7504         17.2504
 00  5 16 15 28 45.0010000  0  6G 2G 4G 5G 7G 9G24
  22822838.1064    4813844.71147   3751045.46946                  22822844.0604
        20.5004         19.2504
  20830617.7634   -3355719.40548  -2598164.37947                  20830621.7944
        30.5004         39.2504
  24179078.9354   -3192487.25445  -2350889.32343                  24179086.0994
         8.7504          3.0004
  22124885.5214    5273427.61447   4084089.72047                  22124890.2554
        27.5004         35.7504
  21744292.4114   -2910332.28047  -2267783.46547                  21744296.1384
        26.2504         34.2504
  22421368.6144   -7199907.51647  -5563715.00346                  22421374.7904
        20.5004         16.5004
 00  5 16 15 29  0.0010000  0  6G 2G 4G 5G 7G 9G24
  22830365.9814    4853402.42647   3781869.60846                  22830371.8644
        21.0004         18.7504
  20829941.6064   -3359272.55648  -2600933.05448                  20829945.5794
        30.7504         40.0004
  24173427.8024   -3222183.21745  -2374028.98944                  24173433.8844
         9.0004          3.5004
  22132492.1224    5313402.29047   4115238.79347                  22132496.6464
        27.5004         35.5004
  21743950.3104   -2912129.74647  -2269184.07747                  21743954.1304
        26.5004         34.5004
  22415047.3724   -7233126.22147  -5589599.66146                  22415053.4784
        20.2504         17.0004
 00  5 16 15 29 15.0010000  0  6G 2G 4G 5G 7G 9G24
  22837912.2714    4893059.03247   3812770.80946                  22837918.4464
        20.5004         19.5004
  20829299.0134   -3362649.06348  -2603564.08848                  20829302.8214
        30.7504         40.2504
  24167782.6064   -3251849.65645  -2397145.65645                  24167789.0524
         9.7504          4.5004
  22140110.6464    5353436.01647   4146433.88847                  22140115.2984
        27.5004         36.2504
  21743639.8724   -2913762.06747  -2270456.01847                  21743643.5994
        26.2504         35.2504
  22408746.0284   -7266239.25847  -5615401.98246                  22408752.1464
        20.7504         17.2504
 00  5 16 15 29 30.0010000  0  6G 2G 4G 5G 7G 9G24
  22845476.2714    4932806.36047   3843742.67046                  22845483.0324
        21.7504         20.2504
  20828688.6534   -3365857.06048  -2606063.81448                  20828692.4744
        31.0004         41.2504
  24162141.4584   -3281494.63245  -2420245.57445                  24162147.6344
         9.7504          4.5004
  22147738.4034    5393520.46247   4177668.50247                  22147742.9154
        27.5004         36.0004
  21743359.0604   -2915237.29647  -2271605.54147                  21743362.8454
        26.0004         35.2504
  22402463.4424   -7299254.57147  -5641128.16146                  22402469.6064
        20.5004         17.2504
 00  5 16 15 29 45.0010000  0  6G 2G 4G 5G 7G 9G24
  22853057.6464    4972645.36947   3874785.97946                  22853063.6464
        22.0004         19.2504
  20828110.3564   -3368895.54748  -2608431.45348                  20828114.1654
        31.5004         41.2504
  24156504.2634   -3311117.05245  -2443327.93645                  24156509.8994
         9.2504          5.5004
  22155375.9354    5433656.32847   4208943.18047                  22155380.4234
        27.5004         35.7504
  21743108.4034   -2916554.40447  -2272631.85647                  21743112.2354
        26.0004         34.7504
  22396199.6854   -7332170.96347  -5666777.24646                  22396205.7434
        20.5004         17.7504
 00  5 16 15 30  0.0010000  0  6G 2G 4G 5G 7G 9G24
  22860656.2244    5012578.08647   3905902.32346                  22860662.4704
        21.0004         18.2504
  20827564.8884   -3371762.43048  -2610665.37848                  20827568.6734
        31.5004         41.7504
  24150872.4274   -3340714.93745  -2466391.20145                  24150878.8024
         8.5004          4.5004
  22163023.6924    5473845.39147   4240259.30647                  22163028.1464
        27.2504         36.0004
  21742888.2944   -2917711.36747  -2273533.38347                  21742892.1144
        26.2504         34.7504
  22389954.8494   -7364986.16447  -5692347.48746                  22389960.8254
        20.2504         17.7504
 00  5 16 15 30 15.0010000  0  6G 2G 4G 5G 7G 9G24
  22868273.7004    5052608.29947   3937094.62946                  22868279.7824
        20.7504         19.7504
  20827052.6854   -3374453.73048  -2612762.48648                  20827056.4814
        31.2504         41.7504
  24145244.4504   -3370284.36445  -2489432.22244                  24145250.1104
         7.5004          3.7504
  22170682.3414    5514091.37147   4271619.78047                  22170686.9114
        27.5004         35.7504
  21742699.2944   -2918704.33947  -2274307.12547                  21742702.9744
        26.0004         34.5004
  22383730.5674   -7397695.99447  -5717835.62046                  22383736.4624
        20.7504         18.0004
 00  5 16 15 30 30.0010000  0  6G 2G 4G 5G 7G 9G24
  22875908.8724    5092728.93747   3968357.39346                  22875915.2004
        21.7504         20.7504
  20826572.6694   -3376976.40948  -2614728.19948                  20826576.3964
        31.0004         41.7504
  24139621.7164   -3399832.25545  -2512456.45943                  24139628.3844
         8.2504          3.2504
  22178350.2474    5554386.97147   4303018.93447                  22178354.8414
        26.5004         35.7504
  21742540.3964   -2919540.15947  -2274958.40947                  21742544.0054
        26.2504         35.2504
  22377524.7084   -7430307.22047  -5743246.92146                  22377530.7904
        20.7504         18.5004
 00  5 16 15 30 45.0010000  0  6G 2G 4G 5G 7G 9G24
  22883561.2554    5132944.73847   3999694.31546                  22883567.2314
        21.2504         19.0004
  20826125.6694   -3379325.61248  -2616558.73648                  20826129.4544
        31.0004         42.0004
  24134004.7004   -3429353.70045  -2535460.18343                  24134010.5834
        10.2504          3.2504
  22186028.7314    5594736.94147   4334460.44147                  22186033.3964
        27.2504         35.2504
  21742412.3104   -2920213.92247  -2275483.41847                  21742416.0014
        26.5004         35.5004
  22371338.7784   -7462814.84547  -5768577.48746                  22371344.7904
        21.0004         18.7504
 00  5 16 15 31  0.0010000  0  6G 2G 4G 5G 7G 9G24
  22891231.8964    5173253.01847   4031103.28946                  22891238.1654
        20.5004         19.5004
  20825711.0674   -3381504.00848  -2618256.17748                  20825714.9704
        31.0004         41.5004
  24128391.9504   -3458851.31746  -2558445.32044                  24128397.8804
        12.2504          4.2504
  22193716.9194    5635138.33447   4365942.01647                  22193721.7124
        26.2504         35.0004
  21742314.5054   -2920728.22247  -2275884.17047                  21742318.0214
        26.7504         35.5004
  22365172.0754   -7495221.23047  -5793829.17246                  22365178.1694
        21.0004         18.7504
 00  5 16 15 31 15.0010000  0  6G 2G 4G 5G 7G 9G24
  22898919.3724    5213650.64847   4062581.87546                  22898926.2554
        20.5004         17.7504
  20825328.4114   -3383514.50948  -2619822.79348                  20825332.3254
        31.0004         41.5004
  24122782.4354   -3488328.11746  -2581414.27545                  24122787.7554
        13.0004          4.7504
  22201413.9894    5675587.89047   4397461.12147                  22201418.6424
        27.0004         34.0004
  21742246.2084   -2921086.09047  -2276163.03347                  21742249.8064
        26.5004         36.0004
  22359024.2164   -7527529.09947  -5819004.09046                  22359030.2044
        21.0004         19.2504
 00  5 16 15 31 30.0010000  0  6G 2G 4G 5G 7G 9G24
  22906623.1064    5254135.20347
        20.5004
  20824977.2944   -3385359.50048  -2621260.43648                  20824981.1734
        30.5004         41.2504
  24117176.3644   -3517786.61845  -2604368.95645                  24117181.9074
        11.7504          5.2504
  22209120.1854    5716082.87047   4429015.62047                  22209124.4384
        26.2504         28.5004
  21742207.4274   -2921289.90147  -2276321.84347                  21742211.1654
        26.2504         35.5004
  22352894.5364   -7559740.64747  -5844103.94646                  22352900.5604
        21.5004         19.7504
 00  5 16 15 31 45.0010000  0  6G 2G 4G 5G 7G 9G24
  22914344.0364    5294706.50847
        20.2504
  20824657.7244   -3387039.11548  -2622569.21748                  20824661.7084
        30.7504         41.2504
  24111573.9664   -3547226.78045  -2627309.29745                  24111579.1224
         9.7504          4.5004
  22216834.6144    5756623.04647   4460605.35047                  22216839.4194
        26.7504         35.5004
  21742197.9974   -2921339.74447  -2276360.67947                  21742202.0404
        26.0004         35.2504
  22346783.2004   -7591855.89647  -5869128.76346                  22346789.0954
        21.5004         20.2504
 00  5 16 15 32  0.0010000  0  6G 2G 4G 5G 7G 9G24
  22922082.7004    5335373.10547
        20.5004
  20824371.2314   -3388544.80848  -2623742.47448                  20824375.2284
        31.0004         41.0004
  24105976.2554   -3576639.95844  -2650228.59644                  24105981.2944
         7.0004          3.7504
  22224559.4664    5797216.79247   4492236.81947                  22224564.3174
        26.2504         35.2504
  21742219.4744   -2921226.96347  -2276272.78947                  21742223.5754
        26.0004         35.7504
  22340691.8644   -7623865.85647  -5894071.54646                  22340697.9464
        22.2504         20.7504
 00  5 16 15 32 15.0010000  0  6G 2G 4G 5G 7G 9G24
  22929838.9114    5376133.49747     27527.59356                  22929845.1694
        20.0004         19.0004
  20824117.5914   -3389877.75348  -2624781.12448                  20824121.5634
        31.0004         41.2504
  24100383.9504   -3606027.59044  -2673127.96744                  24100390.2784
         6.7504          3.5004
  22232293.9664    5837862.43947   4523908.72247                  22232298.9704
        26.2504         34.5004
  21742271.4114   -2920952.92747  -2276059.25047                  21742275.5014
        26.0004         35.2504
  22334620.4354   -7655771.85847  -5918933.31646                  22334626.3884
        22.2504         21.0004
 00  5 16 15 32 30.0010000  0  6G 2G 4G 5G 7G 9G24
  22937612.8174    5416985.46247     59360.22946                  22937618.8174
        20.0004         18.0004
  20823896.4584   -3391040.20348  -2625686.92248                  20823900.3134
        31.0004         41.5004
  24094796.8494   -3635391.65745  -2696008.96444                  24094803.2244
         9.2504          3.7504
  22240038.1774    5878557.56647   4555619.17947                  22240043.1924
        26.7504         34.2504
  21742354.0364   -2920519.71447  -2275721.67847                  21742358.0674
        26.2504         35.7504
  22328568.3024   -7687575.56147  -5943715.38246                  22328574.2434
        22.7504         20.7504
 00  5 16 15 32 45.0010000  0  6G 2G 4G 5G 7G 9G24
  22945404.6464    5457931.29546     91266.00246                  22945411.3494
        19.7504         18.2504
  20823708.1774   -3392029.76748  -2626458.00048                  20823711.7864
        31.0004         41.2504
  24089214.0444   -3664729.90345  -2718869.92444                  24089219.6344
        11.5004          3.7504
  22247791.9814    5919304.30947   4587369.85947                  22247797.0094
        26.7504         34.2504
  21742467.1064   -2919924.94847  -2275258.21847                  21742471.0794
        26.2504         36.0004
  22322535.9274   -7719274.66547  -5968415.92846                  22322541.8334
        22.5004         21.2504
 00  5 16 15 33  0.0010000  0  6G 2G 4G 5G 7G 9G24
  22953216.1854    5498980.01446    123251.92746                  22953222.9464
        19.7504         18.2504
  20823554.4814   -3392837.34248  -2627087.27048                  20823558.3494
        31.0004         41.5004
  24083637.9814   -3694033.21346  -2741703.72344                  24083642.8334
        12.0004          4.0004
  22255557.2714    5960111.55647   4619167.68447                  22255562.3334
        26.2504         34.0004
  21742612.8964   -2919159.54747  -2274661.80147                  21742616.7164
        26.7504         36.2504
  22316525.3564   -7750859.67047  -5993027.57946                  22316531.2864
        22.0004         21.0004
 00  5 16 15 33 15.0010000  0  6G 2G 4G 5G 7G 9G24
  22961044.6694    5540117.91147    155307.36046                  22961050.6224
        20.5004         17.2504
  20823432.8724   -3393476.53748  -2627585.33348                  20823436.6464
        31.5004         42.0004
  24078065.5524   -3723315.10345  -2764520.76145                  24078070.5444
        10.5004          4.5004
  22263331.5834    6000965.40347   4651001.82847                  22263336.6694
        26.5004         34.2504
  21742788.3414   -2918237.19447  -2273943.08047                  21742791.7984
        27.0004         36.5004
  22310534.1064   -7782344.11547  -6017560.85346                  22310540.1424
        21.7504         21.5004
 00  5 16 15 33 30.0010000  0  6G 2G 4G 5G 7G 9G24
  22968888.7784    5581339.94146    187428.35946                  22968894.8494
        19.7504         17.0004
  20823342.2244   -3393952.36848  -2627956.10348                  20823345.9504
        31.7504         42.0004
  24072496.1464   -3752580.62545  -2787325.04144                  24072501.8414
         8.5004          4.2504
  22271113.9974    6041860.61047   4682868.19947                  22271119.1064
        26.2504         33.7504
  21742992.8494   -2917162.82147  -2273105.90347                  21742996.2004
        27.0004         36.5004
  22304561.0754   -7813732.76947  -6042019.49346                  22304567.0524
        21.7504         21.0004
 00  5 16 15 33 45.0010000  0  6G 2G 4G 5G 7G 9G24
  22976751.7634    5622658.08846    219624.22546                  22976758.2314
        19.7504         17.5004
  20823285.0134   -3394252.76848  -2628190.17248                  20823288.7164
        32.0004         41.5004
  24066932.6304   -3781817.58545  -2810107.01244                  24066938.5954
         7.7504          4.2504
  22278905.9114    6082809.07847   4714776.06647                  22278910.8564
        26.7504         33.7504
  21743228.6144   -2915924.25947  -2272140.78647                  21743232.0834
        27.2504         36.7504
  22298608.5754   -7845013.13947  -6066393.76446                  22298614.5634
        22.0004         21.5004
 00  5 16 15 34  0.0010000  0  6G 2G 4G 5G 7G 9G24
  22984630.7394    5664063.28847    251887.94146                  22984636.8214
        20.2504         17.2504
  20823259.7714   -3394386.59248  -2628294.43948                  20823263.3564
        31.7504         41.2504
  24061372.4114   -3811034.84745  -2832873.58345                  24061378.7164
         9.7504          5.5004
  22286706.4114    6123801.60847   4746718.27147                  22286711.5914
        25.7504         33.2504
  21743493.7864   -2914530.51047  -2271054.74547                  21743497.1964
        26.5004         35.7504
  22292674.9974   -7876194.18947  -6090690.64046                  22292680.9154
        21.7504         21.0004
 00  5 16 15 34 15.0010000  0  6G 2G 4G 5G 7G 9G24
  22992525.2314    5705549.84646    284215.06846                  22992531.3374
        19.2504         17.0004
  20823264.8024   -3394359.47648  -2628273.30148                  20823268.4704
        31.7504         41.7504
  24055815.6064   -3840238.01946  -2855629.27745                  24055821.5834
        12.2504          6.5004
  22294514.5214    6164832.35047   4778690.25147                  22294519.6184
        26.2504         34.0004
  21743787.3174   -2912987.15147  -2269852.12247                  21743790.8804
        26.5004         36.2504
  22286759.3254   -7907281.08947  -6114914.14946                  22286765.3604
        22.5004         21.0004
 00  5 16 15 34 30.0010000  0  6G 2G 4G 5G 7G 9G24
  23000436.8104    5747123.22846    316609.83346                  23000443.0794
        19.7504         17.0004
  20823301.5914   -3394165.92448  -2628122.47248                  20823305.2944
        31.5004         42.0004
  24050262.3334   -3869421.56446  -2878369.66645                  24050268.2284
        13.0004          6.5004
  22302330.7004    6205906.62147   4810696.15647                  22302335.7394
        26.5004         33.7504
  21744110.6464   -2911288.60047  -2268528.57247                  21744114.3964
        26.2504         36.5004
  22280862.6854   -7938268.31947  -6139059.99146                  22280868.7204
        22.2504         20.7504
 00  5 16 15 34 45.0010000  0  6G 2G 4G 5G 7G 9G24
  23008364.8174    5788784.60847    349073.15346                  23008371.1104
        21.0004         17.7504
  20823370.4194   -3393804.58448  -2627840.90148                  20823374.3454
        31.0004         42.0004
  24044712.5604   -3898584.11945  -2901093.71745                  24044718.2084
        11.5004          4.7504
  22310155.5134    6247025.47247   4842736.78747                  22310160.3294
        27.2504         34.0004
  21744463.5524   -2909433.56847  -2267083.08947                  21744467.4424
        26.2504         36.2504
  22274985.2394   -7969154.21047  -6163126.87646                  22274991.2984
        21.7504         20.7504
 00  5 16 15 35  0.0010000  0  6G 2G 4G 5G 7G 9G24
  23016308.2314    5830529.76346    381601.77246                  23016314.3024
        19.7504         16.2504
  20823470.3414   -3393279.59748  -2627431.81348                  20823474.1734
        31.0004         42.0004
  24039166.4584   -3927729.92845  -2923804.75443                  24039172.4354
         8.5004          2.7504
  22317987.7394    6288184.49447   4874808.72047                  22317992.7904
        26.7504         33.7504
  21744845.5754   -2907426.23047  -2265518.92547                  21744849.4424
        26.2504         36.2504
  22269126.3804   -7999942.71947  -6187117.86746                  22269132.2164
        22.2504         21.0004
 00  5 16 15 35 15.0010000  0  6G 2G 4G 5G 7G 9G24
  23024270.0524    5872367.86146    414202.81046                  23024276.1924
        19.2504         16.0004
  20823603.0444   -3392581.84848  -2626888.10548                  20823606.9704
        31.0004         41.7504
  24033624.3804   -3956849.71044  -2946495.48142                  24033629.5244
         6.7504          2.2504
  22325829.5134    6329392.72647   4906919.00047                  22325834.4464
        26.7504         34.2504
  21745258.2714   -2905257.26347  -2263828.81947                  21745262.1614
        26.2504         36.2504
  22263287.7244   -8030624.52247  -6211025.72446                  22263293.6064
        22.5004         21.5004
 00  5 16 15 35 30.0010000  0  6G 2G 4G 5G 7G 9G24
  23032248.4114    5914293.70247    446872.21546                  23032254.9384
        20.5004         17.2504
  20823767.7084   -3391716.36348  -2626213.69348                  20823771.6104
        30.7504         41.0004
  24028087.3414   -3985948.49045  -2969169.76843                  24028093.7634
         8.7504          3.2504
  22333679.5444    6370644.77347   4939063.42747                  22333684.5714
        26.0004         34.2504
  21745700.8254   -2902931.81947  -2262016.78147                  21745704.6104
        26.2504         36.5004
  22257468.4894   -8061204.35547  -6234854.12346                  22257474.5364
        22.2504         21.0004
 00  5 16 15 35 45.0010000  0  6G 2G 4G 5G 7G 9G24
  23040243.1924    5956307.17846    479609.90946                  23040249.8844
        19.7504         17.0004
  20823964.3104   -3390683.19848  -2625408.61948                  20823968.1884
        30.7504         41.0004
  24022554.5674   -4015026.13645  -2991827.62945                  24022560.3564
        11.0004          5.5004
  22341537.8024    6411940.36147   4971241.77547                  22341542.8064
        26.7504         34.2504
  21746173.2314   -2900449.90447  -2260082.82047                  21746176.9114
        26.5004         36.5004
  22251668.8414   -8091682.16947  -6258603.01646                  22251674.8994
        22.5004         21.5004
 00  5 16 15 36  0.0010000  0  6G 2G 4G 5G 7G 9G24
  23048255.3564    5998409.72146    512416.99946                  23048261.6144
        19.5004         16.2504
  20824192.9274   -3389480.96148  -2624471.80248                  20824196.7354
        30.7504         41.0004
  24017025.3494   -4044081.28946  -3014467.97445                  24017030.9744
        12.0004          6.7504
  22349404.6774    6453280.70547   5003454.99447                  22349409.7634
        27.0004         33.7504
  21746675.4194   -2897810.04047  -2258025.78647                  21746679.0754
        26.2504         36.2504
  22245888.8414   -8122056.26547  -6282271.09246                  22245894.8064
        22.7504         21.2504
 00  5 16 15 36 15.0010000  0  6G 2G 4G 5G 7G 9G24
  23056282.3564    6040592.89446    545286.93246                  23056288.5794
        19.7504         16.5004
  20824452.3644   -3388117.88348  -2623409.65448                  20824456.1494
        31.5004         41.2504
  24011499.1384   -4073122.17645  -3037097.18945                  24011505.2784
        10.7504          6.2504
  22357278.3494    6494657.23747   5035696.41347                  22357283.2824
        26.7504         34.0004
  21747206.2474   -2895020.66547  -2255852.24447                  21747209.9504
        26.2504         35.7504
  22240126.8724   -8152334.71947  -6305864.64946                  22240132.7674
        22.7504         21.5004
 00  5 16 15 36 30.0010000  0  6G 2G 4G 5G 7G 9G24
  23064325.2784    6082859.49246    578221.87346                  23064332.1614
        19.0004         16.7504
  20824742.9354   -3386591.19248  -2622220.01748                  20824746.6964
        30.7504         41.0004
  24005975.7634   -4102145.96145  -3059713.07845                  24005981.1064
         9.0004          4.5004
  22365159.6144    6536072.71747   5067968.18047                  22365164.4784
        27.2504         34.0004
  21747766.0604   -2892078.84847  -2253559.91647                  21747769.8454
        26.0004         36.0004
  22234383.9974   -8182514.34247  -6329381.19346                  22234389.9384
        23.2504         21.7504
 00  5 16 15 36 45.0010000  0  6G 2G 4G 5G 7G 9G24
  23072384.1384    6125205.53946    611218.69646                  23072390.5244
        19.5004         16.0004
  20825063.9504   -3384904.60548  -2620905.78348                  20825067.7944
        30.7504         41.2504
  24000455.0134   -4131156.52545  -3082318.66144                  24000460.8604
         8.7504          3.7504
  22373047.1464    6577523.01847   5100267.09447                  22373052.0794
        26.2504         34.0004
  21748354.1464   -2888988.34247  -2251151.72847                  21748358.1184
        25.7504         36.0004
  22228658.9894   -8212598.93747  -6352823.68746                  22228664.9194
        23.7504         22.0004
 00  5 16 15 37  0.0010000  0  6G 2G 4G 5G 7G 9G24
  23080458.2164    6167636.02346    644281.34346                  23080464.3214
        19.7504         16.0004
  20825416.1774   -3383053.24748  -2619463.16148                  20825419.9744
        30.7504         41.5004
  23994938.3494   -4160148.65245  -3104909.92845                  23994943.6814
        10.5004          4.5004
  22380942.6384    6619012.90847   5132596.84847                  22380947.5364
        27.0004         34.0004
  21748971.3964   -2885744.17547  -2248623.80647                  21748975.4154
        26.0004         36.5004
  22222953.2714   -8242583.11947  -6376187.93846                  22222959.2004
        23.5004         22.0004
 00  5 16 15 37 15.0010000  0  6G 2G 4G 5G 7G 9G24
  23088547.7714    6210148.35746    677407.75946                  23088554.8064
        18.7504         16.0004
  20825799.3254   -3381039.68448  -2617894.14748                  20825803.1104
        30.7504         41.7504
  23989424.3564   -4189124.83745  -3127488.75945                  23989429.4544
        11.7504          5.5004
  22388844.8254    6660539.69147   5164955.35047                  22388850.1464
        25.2504         33.2504
  21749617.4894   -2882348.94147  -2245978.17047                  21749621.6034
        25.7504         36.2504
  22217266.1464   -8272469.29747  -6399475.82646                  22217272.2164
        23.5004         21.7504
 00  5 16 15 37 30.0010000  0  6G 2G 4G 5G 7G 9G24
  23096654.1854    6252745.65846    710600.35546                  23096661.7474
        18.2504         16.5004
  20826214.1064   -3378860.62248  -2616196.16848                  20826218.0094
        31.0004         41.2504
  23983913.8964   -4218081.87145  -3150052.66745                  23983919.6264
        11.2504          5.7504
  22396754.6144    6702106.28747   5197344.87647                  22396759.8884
        26.2504         33.5004
  21750292.9664   -2878799.40047  -2243212.29647                  21750297.1264
        25.5004         36.2504
  22211598.0524   -8302254.02747  -6422684.65246                  22211603.9584
        23.0004         22.0004
 00  5 16 15 37 45.0010000  0  6G 2G 4G 5G 7G 9G24
  23104775.7634    6295424.18346    743856.27946                  23104782.4074
        19.0004         16.2504
  20826659.5284   -3376519.86448  -2614372.19548                  20826663.3604
        31.0004         41.2504
  23978406.2714   -4247023.33945  -3172604.40645                  23978411.9074
         9.7504          5.7504
  22404671.4664    6743708.80147   5229762.39047                  22404676.6464
        26.0004         32.7504
  21750997.1694   -2875099.19447  -2240329.01947                  21751001.2714
        26.0004         36.7504
  22205948.8334   -8331940.66147  -6445817.04446                  22205954.9624
        23.0004         22.0004
 00  5 16 15 38  0.0010000  0  6G 2G 4G 5G 7G 9G24
  23112911.9114    6338180.37046    777172.71546                  23112918.8534
        18.2504         16.0004
  20827135.1464   -3374020.64548  -2612424.74948                  20827139.0244
        30.7504         41.5004
  23972901.1304   -4275952.67145  -3195146.67545                  23972907.5054
         7.7504          4.5004
  22412594.2944    6785343.66447   5262205.11347                  22412599.3804
        26.2504         33.0004
  21751729.3964   -2871251.71747  -2237330.98747                  21751733.5094
        26.2504         37.5004
  22200317.6534   -8361532.49347  -6468875.56446                  22200323.7714
        23.0004         22.2504
 00  5 16 15 38 15.0010000  0  6G 2G 4G 5G 7G 9G24
  23121063.5604    6381016.94646    810551.77346                  23121070.6184
        18.5004         16.5004
  20827641.2784   -3371360.31548  -2610351.75648                  20827645.1224
        31.0004         41.5004
  23967398.7244   -4304866.98245  -3217677.23344                  23967404.7594
         9.0004          4.0004
  22420524.0214    6827013.36547   5294674.98747                  22420529.0484
        26.7504         32.7504
  21752490.1224   -2867254.29947  -2234216.11847                  21752494.0714
        26.2504         37.2504
  22194705.1854   -8391026.64947  -6491857.97846                  22194711.0444
        23.7504         22.2504
 00  5 16 15 38 30.0010000  0  6G 2G 4G 5G 7G 9G24
  23129231.4194    6423939.09146    843997.51646                  23129238.5834
        18.0004         16.0004
  20828179.1304   -3368533.63248  -2608149.13948                  20828182.9274
        31.0004         41.2504
  23961900.4504   -4333760.98745  -3240191.99744                  23961906.3684
        10.7504          4.2504
  22428461.1224    6868723.00147   5327175.96647                  22428466.1494
        26.0004         32.7504
  21753280.2714   -2863101.65347  -2230980.29647                  21753284.0444
        26.2504         37.2504
  22189112.2314   -8420417.42747  -6514759.83746                  22189118.1854
        24.2504         22.5004
 00  5 16 15 38 45.0010000  0  6G 2G 4G 5G 7G 9G24
  23137414.7394    6466941.96646    877506.15346                  23137421.5134
        17.5004         15.5004
  20828747.7784   -3365545.24448  -2605820.52048                  20828751.6344
        30.7504         40.5004
  23956405.6464   -4362639.38845  -3262694.66745                  23956410.6964
        11.7504          4.7504
  22436404.7634    6910467.55047   5359704.15347                  22436409.9314
        26.0004         32.7504
  21754099.0754   -2858798.43347  -2227627.14347                  21754102.8134
        26.5004         37.2504
  22183538.1854   -8449709.55147  -6537584.82146                  22183543.9974
        24.5004         23.0004
 00  5 16 15 39  0.0010000  0  6G 2G 4G 5G 7G 9G24
  23145612.7784    6510022.47046    911075.29346                  23145619.8024
        19.5004         16.2504
  20829346.8254   -3362398.36948  -2603368.40448                  20829350.8454
        30.2504         40.2504
  23950912.8174   -4391505.20845  -3285187.53545                  23950918.5954
        11.0004          4.5004
  22444354.3104    6952243.75847   5392257.01147                  22444359.4894
        25.7504         32.5004
  21754946.0754   -2854347.75047  -2224159.08347                  21754949.9424
        26.5004         36.7504
  22177982.2864   -8478905.72847  -6560335.05346                  22177988.1814
        24.2504         22.5004
 00  5 16 15 39 15.0010000  0  6G 2G 4G 5G 7G 9G24
  23153825.3024    6553178.63746    944703.39646                  23153832.2434
        19.0004         16.7504
  20829975.2474   -3359094.98648  -2600794.33248                  20829979.3134
        30.0004         40.5004
  23945421.2164   -4420360.36145  -3307672.01945                  23945427.0994
         9.5004          4.5004
  22452309.8414    6994049.55747   5424832.92447                  22452315.4194
        25.5004         32.2504
  21755820.6854   -2849751.43347  -2220577.54047                  21755824.4704
        26.2504         37.0004
  22172444.1304   -8508007.62247  -6583011.80246                  22172450.1534
        23.5004         22.7504
 00  5 16 15 39 30.0010000  0  6G 2G 4G 5G 7G 9G24
  23162052.4584    6596414.25846    978393.39646                  23162059.3884
        18.0004         16.2504
  20830634.4894   -3355631.04848  -2598095.15548                  20830638.6144
        29.7504         39.7504
  23939932.7164   -4449200.83645  -3330145.03944                  23939938.3884
         9.0004          4.2504
  22460271.6774    7035888.66147   5457434.79247                  22460277.0794
        26.0004         32.2504
  21756723.8724   -2845005.57747  -2216879.47747                  21756727.6814
        26.2504         37.0004
  22166925.0284   -8537011.15747  -6605611.91146                  22166931.0524
        22.7504         23.0004
 00  5 16 15 39 45.0010000  0  6G 2G 4G 5G 7G 9G24
  23170295.2314    6639727.89446   1012144.20446                  23170301.8064
        19.5004         16.0004
  20831323.7864   -3352007.91148  -2595271.92248                  20831327.9114
        29.7504         39.7504
  23934447.8964   -4478027.81945  -3352607.57044                  23934453.0054
        11.0004          4.2504
  22468239.3804    7077759.50847   5490061.39447                  22468244.8884
        25.5004         32.0004
  21757655.1774   -2840111.55647  -2213065.95947                  21757659.1614
        25.7504         36.7504
  22161424.5054   -8565917.36047  -6628136.17246                  22161430.5754
        23.5004         23.0004
 00  5 16 15 40  0.0010000  0  6G 2G 4G 5G 7G 9G24
  23178552.7084    6683121.43346   1045957.28146                  23178558.8964
        19.2504         15.7504
  20832043.9814   -3348223.76048  -2592323.23048                  20832048.0134
        29.7504         39.5004
  23928965.2474   -4506839.26946
        13.0004
  22476213.4664    7119663.77947   5522714.04447                  22476218.8564
        25.7504         31.7504
  21758614.8804   -2835067.46347  -2209135.50047                  21758618.9584
        26.0004         36.7504
  22155942.6534   -8594724.19047  -6650583.00846                  22155948.5244
        23.7504         22.5004
 00  5 16 15 40 15.0010000  0  6G 2G 4G 5G 7G 9G24
  23186826.1694    6726598.52146   1079835.45446                  23186833.0874
        18.7504         16.2504
  20832795.3724   -3344274.84148  -2589246.14348                  20832799.4154
        29.7504         40.0004
  23923486.6464   -4535631.46046
        12.7504
  22484194.6774    7161604.99747   5555395.47947                  22484200.0444
        25.5004         31.5004
  21759604.0054   -2829869.51047  -2205085.15247                  21759607.9314
        26.5004         37.2504
  22150480.4424   -8623427.74047  -6672949.36246                  22150486.2084
        23.7504         23.0004
 00  5 16 15 40 30.0010000  0  6G 2G 4G 5G 7G 9G24
  23195114.3254    6770152.49046   1113773.49746                  23195121.6654
        19.0004         16.2504
  20833577.0214   -3340167.80048  -2586045.84548                  20833581.0874
        30.0004         40.0004
  23918009.5134   -4564411.02445
        10.5004
  22492181.5834    7203576.25147   5588100.32047                  22492187.0794
        25.2504         31.7504
  21760621.2864   -2824524.28547  -2200920.05047                  21760625.1304
        26.5004         37.0004
  22145036.6534   -8652034.37747  -6695240.20546                  22145042.5714
        23.5004         24.0004
 00  5 16 15 40 45.0010000  0  6G 2G 4G 5G 7G 9G24
  23203416.2864    6813779.65046   1147768.61246                  23203422.4854
        19.0004         15.2504
  20834387.9504   -3335906.20748  -2582725.11948                  20834391.8764
        30.5004         40.7504
  23912533.5994   -4593181.46245
         8.7504
  22500173.5524    7245573.89947   5620825.72447                  22500179.0134
        25.7504         31.7504
  21761665.8174   -2819035.45147  -2196643.04347                  21761669.5914
        26.7504         37.5004
  22139610.9274   -8680547.43447  -6717458.12146                  22139617.0794
        24.2504         23.7504
 00  5 16 15 41  0.0010000  0  6G 2G 4G 5G 7G 9G24
  23211733.1144    6857485.31846   1181824.90546                  23211739.5364
        18.0004         14.7504
  20835229.2784   -3331484.72148  -2579279.79448                  20835233.1814
        30.7504         40.2504
  23907062.4114   -4621937.30245
        10.2504
  22508171.4504    7287603.12747   5653575.74047                  22508176.8644
        25.5004         31.5004
  21762738.8104   -2813397.58347  -2192249.90547                  21762742.6424
        26.7504         37.7504
  22134203.9814   -8708961.29547  -6739598.74546                  22134209.8534
        24.2504         24.5004
 00  5 16 15 41 15.0010000  0  6G 2G 4G 5G 7G 9G24
  23220065.1144    6901268.97146   1215941.94046                  23220072.1034
        18.2504         15.7504
  20836101.1064   -3326903.74848  -2575710.19848                  20836105.0094
        30.5004         40.7504
  23901593.6384   -4650678.82246    -19408.64355                  23901599.6494
        12.5004          6.2504
  22516175.3804    7329663.26847   5686349.83747                  22516180.6884
        25.7504         31.5004
  21763840.0604   -2807611.17847  -2187741.02347                  21763843.9154
        26.7504         37.7504
  22128815.7394   -8737276.13947  -6761662.21246                  22128821.5634
        24.5004         24.7504
 00  5 16 15 41 30.0010000  0  6G 2G 4G 5G 7G 9G24
  23228410.9664    6945126.71146   1250116.71646                  23228418.5054
        18.7504         16.0004
  20837002.5214   -3322167.22248  -2572019.39448                  20837006.3294
        30.5004         41.0004
  23896126.2554   -4679409.76546    -41796.39045                  23896131.4234
        12.5004          6.7504
  22524184.2244    7371750.32847   5719144.91547                  22524189.4384
        26.0004         31.0004
  21764968.2394   -2801680.02747  -2183119.35147                  21764972.0604
        26.2504         37.0004
  22123445.6534   -8765495.54847  -6783651.31446                  22123451.7004
        24.2504         25.0004
 00  5 16 15 41 45.0010000  0  6G 2G 4G 5G 7G 9G24
  23236770.2004    6989054.61146   1284346.15846                  23236777.0324
        18.7504         15.5004
  20837932.6924   -3317279.01148  -2568210.39248                  20837936.6304
        30.2504         40.5004
  23890659.8174   -4708133.94945    -64178.84945                  23890665.1964
        10.5004          6.0004
  22532197.7164    7413860.18947   5751957.75447                  22532202.8964
        26.5004         31.0004
  21766124.0604   -2795607.93447  -2178387.85547                  21766128.0094
        26.2504         37.0004
  22118093.1774   -8793623.20547  -6805568.92246                  22118099.1064
        24.0004         25.0004
 00  5 16 15 42  0.0010000  0  6G 2G 4G 5G 7G 9G24
  23245143.7714    7033058.16046   1318634.56046                  23245150.8174
        18.0004         15.0004
  20838892.8564   -3312233.54548  -2564278.85248                  20838896.7824
        30.2504         40.7504
  23885195.1854   -4736845.84745    -86551.72744                  23885201.4784
         8.5004          4.2504
  22540215.9814    7455998.22247   5784792.55847                  22540221.1494
        25.2504         31.2504
  21767307.3804   -2789389.45947  -2173542.29247                  21767311.3534
        26.2504         37.5004
  22112759.0754   -8821653.40447  -6827410.58846                  22112765.0404
        24.5004         25.5004
 00  5 16 15 42 15.0010000  0  6G 2G 4G 5G 7G 9G24
  23253532.0134    7077138.33246   1352982.65546                  23253539.4464
        18.0004         15.5004
  20839882.8804   -3307029.74848  -2560223.94048                  20839886.9114
        30.2504         41.0004
  23879734.6464   -4765544.33545   -108914.10545                  23879739.6854
        10.5004          4.5004
  22548240.2554    7498165.25847   5817649.95347                  22548245.6344
        25.7504         31.2504
  21768518.7164   -2783023.54047  -2168581.83947                  21768522.7594
        26.2504         37.5004
  22107443.9974   -8849584.77147  -6849175.24647                  22107449.8564
        24.5004         25.7504
 00  5 16 15 42 30.0010000  0  6G 2G 4G 5G 7G 9G24
  23261935.2394    7121296.40546   1387391.44646                  23261942.5674
        18.5004         15.2504
  20840903.5914   -3301666.47748  -2556044.75848                  20840907.5874
        30.0004         41.0004
  23874276.8964   -4794227.84946   -131264.89145                  23874281.4424
        13.0004          6.0004
  22556270.2394    7540362.51147   5850530.89447                  22556275.4664
        26.0004         31.0004
  21769758.5604   -2776508.80447  -2163505.42247                  21769762.5794
        26.5004         37.2504
  22102147.8564   -8877415.78247  -6870861.70047                  22102153.8684
        25.0004         25.7504
 00  5 16 15 42 45.0010000  0  6G 2G 4G 5G 7G 9G24
  23270352.3334    7165529.10546   1421858.40746                  23270359.4274
        18.2504         15.5004
  20841953.8964   -3296146.91848  -2551743.79548                  20841958.0914
        30.0004         40.2504
  23868820.7634   -4822899.65046   -153606.54345                  23868825.6734
        13.0004          6.5004
  22564305.3024    7582586.46447   5883432.63947                  22564310.5634
        26.0004         30.7504
  21771026.0134   -2769848.59447  -2158315.64947                  21771029.7984
        26.7504         37.5004
  22096870.4114   -8905149.49847  -6892472.34146                  22096876.3414
        24.7504         25.5004
 00  5 16 15 43  0.0010000  0  6G 2G 4G 5G 7G 9G24
  23278783.5284    7209833.75646   1456381.41746                  23278790.6224
        18.0004         15.2504
  20843033.4664   -3290473.65648  -2547323.06048                  20843037.5214
        30.0004         40.2504
  23863365.8724   -4851562.31745   -175941.06545                  23863371.2864
        10.2504          5.7504
  22572344.7554    7624834.41147   5916353.09047                  22572349.8644
        25.5004         30.7504
  21772320.7004   -2763045.44047  -2153014.49347                  21772324.4384
        27.0004         37.2504
  22091611.0214   -8932788.22747  -6914008.96647                  22091616.9384
        25.0004         25.7504
 00  5 16 15 43 15.0010000  0  6G 2G 4G 5G 7G 9G24
  23287228.3024    7254209.82246   1490960.07646                  23287235.7474
        18.2504         15.7504
  20844142.1304   -3284647.18848  -2542782.94448                  20844146.1494
        30.0004         39.7504
  23857913.2004   -4880216.15545   -198268.66645                  23857919.3884
         9.5004          4.7504
  22580388.6384    7667105.65347   5949291.68947                  22580393.8644
        26.0004         30.2504
  21773642.3104   -2756099.71847  -2147602.24147                  21773646.0604
        26.7504         37.2504
  22086369.3104   -8960332.12047  -6935471.69447                  22086375.3104
        25.0004         25.7504
 00  5 16 15 43 30.0010000  0  6G 2G 4G 5G 7G 9G24
  23295686.6774    7298659.80946   1525596.32946                  23295694.3454
        18.2504         15.7504
  20845280.5914   -3278664.92748  -2538121.43248                  20845284.6924
        29.7504         39.5004
  23852462.9424   -4908858.48245   -220587.32245                  23852468.6144
        11.5004          5.2504
  22588437.7394    7709402.57547   5982250.27947                  22588442.7084
        26.2504         31.0004
  21774991.6534   -2749008.94747  -2142076.97147                  21774995.4744
        26.2504         37.0004
  22081146.4744   -8987778.61247  -6956858.53147                  22081152.5214
        25.2504         25.7504
 00  5 16 15 43 45.0010000  0  6G 2G 4G 5G 7G 9G24
  23304160.9974    7343191.97346   1560296.62546                  23304168.7124
        17.7504         14.7504
  20846450.1614   -3272518.76848  -2533332.20948                  20846454.2744
        29.5004         39.7504
  23847016.8254   -4937480.99346   -242890.56745                  23847021.8174
        13.0004          6.5004
  22596492.7944    7751733.33347   6015235.25247                  22596498.0324
        25.0004         30.5004
  21776370.1064   -2741764.89247  -2136432.25747                  21776373.8924
        26.7504         37.0004
  22075943.7244   -9015118.93347  -6978162.63647                  22075949.5604
        25.0004         26.0004
 00  5 16 15 44  0.0010000  0  6G 2G 4G 5G 7G 9G24
  23312649.0604    7387796.24346   1595053.11146                  23312656.0714
        18.2504         15.0004
  20847649.0994   -3266218.48548  -2528422.88748                  20847653.2944
        29.5004         39.5004
  23841571.5524   -4966093.52346   -265186.03945                  23841577.3174
        12.0004          6.2504
  22604552.5834    7794087.74347   6048238.64347                  22604557.7984
        25.7504         30.5004
  21777775.8174   -2734377.47147  -2130675.82847                  21777779.5324
        26.7504         37.0004
  22070759.1854   -9042363.02847  -6999391.75447                  22070765.2314
        24.5004         26.0004
 00  5 16 15 44 15.0010000  0  6G 2G 4G 5G 7G 9G24
  23321151.2314    7432474.75946   1629867.46046                  23321158.4074
        18.2504         15.2504
  20848877.7164   -3259762.02048  -2523391.86648                  20848881.7824
        29.7504         39.5004
  23836128.6774   -4994693.67745   -287471.82345                  23836133.8104
        10.2504          5.5004
  22612617.4584    7836467.90247   6081262.10947                  22612622.8024
        25.5004         30.2504
  21779209.3174   -2726844.43147  -2124805.92847                  21779213.0914
        26.5004         37.2504
  22065593.7554   -9069508.29447  -7020543.87047                  22065599.7084
        24.5004         26.5004
 00  5 16 15 44 30.0010000  0  6G 2G 4G 5G 7G 9G24
  23329666.6064    7477223.32946   1664736.37346                  23329674.0994
        18.2504         15.7504
  20850135.2394   -3253153.55448  -2518242.40348                  20850139.2824
        30.0004         39.5004
  23830687.7784   -5023285.52845   -309751.14845                  23830693.6384
        10.5004          5.2504
  22620686.1464    7878869.50947   6114302.29847                  22620691.3844
        25.7504         30.2504
  21780669.8964   -2719170.03347  -2118825.88047                  21780673.8684
        26.5004         36.7504
  22060445.9744   -9096558.71547  -7041622.07647                  22060451.8924
        24.2504         26.2504
 00  5 16 15 44 45.0010000  0  6G 2G 4G 5G 7G 9G24
  23338194.9894    7522040.71246   1699658.91946                  23338202.7164
        18.0004         15.2504
  20851421.3804   -3246394.14148  -2512975.32048                  20851425.3174
        29.7504         39.5004
  23825248.6854   -5051870.20345   -332024.88045                  23825254.5794
        11.5004          5.7504
  22628758.8174    7921291.21447   6147358.14247                  22628764.1384
        25.7504         29.7504
  21782156.7394   -2711355.32247  -2112736.49247                  21782160.6654
        26.7504         37.0004
  22055316.5134   -9123515.17247  -7062627.06147                  22055322.4074
        24.7504         26.0004
 00  5 16 15 45  0.0010000  0  6G 2G 4G 5G 7G 9G24
  23346737.7244    7566931.72546   1734638.82746                  23346745.2394
        18.5004         14.7504
  20852737.5134   -3239479.11648  -2507586.98047                  20852741.5214
        30.2504         39.2504
  23819811.5364   -5080442.70445   -354289.13045                  23819817.3374
        11.7504          6.5004
  22636836.1384    7963737.63847   6180433.23747                  22636841.5054
        25.5004         29.7504
  21783671.6224   -2703395.46247  -2106534.01047                  21783675.5244
        26.2504         37.5004
  22050205.5994   -9150372.44947  -7083554.77647                  22050211.5174
        24.5004         26.5004
 00  5 16 15 45 15.0010000  0  6G 2G 4G 5G 7G 9G24
  23355293.8724    7611895.22246   1769675.23146                  23355301.0244
        18.2504         14.7504
  20854082.7394   -3232409.40148  -2502078.10048                  20854086.6774
        30.0004         39.7504
  23814376.3104   -5109004.03145   -376544.67745                  23814381.6884
        11.5004          6.0004
  22644917.6924    8006207.58947   6213526.67447                  22644923.0954
        25.2504         29.2504
  21785213.7864   -2695291.58147  -2100219.29747                  21785217.6184
        26.7504         37.2504
  22045113.5994   -9177131.55647  -7104405.98647                  22045119.6574
        25.0004         26.2504
 00  5 16 15 45 30.0020000  0  6G 2G 4G 5G 7G 9G24
  23363863.3144    7656929.19646   1804766.55546                  23363870.0764
        17.2504         14.0004
  20855456.6504   -3225189.63148  -2496452.29548                  20855460.4824
        30.0004         40.2504
  23808941.9394   -5137561.00945   -398796.83745                  23808947.2484
        11.7504          5.7504
  22653003.5644    8048698.69347   6246636.58147                  22653009.0254
        25.2504         29.5004
  21786782.5024   -2687048.09347  -2093795.79747                  21786786.3934
        27.0004         37.7504
  22040038.9324   -9203798.98047  -7125185.75947                  22040044.8384
        25.2504         26.0004
 00  5 16 15 45 45.0020000  0  6G 2G 4G 5G 7G 9G24
  23372446.8694    7702033.18346   1839912.41546                  23372455.1824
        17.0004         14.5004
  20856860.0184   -3217815.06748  -2490705.87448                  20856863.9794
        29.7504         40.0004
  23803510.3774   -5166104.00646   -421038.10445                  23803515.8384
        12.0004          5.5004
  22661093.5334    8091210.90647   6279762.92847                  22661098.7834
        26.0004         29.0004
  21788378.5574   -2678660.39847  -2087259.93247                  21788382.3184
        27.0004         37.5004
  22034983.2834   -9230365.37147  -7145886.81247                  22034989.1784
        25.0004         26.0004
 00  5 16 15 46  0.0020000  0  6G 2G 4G 5G 7G 9G24
  23381042.7684    7747203.52246   1875109.97946                  23381051.1504
        18.0004         15.0004
  20858291.5024   -3210292.00548  -2484843.73648                  20858295.5214
        29.7504         40.2504
  23798080.1664   -5194641.35545   -443275.00845                  23798084.7954
        11.7504          5.7504
  22669186.5724    8133740.18047   6312902.58447                  22669192.1864
        24.7504         29.2504
  21790000.9164   -2670134.59747  -2080616.45147                  21790004.6664
        27.0004         37.5004
  22029945.6504   -9256838.71947  -7166515.35147                  22029951.6154
        25.0004         26.0004
 00  5 16 15 46 15.0020000  0  6G 2G 4G 5G 7G 9G24
  23389651.9474    7792445.86346   1910363.65946                  23389659.4394
        17.7504         14.5004
  20859752.4004   -3202614.61148  -2478861.34147                  20859756.3854
        29.2504         39.2504
  23792651.7604   -5223167.33845   -465503.00645                  23792656.9984
        11.7504          6.7504
  22677283.9794    8176292.05847   6346059.85447                  22677289.3464
        25.0004         29.2504
  21791650.7444   -2661464.98047  -2073860.91047                  21791654.4944
        26.7504         37.2504
  22024926.6354   -9283213.21047  -7187066.86647                  22024932.4824
        24.5004         25.7504
 00  5 16 15 46 30.0020000  0  6G 2G 4G 5G 7G 9G24
  23398274.1584    7837757.54646   1945671.38246                  23398281.5334
        16.5004         13.2504
  20861242.1664   -3194785.71148  -2472760.89048                  20861246.3034
        29.2504         39.5004
  23787225.3544   -5251684.55646   -487724.15145                  23787231.2604
        12.2504          6.5004
  22685385.2604    8218863.67747   6379232.50447                  22685390.8854
        25.0004         28.5004
  21793327.4164   -2652654.16147  -2066995.34047                  21793331.0614
        27.0004         37.0004
  22019926.1504   -9309491.19547  -7207543.17747                  22019932.0684
        24.7504         26.2504
 00  5 16 15 46 45.0020000  0  6G 2G 4G 5G 7G 9G24
  23406908.8384    7883131.24446   1981027.41246                  23406916.3424
        17.0004         13.7504
  20862759.4794   -3186812.57648  -2466548.04947                  20862763.6274
        29.2504         39.2504
  23781798.9004   -5280200.09446   -509944.00345                  23781804.7134
        12.2504          6.7504
  22693488.7914    8261447.71147   6412414.82847                  22693494.2524
        25.2504         28.7504
  21795029.3774   -2643709.45547  -2060025.44547                  21795033.1864
        26.5004         37.2504
  22014942.5574   -9335679.67847  -7227949.74947                  22014948.4514
        24.7504         26.2504
 00  5 16 15 47  0.0020000  0  6G 2G 4G 5G 7G 9G24
  23415556.5104    7928574.84446   2016437.91046                  23415564.9634
        17.2504         14.7504
  20864305.7364   -3178687.22348  -2460216.59247                  20864309.9084
        29.2504         39.2504
  23776374.4714   -5308705.86245   -532156.28945                  23776379.9674
        11.2504          5.5004
  22701596.1974    8304051.92847   6445612.88447                  22701601.7874
        25.0004         28.7504
  21796758.6044   -2634622.84147  -2052944.97247                  21796762.2954
        26.2504         37.0004
  22009977.7214   -9361770.49647  -7248280.21847                  22009983.7914
        24.7504         26.2504
 00  5 16 15 47 15.0020000  0  6G 2G 4G 5G 7G 9G24
  23424216.2294    7974082.24746   2051898.11946                  23424224.9044
        16.5004         13.7504
  20865879.6434   -3170415.65948  -2453771.20848                  20865883.7684
        29.2504         39.7504
  23770950.1354   -5337207.85045   -554365.60044                  23770954.5644
        10.2504          4.2504
  22709706.0804    8346670.21047   6478821.89647                  22709711.7294
        24.7504         28.7504
  21798513.4394   -2625400.33847  -2045758.61047                  21798517.2604
        26.7504         37.0004
  22005030.2134   -9387769.43747  -7268539.09447                  22005036.2014
        24.7504         26.5004
 00  5 16 15 47 30.0020000  0  6G 2G 4G 5G 7G 9G24
  23432889.6504    8019660.78746   2087413.76946                  23432897.2364
        16.2504         12.5004
  20867482.8224   -3161990.67148  -2447206.27048                  20867486.8654
        29.5004         39.7504
  23765528.4794   -5365698.53245   -576566.12845                  23765533.8224
        11.0004          5.5004
  22717820.2214    8389309.64747   6512047.38947                  22717825.7054
        25.7504         29.0004
  21800295.6354   -2616034.68347  -2038460.69947                  21800299.4794
        26.2504         36.7504
  22000101.7604   -9413668.97047  -7288720.51047                  22000107.7604
        24.7504         27.0004
 00  5 16 15 47 45.0020000  0  6G 2G 4G 5G 7G 9G24
  23441576.8464    8065310.85046   2122985.15246                  23441583.3504
        17.7504         13.0004
  20869115.4474   -3153411.65548  -2440521.31647                  20869119.5844
        29.2504         39.2504
  23760110.0254   -5394177.19946   -598757.24245                  23760115.8614
        12.5004          7.2504
  22725938.3384    8431970.69547   6545289.72847                  22725943.9514
        24.7504         28.2504
  21802105.3544   -2606525.37547  -2031050.85447                  21802109.3614
        26.2504         36.5004
  21995192.2994   -9439468.22547  -7308823.78647                  21995198.2174
        25.0004         27.0004
 00  5 16 15 48  0.0020000  0  6G 2G 4G 5G 7G 9G24
  23450275.4794    8111023.81346   2158605.57146                  23450282.9474
        16.5004         13.2504
  20870775.5804   -3144687.26648  -2433723.08347                  20870779.6354
        29.2504         39.0004
  23754691.0724   -5422652.29446   -620945.57545                  23754696.8504
        12.2504          8.0004
  22734059.0254    8474644.63047   6578542.10147                  22734064.4164
        25.5004         28.5004
  21803940.6354   -2596881.01847  -2023535.77647                  21803944.6784
        26.2504         37.0004
  21990300.3384   -9465175.59347  -7328855.46447                  21990306.3144
        25.2504         28.0004
 00  5 16 15 48 15.0020000  0  6G 2G 4G 5G 7G 9G24
  23458988.8304    8156812.51046   2194284.95146                  23458997.7644
        14.7504         13.0004
  20872465.8854   -3135804.84448  -2426801.71047                  20872469.9754
        29.7504         39.0004
  23749274.7914   -5451111.03845   -643121.16745                  23749279.8184
        10.7504          6.0004
  22742184.2364    8517343.97347   6611814.28247                  22742189.8144
        25.5004         28.5004
  21805804.1114   -2587088.81047  -2015905.49247                  21805808.1544
        26.5004         37.2504
  21985428.2524   -9490778.04547  -7348805.38947                  21985434.2524
        25.0004         28.0004
 00  5 16 15 48 30.0020000  0  6G 2G 4G 5G 7G 9G24
  23467716.0104    8202670.97446   2230018.69446                  23467724.0644
        16.5004         13.0004
  20874185.2134   -3126770.07348  -2419761.62047                  20874189.2324
        29.7504         39.2504
  23743861.2364   -5479559.13445   -665288.48545                  23743866.4394
        10.7504          4.5004
  22750313.6354    8560062.81647   6645101.64647                  22750319.1194
        25.7504         28.5004
  21807694.4864   -2577154.56847  -2008164.53047                  21807698.6584
        26.7504         37.7504
  21980575.1744   -9516281.25047  -7368677.97847                  21980581.2094
        25.0004         27.7504
 00  5 16 15 48 45.0020000  0  6G 2G 4G 5G 7G 9G24
  23476454.7684    8248591.33146   2265800.71946                  23476461.5064
        18.0004         13.0004
  20875931.9164   -3117591.01648  -2412609.10047                  20875935.8894
        29.7504         39.0004
  23738449.1584   -5508004.19446   -687453.49445                  23738453.7174
        12.5004          5.5004
  22758444.9244    8602793.20447   6678398.02247                  22758450.1974
        24.5004         28.0004
  21809610.6744   -2567086.14947  -2000319.01747                  21809614.8344
        26.7504         37.5004
  21975739.5644   -9541692.80947  -7388479.15447                  21975745.5294
        25.2504         28.2504
 00  5 16 15 49  0.0020000  0  6G 2G 4G 5G 7G 9G24
  23485203.7364    8294574.15246   2301631.40546                  23485211.5104
        15.0004         12.2504
  20877706.1974   -3108266.93148  -2405343.57547                  20877710.2524
        29.7504         39.0004
  23733036.8934   -5536445.47446   -709615.53545                  23733042.3544
        12.5004          7.5004
  22766578.4394    8645535.67247   6711703.78447                  22766584.1824
        25.2504         27.7504
  21811552.1504   -2556882.93147  -1992368.46847                  21811556.1824
        27.2504         38.2504
  21970921.4004   -9567011.67147  -7408208.09847                  21970927.3544
        25.2504         28.2504
 00  5 16 15 49 15.0020000  0  6G 2G 4G 5G 7G 9G24
  23493968.5494    8340630.22946   2337519.09046                  23493977.9284
        14.7504         12.7504
  20879510.0804   -3098787.10948  -2397956.70047                  20879514.0884
        29.7504         39.2504
  23727626.8464   -5564872.12645   -731766.13245                  23727633.1624
        10.7504          7.2504
  22774716.4794    8688300.71847   6745027.14547                  22774721.9754
        25.0004         27.5004
  21813521.7214   -2546534.09447  -1984304.44747                  21813525.6464
        27.7504         38.7504
  21966122.9244   -9592226.90647  -7427856.30747                  21966128.8774
        25.2504         27.5004
 00  5 16 15 49 30.0020000  0  6G 2G 4G 5G 7G 9G24
  23502745.8074    8386751.35646   2373457.49146                  23502754.1194
        17.2504         13.2504
  20881342.0884   -3089159.76548  -2390454.88347                  20881346.1194
        29.2504         39.2504
  23722218.4004   -5593292.07445   -753911.45445                  23722224.6354
        10.2504          6.0004
  22782857.1974    8731080.21547   6778361.75247                  22782862.9634
        24.2504         27.5004
  21815517.1434   -2536047.72147  -1976133.26947                  21815520.9164
        27.5004         38.7504
  21961343.0644   -9617346.38847  -7447429.91647                  21961349.0184
        25.2504         28.0004
 00  5 16 15 49 45.0020000  0  6G 2G 4G 5G 7G 9G24
  23511533.4944    8432932.00346   2409442.29146                  23511540.6584
        16.2504         12.5004
  20883201.1894   -3079390.27148  -2382842.31347                  20883205.3384
        28.5004         39.0004
  23716811.4554   -5621710.64246   -776055.81445                  23716817.2684
        12.5004          5.2504
  22790999.5494    8773868.57747   6811703.23847                  22791005.0804
        25.0004         27.0004
  21817537.8224   -2525429.29947  -1967859.21247                  21817541.5494
        27.7504         38.7504
  21956580.0964   -9642375.32847  -7466932.97947                  21956586.0024
        25.0004         28.0004
 00  5 16 15 50  0.0020000  0  6G 2G 4G 5G 7G 9G24
  23520333.6664    8479178.56346   2445478.44145                  23520341.4394
        13.7504         11.2504
  20885088.7364   -3069472.35648  -2375114.07947                  20885092.9434
        29.0004         38.7504
  23711405.0884   -5650121.28946   -798194.08945                  23711408.5804
        13.2504          5.7504
  22799144.8934    8816671.95547   6845056.44847                  22799150.4594
        25.0004         27.0004
  21819584.7834   -2514672.55947  -1959477.36547                  21819588.4164
        27.7504         38.5004
  21951835.8694   -9667307.11547  -7486360.33347                  21951841.8574
        25.2504         27.5004
 00  5 16 15 50 15.0020000  0  6G 2G 4G 5G 7G 9G24
  23529149.1504    8525499.89846   2481572.82646                  23529158.1544
        15.5004         12.0004
  20887005.7684   -3059397.09648  -2367263.23447                  20887009.9634
        29.2504         39.0004
  23706001.5184   -5678514.92245   -820319.04245                  23706006.9904
        11.0004          6.7504
  22807294.6044    8859499.26847   6878428.31847                  22807300.2054
        25.0004         27.0004
  21821659.7364   -2503768.45647  -1950980.68647                  21821663.4394
        27.5004         38.5004
  21947111.3694   -9692132.52447  -7505704.78647                  21947117.3814
        25.0004         28.5004
 00  5 16 15 50 30.0020000  0  6G 2G 4G 5G 7G 9G24
  23537975.0964    8571880.86246   2517713.70646                  23537983.3504
        17.2504         13.7504
  20888950.2754   -3049179.62448  -2359301.57947                  20888954.4474
        29.2504         39.0004
  23700598.5724   -5706906.57845   -842442.33045                  23700605.0764
        10.0004          7.0004
  22815446.2994    8902335.15147   6911806.86747                  22815452.0294
        24.5004         26.2504
  21823759.8854   -2492732.07247  -1942380.93247                  21823763.6114
        27.5004         38.2504
  21942404.8074   -9716866.35047  -7524977.88347                  21942410.8544
        24.7504         28.0004
 00  5 16 15 50 45.0020000  0  6G 2G 4G 5G 7G 9G24
  23546813.2914    8618328.46346   2553906.50146                  23546821.9904
        15.5004         12.7504
  20890922.9394   -3038812.92348  -2351223.63447                  20890927.2404
        29.0004         38.5004
  23695198.0884   -5735289.08146   -864558.49245                  23695203.8654
        13.0004          8.0004
  22823600.5104    8945186.60447   6945197.54547                  22823606.2994
        24.5004         26.2504
  21825886.5574   -2481556.50247  -1933672.71647                  21825890.4364
        27.5004         38.0004
  21937716.9394   -9741501.52747  -7544174.10647                  21937722.7874
        25.0004         28.2504
 00  5 16 15 51  0.0020000  0  6G 2G 4G 5G 7G 9G24
  23555663.7294    8664836.66746   2590146.54145                  23555671.9714
        13.5004         10.7504
  20892922.7054   -3028303.01748  -2343034.09547                  20892926.9944
        29.0004         38.7504
  23689797.9864   -5763668.18846   -886672.09145                  23689803.2604
        14.7504          8.0004
  22831756.6274    8988047.47747   6978595.58047                  22831762.5574
        24.0004         26.0004
  21828038.4864   -2470247.66747  -1924860.65047                  21828042.2834
        27.5004         38.2504
  21933046.4944   -9766043.56647  -7563297.74647                  21933052.3424
        25.0004         28.7504
 00  5 16 15 51 15.0020000  0  6G 2G 4G 5G 7G 9G24
  23564528.3224    8711416.14546   2626442.12245                  23564535.8734
        16.0004         11.5004
  20894952.1504   -3017639.35148  -2334724.74247                  20894956.3814
        28.7504         38.7504
  23684400.1824   -5792033.14746   -908774.70045                  23684403.5804
        12.5004          6.0004
  22839916.7054    9030928.39247   7012009.22647                  22839922.3544
        24.2504         25.7504
  21830218.0494   -2458794.97347  -1915936.48847                  21830221.7644
        27.5004         38.2504
  21928396.3074   -9790481.66147  -7582340.38347                  21928402.1544
        25.2504         29.0004
 00  5 16 15 51 30.0020000  0  6G 2G 4G 5G 7G 9G24
  23573403.4324    8758055.45246   2662784.34546                  23573411.8264
        16.2504         13.5004
  20897008.5804   -3006833.18048  -2326304.34747                  20897012.8344
        28.5004         39.2504
  23679001.5884   -5820395.20645   -930875.01945                  23679007.4244
        10.0004          5.5004
  22848078.5024    9073817.73247   7045429.44447                  22848084.4434
        24.0004         26.0004
  21832422.5334   -2447209.73147  -1906909.03747                  21832426.2714
        27.5004         38.2504
  21923763.5184   -9814826.90647  -7601310.67547                  21923769.4944
        25.5004         29.5004
 00  5 16 15 51 45.0020000  0  6G 2G 4G 5G 7G 9G24
  23582289.1194    8804753.93646   2699172.64246                  23582298.5924
        15.0004         13.7504
  20899091.8774   -2995885.23148  -2317773.47747                  20899096.0254
        29.0004         38.5004
  23673606.2604   -5848754.69546   -952973.22845                  23673611.9554
        12.5004          8.2504
  22856241.5024    9116714.94947   7078855.79847                  22856247.2794
        23.7504         25.7504
  21834652.2134   -2435492.48747  -1897778.72647                  21834656.1974
        27.2504         37.7504
  21919148.4944   -9839079.63147  -7620208.87347                  21919154.3894
        25.7504         30.0004
 00  5 16 15 52  0.0020000  0  6G 2G 4G 5G 7G 9G24
  23591188.0804    8851516.26246   2735610.66546                  23591198.0574
        13.7504         12.0004
  20901202.9164   -2984790.74148  -2309128.41347                  20901206.9714
        29.2504         38.7504
  23668211.5334   -5877106.80546   -975065.72345                  23668217.3814
        14.7504         10.7504
  22864406.9394    9159624.47947   7112291.75846                  22864412.8814
        23.7504         25.2504
  21836908.1664   -2423638.63647  -1888541.96747                  21836912.1864
        27.2504         38.0004
  21914551.7754   -9863234.97447  -7639031.18147                  21914557.7404
        26.0004         29.5004
 00  5 16 15 52 15.0020000  0  6G 2G 4G 5G 7G 9G24
  23600099.4084    8898340.98546   2772097.35445                  23600106.9824
        17.0004         11.2504
  20903341.9244   -2973551.31948  -2300370.41047                  20903345.8614
        29.7504         38.7504
  23662817.3074   -5905452.76346   -997153.46445                  23662822.7794
        13.7504          8.7504
  22872574.5184    9202544.89147   7145736.18246                  22872580.3544
        24.5004         25.5004
  21839189.4474   -2411649.56947  -1879199.84747                  21839193.4434
        27.0004         38.0004
  21909973.5414   -9887293.93847  -7657778.39347                  21909979.4824
        26.0004         30.2504
 00  5 16 15 52 30.0020000  0  6G 2G 4G 5G 7G 9G24
  23609021.8074    8945229.94346   2808634.14246                  23609028.7604
        17.0004         12.2504
  20905508.7294   -2962164.91048  -2291497.87847                  20905512.5844
        30.2504         39.2504
  23657423.7754   -5933790.54445  -1019234.86445                  23657427.5844
        11.0004          5.5004
  22880744.2524    9245477.96247   7179190.48046                  22880750.2404
        23.0004         24.5004
  21841496.9714   -2399523.32747  -1869750.84047                  21841500.9324
        27.5004         38.7504
  21905414.0414   -9911254.40147  -7676448.84447                  21905419.9124
        26.0004         30.0004
 00  5 16 15 52 45.0020000  0  6G 2G 4G 5G 7G 9G24
  23617956.2754    8992183.08346   2845220.87246                  23617965.3034
        14.7504         12.5004
  20907703.3304   -2950631.66648  -2282510.92747                  20907707.2324
        29.7504         39.2504
  23652033.3544   -5962120.15546  -1041309.85945                  23652038.4394
        12.2504          6.2504
  22888916.7294    9288423.53447   7212654.50746                  22888922.5884
        24.5004         24.7504
  21843830.6824   -2387260.01848  -1860195.01748                  21843834.6314
        28.0004         39.5004
  21900873.2684   -9935116.20147  -7695042.41647                  21900879.2914
        25.7504         30.2504
 00  5 16 15 53  0.0020000  0  6G 2G 4G 5G 7G 9G24
  23626904.3384    9039200.50746   2881857.67446                  23626913.9164
        15.7504         12.5004
  20909926.0334   -2938951.53348  -2273409.52348                  20909929.9944
        29.2504         39.5004
  23646644.4474   -5990441.11046  -1063378.13245                  23646649.9204
        14.2504          9.5004
  22897091.3144    9331381.56547   7246128.25846                  22897097.3144
        22.7504         24.5004
  21846190.5644   -2374859.46348  -1850532.25748                  21846194.3144
        28.0004         39.5004
  21896351.2914   -9958878.98247  -7713558.83247                  21896357.2684
        26.0004         30.7504
 00  5 16 15 53 15.0020000  0  6G 2G 4G 5G 7G 9G24
  23635863.6274    9086282.49046   2918544.82546                  23635871.9394
        16.7504         12.5004
  20912176.5884   -2927124.17848  -2264193.39247                  20912180.6194
        29.0004         39.2504
  23641256.7444   -6018752.91646  -1085439.22145                  23641262.5334
        13.2504         10.2504
  22905268.3304    9374352.35747   7279611.94146                  22905274.2604
        23.2504         24.7504
  21848576.4794   -2362321.31147  -1840762.27448                  21848580.3344
        27.7504         39.5004
  21891848.1584   -9982542.19747  -7731997.66147                  21891854.1114
        25.5004         31.0004
 00  5 16 15 53 30.0020000  0  6G 2G 4G 5G 7G 9G24
  23644834.6354    9133427.85246   2955281.39045                  23644842.0574
        15.7504         11.0004
  20914455.2294   -2915150.75748  -2254863.45147                  20914459.2364
        29.5004         39.2504
  23635869.6584   -6047056.66645  -1107494.00045                  23635875.5184
        10.7504          7.5004
  22913447.6194    9417334.65247   7313104.60146                  22913453.5964
        23.7504         25.0004
  21850988.4474   -2349646.79648  -1830886.03348                  21850992.2794
        28.0004         39.5004
  21887364.0104  -10006106.54447  -7750359.44947                  21887369.9864
        25.2504         31.0004
 00  5 16 15 53 45.0020000  0  7G 2G 4G 5G 7G16G 9G24
  23653816.8774    9180627.33946   2992060.09945                  23653825.1784
        15.5004         11.5004
  20916759.6274   -2903040.59348  -2245426.95247                  20916763.5294
        29.2504         39.2504
  23630484.1974   -6075361.43646  -1129549.63645                  23630489.0494
        12.5004          5.5004
  22921627.3614    9460319.01747   7346598.87046                  22921633.3504
        22.7504         24.2504
  25176097.5104
        51.96245         9.0004
  21853424.3544   -2336845.32848  -1820910.87147                  21853428.2444
        28.0004         39.0004
  21882896.8464  -10029581.16247  -7768651.32047                  21882902.7524
        25.5004         31.7504
 00  5 16 15 54  0.0020000  0  7G 2G 4G 5G 7G16G 9G24
  23662810.0804    9227885.86546   3028884.78446                  23662819.4474
        15.7504         12.7504
  20919090.7994   -2890788.72548  -2235880.03347                  20919094.7254
        29.2504         38.7504
  23625099.5884   -6103661.94546  -1151602.04145                  23625103.5254
        15.2504          7.7504
  22929808.5104    9503310.44747   7380098.63946                  22929814.1464
        23.7504         24.0004
  25176127.1274
       204.07245         9.7504
  21855885.2444   -2323911.71148  -1810832.73547                  21855889.1824
        28.0004         39.0004
  21878447.8304  -10052960.85447  -7786869.22347                  21878453.7134
        25.2504         31.5004
 00  5 16 15 54 15.0020000  0  7G 2G 4G 5G 7G16G 9G24
  23671815.7604    9275212.16446   3065762.29346                  23671824.8814
        15.7504         12.2504
  20921451.0804   -2878386.39248  -2226215.86947                  20921455.1704
        28.7504         37.7504
  23619715.8464   -6131949.30946  -1173644.13945                  23619720.8734
        14.0004          9.7504
  22937992.4864    9546317.52647   7413610.62046                  22937998.4864
        22.2504         23.7504
  25176177.0574
       464.79745        10.2504
  21858373.6584   -2310837.08947  -1800644.73047                  21858377.4674
        27.7504         38.2504
  21874018.7684  -10076236.47847  -7805006.03447                  21874024.7684
        25.0004         31.5004
 00  5 16 15 54 30.0020000  0  7G 2G 4G 5G 7G16G 9G24
  23680832.4634    9322593.93446   3102683.03345                  23680840.8814
        15.5004         11.5004
  20923837.4084   -2865845.90948  -2216444.05847                  20923841.4634
        28.5004         37.5004
  23614332.5184   -6160235.67045  -1195685.35445                  23614339.0334
        11.0004          9.0004
  22946177.0414    9589327.97747   7447125.20946                  22946182.9004
        23.7504         24.0004
  25176244.4244
       822.10845         9.7504
  21860885.9634   -2297633.81447  -1790356.46647                  21860889.7604
        27.7504         38.2504
  21869607.0024  -10099420.16947  -7823071.20747                  21869613.0024
        25.0004         31.2504
 00  5 16 15 54 45.0020000  0  7G 2G 4G 5G 7G16G 9G24
  23689860.1664    9370034.45646   3139649.56645                  23689868.3964
        15.5004         11.2504
  20926250.8074   -2853163.99048  -2206562.03847                  20926255.0374
        28.5004         37.7504
  23608951.2214   -6188517.41046  -1217722.96445                  23608957.6314
        13.0004          7.7504
  22954362.9004    9632344.97447   7480644.90746                  22954368.7484
        23.0004         24.2504
  25176331.2834
      1279.74045         8.7504
  21863423.6894   -2284298.51947  -1779965.33847                  21863427.4284
        27.7504         38.0004
  21865213.4394  -10122508.24447  -7841061.87647                  21865219.3344
        25.2504         32.0004
 00  5 16 15 55  0.0020000  0  7G 2G 4G 5G 7G16G 9G24
  23698899.4634    9417538.36246   3176665.48246                  23698908.6074
        15.2504         12.0004
  20928691.5884   -2840336.19448  -2196566.34447                  20928695.7254
        28.5004         38.2504
  23603571.7604   -6216789.82746  -1239753.47145                  23603575.9904
        15.2504          7.2504
  22962551.0184    9675373.01947   7514173.21346                  22962556.9594
        22.7504         24.2504
  25176438.3614       1842.30445       383.48154                  25176451.6664
         8.7504          4.0004
  21865987.2444   -2270826.67747  -1769467.80247                  21865991.0064
        27.5004         38.2504
  21860838.9004  -10145495.79147  -7858974.21347                  21860844.8304
        25.7504         32.0004
 00  5 16 15 55 15.0020000  0  7G 2G 4G 5G 7G16G 9G24
  23707951.1894    9465100.32146   3213726.61946                  23707960.6624
        15.2504         12.0004
  20931159.6044   -2827367.74148  -2186461.04747                  20931163.7644
        28.7504         38.5004
  23598191.9324   -6245058.07346  -1261780.74145                  23598195.9284
        13.0004          7.7504
  22970740.0724    9718406.60647   7547705.84246                  22970745.7914
        23.5004         24.5004
  25176563.7054       2504.69744       899.68544                  25176577.4794
         6.7504          3.5004
  21868575.7444   -2257223.65947  -1758868.05247                  21868579.4364
        27.5004         37.7504
  21856482.7834  -10168387.97047  -7876812.23847                  21856488.6784
        26.0004         32.0004
 00  5 16 15 55 30.0020000  0  7G 2G 4G 5G 7G16G 9G24
  23717013.1114    9512724.04246   3250835.88945                  23717022.2794
        14.7504         11.0004
  20933654.9084   -2814254.97248  -2176243.29647                  20933658.9634
        29.0004         38.0004
  23592813.1354   -6273318.24845  -1283801.55445                  23592819.3344
        10.5004          7.5004
  22978930.8224    9761449.48347   7581245.70646                  22978936.6934
        22.2504         23.5004
  25176709.0724       3271.08344      1496.98943                  25176723.4554
         6.2504          3.2504
  21871190.2134   -2243485.73747  -1748163.18447                  21871193.7294
        27.7504         38.0004
  21852145.4794  -10191180.84047  -7894572.87947                  21852151.2094
        26.0004         31.7504
 00  5 16 15 55 45.0020000  0  7G 2G 4G 5G 7G16G 9G24
  23726087.8224    9560409.69646   3287993.43445                  23726095.8074
        15.7504         10.7504
  20936177.5804   -2800997.77748  -2165913.00847                  20936181.6114
        29.0004         38.2504
  23587438.0494   -6301569.90346  -1305815.71345                  23587443.9904
        13.7504          9.2504
  22987123.3544    9804501.72547   7614792.86246                  22987129.1074
        23.0004         23.7504
  25176875.4864       4141.72944      2175.47743                  25176890.2684
         6.7504          3.2504
  21873830.2134   -2229612.75048  -1737353.07147                  21873833.8934
        28.0004         38.0004
  21847827.0104  -10213873.99547  -7912255.81747                  21847832.8934
        26.0004         32.0004
 00  5 16 15 56  0.0020000  0  7G 2G 4G 5G 7G16G 9G24
  23735172.3144    9608150.48746   3325193.93345                  23735180.7684
        15.2504         11.5004
  20938726.6824   -2787602.75348  -2155475.31947                  20938730.7254
        28.5004         38.2504
  23582062.6824   -6329819.50646  -1327828.39645                  23582067.4044
        15.0004          9.2504
  22995316.5724    9847556.65247   7648342.11546                  22995322.4204
        22.2504         23.5004
  25177059.4084       5110.41645      2930.39543                  25177073.7914
         7.7504          3.2504
  21876494.4084   -2215611.32347  -1726442.87347                  21876498.0184
        27.7504         38.5004
  21843526.3544  -10236473.65847  -7929865.90347                  21843532.1894
        26.0004         32.0004
 00  5 16 15 56 15.0020000  0  7G 2G 4G 5G 7G16G 9G24
  23744268.8464    9655952.41546   3362442.06145                  23744278.6704
        14.2504         11.7504
  20941302.8614   -2774064.06948  -2144925.68847                  20941306.9514
        29.0004         38.2504
  23576688.0644   -6358060.96846  -1349834.75945                  23576691.7564
        12.5004          7.0004
  23003511.1194    9890620.15347   7681898.04646                  23003516.9324
        23.0004         23.2504
  25177263.9864       6183.35345      3766.51044                  25177278.4864
         8.5004          4.2504
  21879184.4634   -2201475.49948  -1715427.95247                  21879188.0494
        28.0004         38.5004
  21839244.7524  -10258973.63847  -7947398.32047                  21839250.7054
        26.7504         32.2504
 00  5 16 15 56 30.0020000  0  7G 2G 4G 5G 7G16G 9G24
  23753375.5644    9703807.13946   3399731.30945                  23753385.8114
        14.2504         11.0004
  20943905.1584   -2760389.96148  -2134270.53347                  20943909.3774
        28.5004         38.7504
  23571313.0334   -6386302.51845  -1371841.10145                  23571318.6234
        11.7504          7.0004
  23011706.0964    9933683.70047   7715454.01346                  23011711.9204
        23.7504         23.2504
  25177486.4164       7352.33945      4677.45144                  25177501.9364
         9.0004          3.7504
  21881898.4324   -2187213.65748  -1704314.83547                  21881902.0294
        28.2504         39.2504
  21834980.7214  -10281382.05047  -7964859.37947                  21834986.5334
        26.7504         32.7504
 00  5 16 15 56 45.0020000  0  7G 2G 4G 5G 7G16G 9G24
  23762495.0184    9751727.41146   3437071.65845                  23762503.5884
        15.5004         10.5004
  20946535.3854   -2746567.91148  -2123500.10047                  20946539.5214
        28.5004         38.5004
  23565942.4084   -6414531.08346  -1393837.35045                  23565947.8694
        15.0004         10.0004
  23019903.1354    9976760.04547   7749019.96046                  23019909.0294
        22.0004         23.0004
  25177729.7604       8630.42345      5673.37444                  25177743.6044
         9.2504          3.7504
  21884638.6744   -2172813.04247  -1693093.58948                  21884642.3424
        27.7504         39.5004
  21830736.2364  -10303685.89347  -7982238.96647                  21830741.9554
        26.7504         33.0004
 00  5 16 15 57  0.0020000  0  7G 2G 4G 5G 7G16G 9G24
  23771624.9864    9799705.03246   3474456.72245                  23771633.2524
        16.0004         10.5004
  20949192.2214   -2732605.88848  -2112620.59747                  20949196.2874
        28.7504         38.7504
  23560571.5334   -6442754.60146  -1415829.66745                  23560577.0534
        14.7504         10.5004
  23028101.3224   10019841.00847   7782589.49546                  23028107.1934
        23.0004         23.5004
  25177992.7444      10009.78045      6748.26544                  25178006.0024
         9.0004          4.0004
  21887404.0024   -2158281.71647  -1681770.48747                  21887407.8814
        27.7504         39.2504
  21826510.5104  -10325892.97747  -7999543.14847                  21826516.4394
        27.0004         33.5004
 00  5 16 15 57 15.0020000  0  7G 2G 4G 5G 7G16G 9G24
  23780764.3464    9847735.26346   3511882.75645                  23780773.7834
        14.2504         11.0004
  20951874.9004   -2718508.69748  -2101635.77147                  20951879.0494
        29.0004         38.2504
  23555200.1894   -6470977.68746  -1437821.66745                  23555205.6744
        12.2504          7.5004
  23036299.4004   10062921.76747   7816158.88846                  23036305.3774
        21.2504         22.5004
  25178272.9084      11485.88145      7898.50044                  25178288.0414
         8.2504          3.7504
  21890193.2834   -2143624.41748  -1670349.22448                  21890197.1504
        28.0004         39.5004
  21822302.2214  -10348007.78247  -8016775.42547                  21822308.0924
        27.0004         33.7504
 00  5 16 15 57 30.0020000  0  7G 2G 4G 5G 7G16G 9G24
  23789915.7754    9895824.13246   3549354.43745                  23789925.9044
        14.2504         11.5004
  20954584.2524   -2704270.46548  -2090541.03947                  20954588.3074
        29.0004         38.5004
  23549830.8614   -6499194.07446  -1459808.41245                  23549835.8424
        13.2504          7.2504
  23044498.3614   10106008.20447   7849732.68146                  23044503.8574
        23.0004         22.7504
  25178572.9084      13065.09145      9129.09644                  25178586.8344
         7.5004          3.7504
  21893007.4164   -2128835.02348  -1658825.03148                  21893011.2954
        28.0004         39.7504
  21818112.5804  -10370023.99347  -8033930.87547                  21818118.4394
        27.2504         34.0004
 00  5 16 15 57 45.0020000  0  7G 2G 4G 5G 7G16G 9G24
  23799078.4634    9943972.40146   3586872.42445                  23799088.0764
        15.2504         11.2504
  20957320.7684   -2689890.22148  -2079335.65147                  20957324.7874
        29.0004         38.0004
  23544463.7294   -6527402.62246  -1481789.09545                  23544468.4164
        15.7504          9.0004
  23052698.9864   10149101.16447   7883311.56446                  23052704.9634
        22.7504         23.0004
  25178894.0804      14748.31945     10440.75444                  25178908.3344
         8.2504          3.7504
  21895847.1744   -2113912.82847  -1647197.35648                  21895851.2524
        27.7504         39.7504
  21813941.8694  -10391940.57047  -8051008.69447                  21813947.7994
        27.0004         34.0004
 00  5 16 15 58  0.0020000  0  7G 2G 4G 5G 7G16G 9G24
  23808250.6584    9992175.76646   3624433.38745                  23808259.0764
        15.2504         10.2504
  20960083.3304   -2675372.51348  -2068023.15047                  20960087.3264
        29.0004         37.5004
  23539096.3224   -6555607.38146  -1503766.82245                  23539100.7524
        14.5004          9.7504
  23060899.8694   10192196.36147   7916892.19846                  23060905.6704
        23.5004         23.0004
  25179232.9714      16531.71145     11830.46045                  25179246.5334
         9.0004          4.5004
  21898711.0884   -2098862.09247  -1635469.52147                  21898715.2014
        27.7504         39.2504
  21809789.6114  -10413761.55247  -8068012.02247                  21809795.4474
        27.0004         33.7504
 00  5 16 15 58 15.0020000  0  7G 2G 4G 5G 7G16G 9G24
  23817435.9554   10040442.64646   3662043.82845                  23817444.7954
        13.7504         10.0004
  20962873.8384   -2660708.84148  -2056596.91247                  20962877.8344
        28.7504         38.2504
  23533730.8304   -6583799.88246  -1525734.94145                  23533736.7834
        12.5004          8.5004
  23069102.5494   10235301.95547   7950480.93346                  23069108.3034
        22.7504         22.2504
  25179593.1974      18423.81445     13304.89245                  25179606.3034
         9.7504          4.7504
  21901601.2524   -2083674.44447  -1623635.00048                  21901605.4124
        27.5004         39.5004
  21805657.0254  -10435478.18547  -8084934.04247                  21805662.8504
        26.7504         34.0004
 00  5 16 15 58 30.0020000  0  7G 2G 4G 5G 7G16G 9G24
  23826631.7214   10088765.96146   3699698.20845                  23826641.7094
        13.7504         10.7504
  20965690.6584   -2645906.37748  -2045062.52447                  20965694.5024
        29.0004         38.2504
  23528367.3304   -6611986.96546  -1547698.85345                  23528372.7214
        14.2504          8.5004
  23077305.8144   10278410.84447   7984072.24146                  23077311.7094
        21.2504         22.2504
  25179973.0644      20417.62645     14858.57345                  25179987.7404
        10.7504          5.5004
  21904516.1824   -2068357.04247  -1611699.37448                  21904520.3774
        27.5004         39.5004
  21801542.9164  -10457097.43047  -8101780.16947                  21801548.8224
        26.7504         34.0004
 00  5 16 15 58 45.0020000  0  7G 2G 4G 5G 7G16G 9G24
  23835839.9714   10137154.59046   3737403.48145                  23835849.3964
        15.2504         11.7504
  20968535.6194   -2630956.12948  -2033412.98147                  20968539.5334
        28.7504         37.7504
  23523006.9474   -6640159.42946  -1569651.42845                  23523011.2254
        16.0004          9.7504
  23085511.1434   10321531.92747   8017673.03746                  23085516.6744
        22.0004         22.5004
  25180373.3464      22522.73245     16498.94845                  25180386.7914
        10.2504          5.5004
  21907457.4004   -2052900.83747  -1599655.58847                  21907461.6784
        27.5004         38.7504
  21797449.2604  -10478609.95447  -8118543.13947                  21797455.1074
        26.5004         33.7504
 00  5 16 15 59  0.0020000  0  7G 2G 4G 5G 7G16G 9G24
  23845060.8934   10185609.56346   3775160.46945                  23845069.9674
        14.7504         10.7504
  20971408.7524   -2615857.22548  -2021647.60347                  20971412.6544
        28.5004         37.7504
  23517648.5254   -6668316.07046  -1591591.66345                  23517653.2254
        14.5004          9.7504
  23093719.5804   10364666.25147   8051284.14146                  23093725.2524
        23.0004         22.7504
  25180795.0414      24740.15645     18226.83645                  25180808.5214
        10.2504          4.7504
  21910425.2134   -2037304.83947  -1587502.87347                  21910429.3264
        27.7504         39.2504
  21793376.1434  -10500014.55647  -8135222.01947                  21793382.0254
        26.5004         33.5004
 00  5 16 15 59 15.0020000  0  7G 2G 4G 5G 7G16G 9G24
  23854290.8544   10234115.59846   3812957.25845                  23854299.4004
        13.7504          9.2504
  20974307.4394   -2600624.86548  -2009778.23247                  20974311.3074
        28.5004         37.2504
  23512289.8854   -6696471.97146  -1613531.26845                  23512295.6154
        13.2504          9.0004
  23101927.4714   10407798.44147   8084893.59246                  23101933.0254
        23.5004         23.0004
  25181235.7684      27054.87045     20030.54945                  25181248.5924
        10.7504          4.7504
  21913416.6894   -2021584.35947  -1575253.16147                  21913420.7094
        27.7504         38.7504
  21789320.4554  -10521326.20847  -8151828.46747                  21789326.3384
        26.7504         33.7504
 00  5 16 15 59 30.0020000  0  7G 2G 4G 5G 7G16G 9G24
  23863530.9084   10282668.32646   3850790.41845                  23863539.5964
        14.7504         10.0004
  20977230.5964   -2585263.52148  -1997808.35647                  20977234.4394
        28.5004         37.5004
  23506931.9164   -6724631.25146  -1635473.51645                  23506937.3654
        15.0004          9.7504
  23110134.3384   10450923.98447   8118497.87346                  23110140.2794
        22.0004         22.7504
  25181694.1194      29462.80445     21906.91745                  25181707.6234
        10.0004          5.0004
  21916431.1114   -2005743.71947  -1562909.81747                  21916435.0374
        27.7504         38.2504
  21785281.9794  -10542548.87647  -8168365.58147                  21785287.8614
        26.7504         33.2504
 00  5 16 15 59 45.0020000  0  7G 2G 4G 5G 7G16G 9G24
  23872780.9394   10331276.71546   3888666.93145                  23872790.0144
        15.2504         10.7504
  20980179.9324   -2569764.01748  -1985730.82447                  20980183.9754
        28.5004         37.2504
  23501574.8614   -6752784.53846  -1657411.13145                  23501579.4904
        15.7504          9.7504
  23118341.2214   10494052.07847   8152104.13246                  23118347.1974
        22.0004         22.7504
  25182171.6824      31973.34345     23863.20645                  25182184.7994
        11.0004          5.0004
  21919470.0964   -1989773.88447  -1550465.80347                  21919474.0104
        27.5004         37.5004
  21781262.0644  -10563673.41147  -8184826.21847                  21781267.9594
        26.7504         33.5004
 00  5 16 16  0  0.0020000  0  7G 2G 4G 5G 7G16G 9G24
  23882040.6434   10379940.90646   3926586.93845                  23882050.5144
        13.7504         10.0004
  20983155.6824   -2554126.54248  -1973545.77647                  20983159.6314
        28.5004         37.2504
  23496218.2294   -6780931.66846  -1679343.95045                  23496222.9394
        13.7504          8.7504
  23126548.4794   10537182.51947   8185712.23046                  23126554.1394
        22.2504         22.5004
  25182669.4634      34586.78645     25899.70445                  25182681.8894
        11.7504          5.5004
  21922533.7134   -1973674.86847  -1537921.12647                  21922537.4284
        27.7504         37.7504
  21777260.7914  -10584699.38547  -8201210.06247                  21777266.7214
        27.0004         33.7504
 00  5 16 16  0 15.0020000  0  7G 2G 4G 5G 7G16G 9G24
  23891312.2994   10428661.79946   3964551.11245                  23891322.1824
        13.2504          9.5004
  20986157.8224   -2538350.17048  -1961252.50147                  20986161.9124
        28.5004         37.5004
  23490862.9244   -6809071.55946  -1701271.09945                  23490867.8464
        14.0004          8.7504
  23134756.9244   10580316.26447   8219322.87446                  23134762.5374
        24.2504         23.0004
  25183186.4634      37304.21246     28017.22545                  25183199.4634
        12.5004          6.2504
  21925621.9004   -1957445.72947  -1525275.06047                  21925625.6974
        27.5004         37.2504
  21773278.7994  -10605625.63747  -8217516.20147                  21773284.6704
        27.2504         34.0004
 00  5 16 16  0 30.0020000  0  7G 2G 4G 5G 7G16G 9G24
  23900595.2444   10477441.00346   4002560.74245                  23900604.3894
        14.0004          9.0004
  20989186.8614   -2522433.30748  -1948849.75147                  20989191.0574
        28.5004         37.7504
  23485510.4794   -6837202.28746  -1723191.11345                  23485515.1074
        15.7504         10.5004
  23142965.9164   10623454.88947   8252937.34246                  23142971.8114
        23.0004         22.7504
  25183723.7054      40127.41346     30217.15045                  25183736.1194
        12.5004          6.0004
  21928735.3074   -1941084.82048  -1512526.31147                  21928738.9284
        28.0004         38.0004
  21769316.0574  -10626450.31647  -8233743.19347                  21769321.7754
        27.5004         33.7504
 00  5 16 16  0 45.0020000  0  7G 2G 4G 5G 7G16G 9G24
  23909886.9004   10526270.22146   4040609.35145                  23909896.3964
        13.7504          9.7504
  20992240.7364   -2506384.20948  -1936343.96147                  20992244.7684
        28.5004         37.5004
  23480157.6044   -6865331.84946  -1745110.23845                  23480162.3504
        15.2504         10.5004
  23151174.1044   10666590.06247   8286549.12746                  23151180.0574
        22.0004         22.0004
  25184279.6044      43048.53246     32493.39945                  25184292.7684
        12.2504          6.2504
  21931872.2684   -1924600.32848  -1499681.26447                  21931875.8424
        28.0004         37.7504
  21765371.0964  -10647181.28247  -8249897.16147                  21765376.7444
        27.7504         34.7504
 00  5 16 16  1  0.0020000  0  7G 2G 4G 5G 7G16G 9G24
  23919190.4084   10575161.11046   4078706.00345                  23919200.2684
        13.2504          9.5004
  20995322.1744   -2490191.32648  -1923726.13147                  20995326.2754
        28.5004         38.5004
  23474806.4084   -6893448.39746  -1767019.21245                  23474812.2214
        13.5004          9.2504
  23159384.2294   10709733.36447   8320167.22746                  23159389.9714
        23.2504         23.0004
  25184855.7994      46079.48345     34855.23045                  25184868.4714
        11.7504          6.0004
  21935034.6584   -1907980.79047  -1486730.98647                  21935038.3144
        27.5004         37.7504
  21761446.1744  -10667806.71247  -8265968.89647                  21761451.9044
        27.7504         35.2504
 00  5 16 16  1 15.0020000  0  7G 2G 4G 5G 7G16G 9G24
  23928505.4084   10624111.35946   4116848.88345                  23928516.0414
        13.2504          9.5004
  20998430.4794   -2473857.05848  -1910998.13647                  20998434.4984
        28.5004         38.5004
  23469458.2684   -6921554.06446  -1788919.69445                  23469463.5764
        14.0004          9.2504
  23167595.1824   10752882.44347   8353789.83746                  23167601.0064
        22.5004         22.2504
  25185453.4394      49218.24545     37301.07745                  25185466.3814
        10.7504          5.0004
  21938222.7914   -1891228.50048  -1473677.26347                  21938226.4714
        28.0004         37.7504
  21757540.8544  -10688328.69948  -8281960.02647                  21757546.6074
        28.0004         35.2504
 00  5 16 16  1 30.0020000  0  7G 2G 4G 5G 7G16G 9G24
  23937831.8384   10673118.99346   4155036.48545                  23937841.4514
        13.7504          9.0004
  21001565.5574   -2457383.22848  -1898161.38947                  21001569.4714
        28.7504         38.7504
  23464111.9634   -6949650.41346  -1810812.93745                  23464117.2254
        15.0004         10.2504
  23175807.1434   10796035.37847   8387415.44446                  23175812.5574
        23.7504         23.0004
  25186070.4714      52463.07345     39829.58745                  25186083.7174
        10.7504          5.0004
  21941435.4944   -1874345.18847  -1460521.44847                  21941439.1504
        27.7504         38.2504
  21753655.1044  -10708748.87447  -8297871.82447                  21753660.7874
        27.7504         35.5004
 00  5 16 16  1 45.0020000  0  7G 2G 4G 5G 7G16G 9G24
  23947169.5494   10722190.86546   4193274.18145                  23947178.2604
        13.5004          9.0004
  21004728.2364   -2440762.98348  -1885210.55247                  21004732.1504
        29.2504         38.7504
  23458768.3934   -6977730.51746  -1832693.50445                  23458774.0064
        14.2504         10.2504
  23184020.7994   10839198.94847   8421049.34746                  23184026.7754
        22.7504         22.2504
  25186709.4164      55821.05045     42446.22245                  25186722.4864
        11.0004          5.0004
  21944674.5884   -1857324.13147  -1447258.29547                  21944678.3384
        27.7504         38.2504
  21749789.9714  -10729060.09247  -8313698.71447                  21749795.7134
        27.7504         35.5004
 00  5 16 16  2  0.0020000  0  7G 2G 4G 5G 7G16G 9G24
  23956517.0334   10771311.14346   4231549.57845                  23956526.7174
        13.2504          9.2504
  21007915.8464   -2424012.54948  -1872158.26947                  21007919.6544
        29.0004         39.2504
  23453425.0254   -7005809.93846  -1854573.52245                  23453430.8264
        13.7504          9.2504
  23192233.8464   10882357.25947   8454679.14546                  23192239.7994
        23.0004         22.5004
  25187366.9474      59276.63045     45138.92945                  25187379.7364
        10.7504          5.2504
  21947936.6894   -1840181.30748  -1433900.26047                  21947940.4394
        28.2504         39.2504
  21745942.5414  -10749277.98747  -8329452.89047                  21745948.4244
        27.7504         36.0004
 00  5 16 16  2 15.0020000  0  7G 2G 4G 5G 7G16G 9G24
  23965875.5494   10820488.65246   4269869.54245                  23965886.0184
        13.2504          9.2504
  21011129.6504   -2407122.87348  -1858997.48747                  21011133.7524
        28.5004         38.7504
  23448083.8544   -7033879.61846  -1876445.98945                  23448088.9864
        14.7504          8.7504
  23200447.2524   10925519.12147   8488311.70846                  23200453.0294
        23.0004         22.2504
  25188045.0964      62838.94345     47914.80545                  25188057.6864
        11.0004          5.7504
  21951223.8074   -1822907.80847  -1420440.40447                  21951227.6974
        27.5004         38.7504
  21742114.6504  -10769393.41047  -8345127.21647                  21742120.3574
        27.7504         35.7504
 00  5 16 16  2 30.0020000  0  7G 2G 4G 5G 7G16G 9G24
  23975245.0334   10869723.12646   4308233.89945                  23975254.9634
        13.2504          9.2504
  21014370.2294   -2390094.33848  -1845728.50047                  21014374.3654
        28.5004         38.5004
  23442743.9084   -7061939.54046  -1898310.85945                  23442748.5964
        15.2504         10.2504
  23208661.2914   10968684.20047   8521946.79646                  23208667.4794
        21.5004         22.5004
  25188743.0184      66507.80045     50773.72645                  25188755.3144
        10.7504          5.5004
  21954535.6664   -1805503.92447  -1406878.94947                  21954539.6744
        27.5004         38.7504
  21738306.3544  -10789406.41447  -8360721.73547                  21738312.1664
        27.7504         36.2504
 00  5 16 16  2 45.0020000  0  7G 2G 4G 5G 7G16G 9G24
  23984624.3774   10919011.48246   4346640.27545                  23984633.9084
        14.0004          9.0004
  21017636.3464   -2372929.97548  -1832353.67947                  21017640.4474
        28.0004         38.2504
  23437405.7134   -7089992.53246  -1920170.30745                  23437411.5844
        14.0004         10.7504
  23216875.3854   11011849.46147   8555581.99446                  23216880.6934
        23.5004         23.2504
  25189460.6974      70280.54745     53713.55445                  25189473.7214
         9.7504          5.2504
  21957871.8224   -1787972.71047  -1393218.27547                  21957875.9004
        27.5004         39.0004
  21734516.8074  -10809319.69347  -8376238.54847                  21734522.5724
        27.7504         35.7504
 00  5 16 16  3  0.0020000  0  7G 2G 4G 5G 7G16G 9G24
  23994014.0574   10968355.50446   4385090.00645                  23994023.2604
        13.0004          8.2504
  21020928.7914   -2355628.13848  -1818871.72847                  21020932.7644
        28.2504         38.5004
  23432068.8144   -7118036.59546  -1942022.74045                  23432074.7794
        13.7504          9.7504
  23225089.9474   11055016.69047   8589218.74046                  23225095.5614
        24.0004         22.2504
  25190198.1584      74159.19345     56735.91045                  25190212.0374
         8.5004          5.2504
  21961232.4794   -1770312.29147  -1379456.92247                  21961236.7564
        27.5004         38.5004
  21730747.0884  -10829131.11747  -8391675.99447                  21730752.7134
        27.7504         36.2504
 00  5 16 16  3 15.0020000  0  7G 2G 4G 5G 7G16G 9G24
  24003415.5184   11017761.05746   4423587.68645                  24003425.5414
        13.2504          9.0004
  21024248.6744   -2338182.87348  -1805278.02047                  21024252.7404
        28.5004         38.5004
  23426734.9634   -7146065.59046  -1963863.49945                  23426740.1894
        14.7504          9.2504
  23233306.2134   11098191.65947   8622861.52146                  23233312.1544
        23.7504         22.5004
  25190957.9554      78149.88145     59845.57345                  25190972.5724
         8.5004          5.5004
  21964618.8144   -1752516.86047  -1365590.37047                  21964623.2684
        27.0004         38.5004
  21726997.5644  -10848834.62947  -8407029.34847                  21727003.3894
        27.5004         36.0004
 00  5 16 16  3 30.0020000  0  7G 2G 4G 5G 7G16G 9G24
  24012829.0964   11067227.16146   4462132.53545                  24012838.8144
        13.5004          9.0004
  21027595.3694   -2320595.13748  -1791573.29847                  21027599.3184
        28.7504         38.2504
  23421404.2214   -7174080.17846  -1985693.06645                  23421408.6624
        14.7504          9.5004
  23241523.1114   11141373.43747   8656509.60846                  23241528.9364
        22.2504         22.5004
  25191738.2214      82251.96745     63042.04745                  25191752.6624
         9.2504          5.7504
  21968030.6664   -1734587.44247  -1351619.41347                  21968035.1194
        27.0004         38.0004
  21723268.2994  -10868430.98447  -8422299.20947                  21723273.9824
        27.5004         36.2504
 00  5 16 16  3 45.0020000  0  7G 2G 4G 5G 7G16G 9G24
  24022253.1504   11116751.59146   4500722.84145                  24022263.3504
        13.5004          9.0004
  21030968.8074   -2302867.34248  -1777759.43247                  21030972.6504
        29.0004         38.5004
  23416075.3384   -7202082.37846  -2007512.93545                  23416080.8574
        14.2504         10.2504
  23249741.1354   11184559.71747   8690161.20046                  23249746.7014
        23.0004         22.2504
  25192539.7754      86463.18245     66323.55645                  25192553.4904
         9.7504          5.7504
  21971467.5334   -1716526.16347  -1337545.71047                  21971471.9514
        26.7504         37.5004
  21719559.3614  -10887922.04347  -8437487.01547                  21719565.1044
        27.7504         36.0004
 00  5 16 16  4  0.0020000  0  7G 2G 4G 5G 7G16G 9G24
  24031687.0644   11166325.37646   4539351.60945                  24031696.7254
        13.2504          8.7504
  21034367.4554   -2285008.59648  -1763843.53147                  21034371.3224
        28.5004         38.5004
  23410747.5574   -7230080.96646  -2029329.95545                  23410753.4634
        14.7504         11.0004
  23257958.7294   11227741.45847   8723809.24646                  23257964.3774
        24.2504         22.2504
  25193360.7054      90775.11545     69683.55345                  25193374.5494
        10.7504          6.2504
  21974927.8384   -1698342.10947  -1323376.32747                  21974932.2564
        26.7504         37.5004
  21715868.6194  -10907316.63147  -8452599.65147                  21715874.5494
        27.5004         36.2504
 00  5 16 16  4 15.0020000  0  7G 2G 4G 5G 7G16G 9G24
  24041130.5104   11215951.83446   4578021.42245                  24041140.2054
        13.7504          7.7504
  21037791.3074   -2267015.64148  -1749823.05347                  21037795.1504
        28.5004         38.5004
  23405420.8464   -7258072.30046  -2051141.36445                  23405426.5534
        15.2504         10.2504
  23266175.5804   11270921.94247   8757456.32146                  23266181.7684
        23.0004         22.7504
  25194201.1584      95191.10345     73124.63445                  25194214.7914
        11.7504          6.5004
  21978412.1274   -1680032.01947  -1309108.73947                  21978416.6154
        27.0004         37.2504
  21712196.9004  -10926611.09847  -8467634.26747                  21712202.7834
        27.5004         36.5004
 00  5 16 16  4 30.0020000  0  7G 2G 4G 5G 7G16G 9G24
  24050586.0574   11265637.69246   4616737.53245                  24050596.4904
        13.0004          8.2504
  21041242.0804   -2248881.73548  -1735692.74047                  21041245.9474
        28.5004         38.5004
  23400097.1894   -7286049.48946  -2072941.77645                  23400102.1114
        14.7504         10.0004
  23274393.5104   11314107.89247   8791107.65046                  23274399.3114
        22.7504         22.0004
  25195062.4474      99718.23045     76652.31045                  25195075.0024
        11.2504          5.5004
  21981921.6894   -1661589.09347  -1294737.64147                  21981926.0494
        26.7504         37.7504
  21708545.6044  -10945798.53547  -8482585.48747                  21708551.5104
        27.5004         36.0004
 00  5 16 16  4 45.0020000  0  7G 2G 4G 5G 7G16G 9G24
  24060050.9394   11315377.82146   4655495.89645                  24060061.2564
        13.0004          8.7504
  21044718.9084   -2230611.94148  -1721456.54347                  21044722.7994
        28.7504         38.7504
  23394774.5024   -7314017.43846  -2094734.96145                  23394779.8694
        14.5004         10.5004
  23282611.7914   11357294.15747   8824759.22446                  23282617.5574
        23.7504         22.5004
  25195944.1584     104351.70145     80262.85445                  25195956.8184
        11.7504          6.0004
  21985455.6744   -1643018.52147  -1280267.07847                  21985459.8224
        27.0004         37.5004
  21704913.8074  -10964883.63847  -8497456.96647                  21704919.7484
        27.5004         36.2504
 00  5 16 16  5  0.0020000  0  7G 2G 4G 5G 7G16G 9G24
  24069527.7754   11365179.42946   4694302.17845                  24069537.7874
        13.2504          8.0004
  21048222.6664   -2212199.24948  -1707108.99547                  21048226.5104
        29.0004         38.7504
  23389456.1354   -7341968.57346  -2116515.01645                  23389462.1004
        15.2504         11.5004
  23290831.3464   11400488.04847   8858416.76446                  23290837.5924
        22.2504         22.5004
  25196847.5964     109098.77745     83961.90445                  25196859.9984
        11.7504          5.2504
  21989015.1194   -1624313.06047  -1265691.40947                  21989019.1394
        27.2504         38.0004
  21701303.0724  -10983859.15047  -8512243.05047                  21701308.9084
        27.5004         36.7504
 00  5 16 16  5 15.0020000  0  7G 2G 4G 5G 7G16G 9G24
  24079016.9474   11415043.99546   4733157.53445                  24079027.8384
        12.5004          8.2504
  21051753.9394   -2193642.04248  -1692648.83847                  21051757.9594
        29.0004         38.7504
  23384140.3144   -7369901.20146  -2138280.67845                  23384145.9984
        15.2504         11.0004
  23299052.5574   11443690.95547   8892081.29946                  23299058.2874
        22.0004         21.7504
  25197772.6434     113961.46445     87751.06545                  25197785.1864
        11.0004          5.0004
  21992600.6114   -1605471.27347  -1251009.51347                  21992604.4204
        27.5004         38.0004
  21697713.2754  -11002723.00347  -8526942.12847                  21697719.1704
        27.5004         36.7504
 00  5 16 16  5 30.0020000  0  7G 2G 4G 5G 7G16G 9G24
  24088516.7364   11464965.33446   4772057.10445                  24088527.5454
        12.0004          8.0004
  21055311.3774   -2174946.67548  -1678081.02247                  21055315.3614
        28.2504         38.2504
  23378827.4244   -7397821.23246  -2160036.54445                  23378832.0414
        15.5004         10.2504
  23307274.7994   11486896.65447   8925748.00946                  23307279.9904
        25.0004         22.0004
  25198718.6824     118933.61345     91625.51844                  25198730.9084
        11.0004          4.0004
  21996210.9714   -1586499.36847  -1236226.22647                  21996214.7444
        27.5004         38.2504
  21694143.5884  -11021481.26847  -8541558.93147                  21694149.5294
        27.5004         37.0004
 00  5 16 16  5 45.0020000  0  7G 2G 4G 5G 7G16G 9G24
  24098030.2684   11514956.27546   4811010.89945                  24098040.5964
        13.7504          8.7504
  21058897.7054   -2156100.30948  -1663395.54847                  21058901.7134
        28.0004         38.2504
  23373519.5884   -7425715.55546  -2181772.36445                  23373524.8964
        15.7504         11.5004
  23315499.3074   11530117.98047   8959426.91646                  23315505.1894
        23.2504         21.5004
  25199688.0884     124028.49145     95595.63744                  25199699.7524
        10.0004          4.2504
  21999848.4864   -1567384.44847  -1221331.50047                  21999852.2714
        27.5004         37.7504
  21690596.7604  -11040120.93647  -8556083.31847                  21690602.6894
        27.7504         36.7504
 00  5 16 16  6  0.0020000  0  7G 2G 4G 5G 7G16G 9G24
  24107555.8224   11565012.60046   4850015.68245                  24107565.7994
        13.5004          8.2504
  21062512.1584   -2137107.22448  -1648595.74647                  21062516.3074
        28.0004         38.2504
  23368215.6664   -7453588.17446  -2203491.25146                  23368221.3264
        15.7504         12.0004
  23323726.1824   11573350.68147   8993114.67846                  23323732.3574
        21.0004         21.5004
  25200679.9244     129241.94045     99658.12343                  25200690.8504
         9.7504          3.2504
  22003512.3544   -1548130.80647  -1206328.67247                  22003516.1744
        27.5004         38.2504
  21687071.7444  -11058645.80147  -8570518.25247                  21687077.5924
        27.7504         37.5004
 00  5 16 16  6 15.0020000  0  7G 2G 4G 5G 7G16G 9G24
  24117093.1584   11615133.87646   4889071.06545                  24117103.7444
        12.5004          8.0004
  21066154.2214   -2117967.78448  -1633681.90347                  21066158.3464
        28.0004         38.7504
  23362915.4944   -7481439.14146  -2225193.27045                  23362920.8854
        15.5004         11.0004
  23331955.3464   11616594.38247   9026810.99246                  23331960.4084
        24.2504         21.7504
  25201694.6354     134573.98445    103813.01443                  25201705.7014
         9.5004          3.2504
  22007202.5254   -1528738.73947  -1191217.98847                  22007206.4864
        27.7504         38.5004
  21683568.0884  -11077056.04347  -8584863.87047                  21683573.9124
        27.5004         37.7504
 00  5 16 16  6 30.0020000  0  7G 2G 4G 5G 7G16G 9G24
  24126643.3694   11665317.20846   4928174.77445                  24126654.1434
        12.7504          8.5004
  21069823.6744   -2098685.10448  -1618656.44447                  21069827.6234
        28.5004         38.2504
  23357619.1584   -7509271.20546  -2246880.59945                  23357624.2444
        15.0004         10.5004
  23340185.9084   11659846.12347   9060513.59646                  23340192.0144
        22.2504         21.0004
  25202731.0724     140021.90245    108058.26743                  25202742.1274
         9.2504          3.0004
  22010918.5724   -1509211.28748  -1176001.80647                  22010922.3934
        28.0004         38.5004
  21680086.0884  -11095354.35547  -8599122.26647                  21680091.9714
        27.7504         37.7504
 00  5 16 16  6 45.0020000  0  7G 2G 4G 5G 7G16G 9G24
  24136205.1744   11715564.55646   4967328.38145                  24136215.8184
        13.7504          9.0004
  21073520.5804   -2079257.22248  -1603517.83647                  21073524.6234
        28.5004         38.0004
  23352327.1114   -7537082.01746  -2268551.34145                  23352332.4434
        15.7504         11.7504
  23348418.3144   11703107.93147   9094224.01846                  23348424.3144
        22.7504         21.5004
  25203790.7754     145587.93245    112395.47944                  25203800.4004
        10.2504          3.5004
  22014660.6974   -1489546.39448  -1160678.53047                  22014664.4714
        28.0004         38.0004
  21676625.7604  -11113538.31347  -8613291.55947                  21676631.6664
        27.5004         37.7504
 00  5 16 16  7  0.0020000  0  7G 2G 4G 5G 7G16G 9G24
  24145779.1974   11765877.91546   5006533.45745                  24145789.9364
        13.7504          8.7504
  21077245.7294   -2059682.12748  -1588264.51947                  21077249.9244
        28.2504         38.2504
  23347039.3774   -7564869.29846  -2290203.73446                  23347044.6504
        16.2504         12.7504
  23356652.8384   11746381.70647   9127943.79246                  23356658.8504
        21.7504         21.2504
  25204873.0024     151274.40545    116826.58143                  25204883.5414
        10.2504          3.2504
  22018429.4554   -1469742.15248  -1145246.66847                  22018433.4164
        28.0004         39.0004
  21673187.6194  -11131605.81747  -8627370.10347                  21673193.4794
        27.7504         37.7504
 00  5 16 16  7 15.0020000  0  7G 2G 4G 5G 7G16G 9G24
  24155366.9084   11816261.89046   5045793.53245                  24155377.5884
        13.0004          8.5004
  21080999.4944   -2039955.35948  -1572893.02247                  21081003.6544
        28.2504         38.5004
  23341756.9474   -7592628.30646  -2311834.11245                  23341761.9864
        15.2504         10.7504
  23364891.0104   11789672.09447   9161676.47946                  23364896.7054
        23.5004         21.0004
  25205978.4714     157085.84545    121355.04244                  25205988.8694
        10.5004          3.5004
  22022225.4084   -1449793.99048  -1129702.66748                  22022229.4044
        28.2504         39.5004
  21669772.5104  -11149552.08448  -8641354.18447                  21669778.2524
        28.0004         38.0004
 00  5 16 16  7 30.0020000  0  7G 2G 4G 5G 7G16G 9G24
  24164971.3464   11866728.80246   5085118.25045                  24164982.1194
        13.5004          9.2504
  21084784.6894   -2020064.56248  -1557393.70547                  21084788.7914
        28.2504         38.2504
  23336482.4324   -7620346.43746  -2333432.65145                  23336487.1434
        16.2504         11.0004
  23373134.5804   11832991.38647   9195431.71846                  23373140.5804
        22.7504         20.7504
  25207111.2604     163035.18645    125990.91844                  25207123.6154
        10.7504          4.0004
  22026051.2294   -1429689.56748  -1114036.89747                  22026055.0374
        28.2504         38.5004
  21666382.9554  -11167364.35248  -8655233.84247                  21666388.7214
        28.0004         37.7504
 00  5 16 16  7 45.0020000  0  7G 2G 4G 5G 7G16G 9G24
  24174586.9244   11917258.56946   5124491.94645                  24174597.4394
        13.2504          9.2504
  21088597.2364   -2000029.94448  -1541782.32447                  21088601.3384
        28.5004         38.7504
  23331212.0254   -7648043.48246  -2355014.74946                  23331217.4754
        16.2504         12.7504
  23381379.5724   11876319.51247   9229193.82846                  23381385.6314
        21.7504         21.0004
  25208265.5184     169102.17945    130718.46844                  25208277.3934
        11.2504          4.2504
  22029902.8384   -1409449.07748  -1098265.10747                  22029906.6934
        28.0004         39.0004
  21663015.1274  -11185062.52148  -8669024.59547                  21663020.9044
        28.5004         38.0004
 00  5 16 16  8  0.0020000  0  7G 2G 4G 5G 7G16G 9G24
  24184215.9794   11967860.45046   5163921.83345                  24184226.8814
        12.7504          8.7504
  21092438.6584   -1979842.34648  -1526051.73347                  21092442.4794
        28.5004         38.2504
  23325946.7754   -7675709.92746  -2376572.98845                  23325952.4004
        14.7504         11.5004
  23389628.0644   11919665.76547   9262970.05146                  23389633.8654
        23.5004         21.0004
  25209443.7834     175296.65045    135545.35145                  25209455.3424
        10.5004          4.5004
  22033781.9864   -1389063.29847  -1082380.10247                  22033785.9474
        27.7504         38.5004
  21659670.9394  -11202637.00548  -8682718.97447                  21659676.5414
        28.5004         37.7504
 00  5 16 16  8 15.0020000  0  7G 2G 4G 5G 7G16G 9G24
  24193856.9634   12018524.85246   5203400.42745                  24193867.7954
        12.2504          8.0004
  21096307.6274   -1959511.39548  -1510209.44147                  21096311.5884
        28.2504         38.5004
  23320686.4004   -7703355.13646  -2398114.68745                  23320691.2524
        16.2504         11.5004
  23397878.4324   11963020.49947   9296752.89446                  23397884.1624
        23.5004         20.2504
  25210644.9004     181609.18545    140464.26644                  25210657.0804
        10.2504          4.2504
  22037687.1584   -1368541.84147  -1066389.37047                  22037691.1074
        27.2504         38.2504
  21656348.2994  -11220097.17948  -8696324.27947                  21656353.9004
        28.5004         38.5004
 00  5 16 16  8 30.0020000  0  7G 2G 4G 5G 7G16G 9G24
  24203510.3694   12069250.77246   5242926.98445                  24203521.2134
        13.2504          8.2504
  21100203.4004   -1939038.06348  -1494256.20447                  21100207.3264
        28.2504         38.5004
  23315429.6114   -7730979.73146  -2419640.35446                  23315434.5334
        16.2504         12.5004
  23406129.9714   12006382.67047   9330541.55546                  23406136.1934
        20.5004         20.5004
  25211868.4864     188039.13245    145474.63844                  25211879.7294
         9.7504          4.0004
  22041617.8774   -1347885.66147  -1050293.66147                  22041621.9084
        27.2504         38.2504
  21653047.1044  -11237443.77848  -8709841.08347                  21653052.6234
        28.5004         38.0004
 00  5 16 16  8 45.0020000  0  7G 2G 4G 5G 7G16G 9G24
  24213176.6974   12120050.61346   5282511.13445                  24213186.9794
        12.5004          8.0004
  21104128.7914   -1918410.14548  -1478182.51247                  21104132.7294
        28.5004         38.7504
  23310178.5254   -7758571.11646  -2441140.09945                  23310184.3614
        15.0004         11.5004
  23414385.0724   12049764.70847   9364345.65146                  23414390.8734
        22.7504         19.7504
  25213116.8224     194598.97645    150586.25944                  25213129.2134
         9.2504          4.2504
  22045576.7754   -1327082.30047  -1034083.27047                  22045580.9714
        27.2504         38.2504
  21649770.2524  -11254664.06448  -8723259.46447                  21649775.6664
        28.5004         38.0004
 00  5 16 16  9  0.0020000  0  7G 2G 4G 5G 7G16G 9G24
  24222857.5334   12170919.99445   5322149.46745                  24222868.5184
        11.7504          8.2504
  21108082.6894   -1897632.02548  -1461991.78047                  21108086.7794
        28.5004         38.5004
  23304934.2214   -7786133.34746  -2462617.11445                  23304939.2604
        16.5004         11.5004
  23422643.6894   12093162.23647   9398161.84946                  23422650.2404
        23.2504         21.0004
  25214388.8774     201284.59945    155795.88444                  25214402.2294
         8.7504          3.7504
  22049562.4714   -1306136.32447  -1017761.74347                  22049566.6314
        26.7504         37.7504
  21646516.6584  -11271762.29148  -8736582.72847                  21646522.1784
        28.7504         37.7504
 00  5 16 16  9 15.0020000  0  7G 2G 4G 5G 7G16G 9G24
  24232550.1194   12221857.45946   5361840.82945                  24232562.2644
        12.0004          8.0004
  21112065.2364   -1876705.24248  -1445685.20647                  21112069.2794
        28.5004         38.2504
  23299694.4244   -7813667.65246  -2484072.44245                  23299698.9124
        16.0004         11.5004
  23430904.3464   12136573.78447   9431988.96546                  23430910.4514
        21.0004         19.5004
  25215684.3304     208094.69745    161102.49145                  25215697.2014
         9.2504          4.7504
  22053575.2294   -1285049.17447  -1001330.21347                  22053579.5884
        27.0004         37.2504
  21643286.0024  -11288739.58148  -8749811.76147                  21643291.5104
        28.5004         37.7504
 00  5 16 16  9 30.0020000  0  7G 2G 4G 5G 7G16G 9G24
  24242256.5644   12272861.19246   5401583.83045                  24242267.7134
        12.5004          8.2504
  21116075.3144   -1855631.60448  -1429264.20247                  21116079.1934
        28.5004         38.2504
  23294459.7994   -7841175.60946  -2505507.18945                  23294465.8934
        15.0004         11.5004
  23439168.1504   12179997.56647   9465825.58346                  23439174.1154
        23.0004         19.7504
  25217004.3144     215027.82745    166504.98545                  25217017.2444
         9.7504          4.5004
  22057614.4394   -1263822.73647   -984790.15047                  22057618.8224
        26.5004         37.2504
  21640077.9864  -11305597.57648  -8762947.83947                  21640083.3894
        28.5004         37.7504
 00  5 16 16  9 45.0020000  0  7G 2G 4G 5G 7G16G 9G24
  24251975.4474   12323932.04246   5441379.18345                  24251986.2684
        13.0004          8.2504
  21120113.5104   -1834410.44848  -1412728.24747                  21120117.4714
        28.5004         38.2504
  23289230.3934   -7868656.07646  -2526920.49046                  23289236.1704
        16.2504         12.2504
  23447433.6274   12223434.36047   9499672.38846                  23447439.6154
        21.7504         19.7504
  25218347.3384     222084.90945    172004.05045                  25218359.2604
        10.0004          5.0004
  22061680.4164   -1242456.19947   -968140.91747                  22061684.8464
        26.7504         37.0004
  21636892.9944  -11322335.15148  -8775990.07947                  21636898.5254
        28.7504         37.7504
 00  5 16 16 10  0.0020000  0  7G 2G 4G 5G 7G16G 9G24
  24261705.8144   12375070.05845   5481226.86645                  24261716.3544
        11.5004          7.7504
  21124179.8464   -1813041.70948  -1396077.29347                  21124183.7954
        28.5004         38.5004
  23284006.0184   -7896108.66846  -2548312.11945                  23284010.6934
        16.0004         11.7504
  23455701.7994   12266884.23447   9533529.35746                  23455707.7404
        22.2504         19.7504
  25219713.8464     229266.43645    177600.08745                  25219727.2564
        10.7504          5.0004
  22065773.0644   -1220949.44947   -951382.43047                  22065777.4004
        26.7504         37.2504
  21633730.9394  -11338951.94548  -8788938.20647                  21633736.3774
        29.2504         37.7504
 00  5 16 16 10 15.0020000  0  7G 2G 4G 5G 7G16G 9G24
  24271451.7914   12426281.83945   5521131.99145                  24271463.9714
        11.7504          8.0004
  21128275.3934   -1791518.92348  -1379306.30647                  21128279.1544
        28.2504         39.0004
  23278788.9634   -7923526.52546  -2569676.67346                  23278794.4004
        16.2504         12.7504
  23463974.2134   12310353.90947   9567401.75146                  23463980.3654
        21.2504         18.7504
  25221105.5024     236579.29845    183298.46345                  25221118.5844
        10.5004          5.5004
  22069893.6434   -1199295.89747   -934509.55747                  22069897.9324
        27.0004         38.0004
  21630593.0414  -11355440.98748  -8801786.78647                  21630598.4904
        29.2504         38.0004
 00  5 16 16 10 30.0020000  0  7G 2G 4G 5G 7G16G 9G24
  24281208.4394   12477555.76345   5561085.53245                  24281219.9754
        11.5004          8.0004
  21132398.3854   -1769853.64648  -1362424.28747                  21132402.2644
        28.0004         37.5004
  23273576.1974   -7950921.04146  -2591023.01946                  23273581.5534
        16.2504         13.2504
  23472247.5334   12353831.59847   9601280.39046                  23472253.4514
        21.7504         19.7504
  25222520.1744     244011.86745    189090.08645                  25222533.1394
        10.5004          5.5004
  22074040.1974   -1177507.24447   -917531.40947                  22074044.2644
        27.0004         37.2504
  21627477.4004  -11371813.81248  -8814544.80947                  21627482.8614
        29.2504         38.2504
 00  5 16 16 10 45.0020000  0  7G 2G 4G 5G 7G16G 9G24
  24290979.6354   12528898.75046   5601092.92745                  24290990.7834
        12.5004          8.2504
  21136549.4394   -1748039.11847  -1345425.96847                  21136553.4004
        27.7504         38.2504
  23268368.5724   -7978285.03946  -2612345.59245                  23268374.2214
        15.5004         11.7504
  23480524.2134   12397324.36247   9635170.79546                  23480530.2134
        21.2504         19.2504
  25223958.2754     251571.43945    194980.71545                  25223971.5924
        10.7504          6.0004
  22078213.2604   -1155576.52447   -900442.55947                  22078217.4084
        27.0004         37.7504
  21624385.2134  -11388063.18248  -8827206.63647                  21624390.5334
        29.2504         38.7504
 00  5 16 16 11  0.0020000  0  7G 2G 4G 5G 7G16G 9G24
  24300763.0254   12580310.88346   5641154.21345                  24300773.6234
        12.5004          8.0004
  21140729.1504   -1726075.28747  -1328311.31047                  21140733.1934
        27.7504         38.0004
  23263167.3384   -8005618.09146  -2633644.06245                  23263171.8384
        16.5004         11.5004
  23488803.4244   12440832.29247   9669072.98746                  23488809.2954
        21.5004         19.5004
  25225420.5804     259258.21045    200970.45945                  25225433.9434
        10.0004          6.0004
  22082413.6194   -1133503.68247   -883242.96547                  22082417.7684
        27.2504         37.7504
  21621316.7364  -11404188.59448  -8839771.86947                  21621321.9514
        29.2504         39.0004
 00  5 16 16 11 15.0020000  0  7G 2G 4G 5G 7G16G 9G24
  24310558.1664   12631786.21946   5681264.71745                  24310569.6894
        12.0004          7.7504
  21144935.9394   -1703968.19047  -1311085.01247                  21144939.9944
        27.7504         37.7504
  23257970.8464   -8032925.73646  -2654922.73946                  23257975.8504
        16.2504         13.0004
  23497084.5024   12484349.48147   9702982.41046                  23497090.4434
        21.7504         18.7504
  25226906.7134     267066.71545    207055.05345                  25226920.1004
         9.0004          5.5004
  22086639.8144   -1111294.72247   -865937.30347                  22086643.9634
        27.5004         37.2504
  21618270.7524  -11420195.87648  -8852245.05647                  21618276.0254
        29.7504         39.2504
 00  5 16 16 11 30.0020000  0  7G 2G 4G 5G 7G16G 9G24
  24320367.5724   12683329.98646   5721428.55045                  24320379.4474
        12.5004          7.7504
  21149170.8694   -1681712.79647  -1293743.15847                  21149175.0534
        27.5004         37.5004
  23252779.8934   -8060202.59546  -2676177.39946                  23252785.5064
        15.7504         12.2504
  23505368.3144   12527881.03347   9736903.03946                  23505374.3614
        21.0004         19.0004
  25228416.7914     275002.24745    213238.59545                  25228430.7404
         8.2504          4.7504
  22090892.8774   -1088944.57447   -848521.62447                  22090896.7214
        27.5004         37.5004
  21615248.0104  -11436079.57048  -8864621.94247                  21615253.4004
        29.2504         39.2504
 00  5 16 16 11 45.0020000  0  7G 2G 4G 5G 7G16G 9G24
  24330187.3694   12734936.40546   5761641.19645                  24330199.0104
        13.0004          8.2504
  21153433.0574   -1659314.71647  -1276290.12447                  21153437.4394
        27.0004         38.2504
  23247594.4244   -8087454.07746  -2697412.30846                  23247599.0064
        17.2504         12.2504
  23513654.0104   12571421.31647   9770830.44146                  23513660.1624
        21.0004         19.0004
  25229948.9244     283059.27645    219516.84244                  25229962.6394
         7.5004          4.0004
  22095171.8304   -1066458.96347   -831000.38447                  22095175.8614
        27.7504         38.0004
  21612247.8224  -11451845.19248  -8876906.81947                  21612253.0144
        29.2504         39.0004
 00  5 16 16 12  0.0020000  0  7G 2G 4G 5G 7G16G 9G24
  24340020.0334   12786607.38745   5801904.16145                  24340031.0184
        11.7504          7.7504
  21157722.8074   -1636772.06547  -1258724.43647                  21157727.1314
        27.2504         38.2504
  23242413.5724   -8114678.00946  -2718625.77346                  23242418.7524
        15.7504         13.0004
  23521941.4864   12614972.13547   9804766.06846                  23521947.5334
        21.7504         18.7504
  25231505.8464     291240.02945    225891.50844                  25231519.8424
         7.7504          4.0004
  22099476.8384   -1043835.98747   -813372.11547                  22099480.9634
        27.5004         37.7504
  21609270.5804  -11467490.59948  -8889098.02947                  21609275.9004
        29.0004         38.5004
 00  5 16 16 12 15.0020000  0  7G 2G 4G 5G 7G16G 9G24
  24349866.6824   12838350.11746   5842223.04145                  24349877.7484
        12.5004          7.7504
  21162041.4794   -1614077.99247  -1241040.76247                  21162045.6864
        27.5004         37.2504
  23237240.0334   -8141866.95146  -2739811.88746                  23237245.9864
        16.5004         13.5004
  23530232.1664   12658540.77147   9838715.58346                  23530238.1894
        21.0004         18.0004
  25233087.5724     299551.87245    232368.30144                  25233102.2604
         7.7504          3.7504
  22103809.5334   -1021068.51047   -795631.24047                  22103813.5884
        27.5004         37.5004
  21606317.6434  -11483008.22748  -8901189.66447                  21606323.0214
        29.0004         38.7504
 00  5 16 16 12 30.0020000  0  7G 2G 4G 5G 7G16G 9G24
  24359724.2604   12890156.18745   5882591.27345                  24359736.2054
        11.7504          7.5004
  21166387.2214   -1591240.73247  -1223245.50247                  21166391.3224
        27.7504         38.0004
  23232071.5644   -8169028.89346  -2760977.03346                  23232075.9944
        17.5004         12.7504
  23538524.8854   12702118.89447   9872672.47746                  23538531.1664
        21.0004         18.7504
  25234692.7134     307986.59545    238940.83344                  25234705.1504
         8.5004          4.2504
  22108167.6824    -998164.90647   -777784.30647                  22108171.8074
        27.5004         37.7504
  21603387.4714  -11498406.22048  -8913188.08347                  21603393.0254
        28.7504         38.5004
 00  5 16 16 12 45.0020000  0  7G 2G 4G 5G 7G16G 9G24
  24369596.2524   12942029.44746   5923011.84745                  24369607.7524
        12.0004          7.2504
  21170760.9634   -1568256.64347  -1205335.84147                  21170765.2994
        27.7504         38.7504
  23226908.2524   -8196159.76146  -2782117.97746                  23226913.3034
        16.2504         12.2504
  23546820.0884   12745710.36547   9906639.77346                  23546825.9004
        21.5004         18.5004
  25236322.4554     316548.49145    245612.45845                  25236335.2684
         9.5004          4.5004
  22112552.8614    -975121.38847   -759828.33747                  22112556.9864
        27.5004         38.7504
  21600480.9004  -11513680.53448  -8925090.12347                  21600486.4324
        28.5004         38.2504
 00  5 16 16 13  0.0020000  0  7G 2G 4G 5G 7G16G 9G24
  24379481.3614   12993975.77345   5963489.37445                  24379492.4864
        11.7504          7.2504
  21175163.6974   -1545119.83347  -1187307.16847                  21175167.9514
        27.5004         37.2504
  23221752.7994   -8223253.40946  -2803229.87846                  23221758.2604
        17.5004         14.7504
  23555119.1114   12789320.95647   9940621.97446                  23555125.1234
        20.5004         18.5004
  25237977.1114     325243.54645    252387.85245                  25237989.6314
        10.5004          5.0004
  22116965.5414    -951932.15347   -741758.83247                  22116969.7254
        27.2504         37.5004
  21597599.0964  -11528825.02848  -8936891.00947                  21597604.4634
        28.5004         38.5004
 00  5 16 16 13 15.0020000  0  7G 2G 4G 5G 7G16G 9G24
  24389377.5024   13045979.39446   6004011.52945                  24389389.0494
        12.0004          7.2504
  21179592.5254   -1521846.14547  -1169171.84547                  21179596.8144
        27.0004         38.2504
  23216600.9004   -8250325.26046  -2824324.80346                  23216606.4324
        16.2504         12.7504
  23563418.5574   12832934.99647   9974606.85446                  23563424.6044
        20.5004         17.7504
  25239654.2294     334056.17145    259254.86645                  25239666.9944
        10.7504          5.5004
  22121403.0254    -928613.03947   -723588.11447                  22121407.2914
        27.2504         38.2504
  21594738.7524  -11543855.12048  -8948602.75347                  21594744.0844
        29.0004         38.2504
 00  5 16 16 13 30.0020000  0  7G 2G 4G 5G 7G16G 9G24
  24399285.5804   13098047.59145   6044584.01145                  24399298.1004
        11.7504          7.5004
  21184048.9794   -1498428.52647  -1150924.36547                  21184053.3264
        27.0004         36.7504
  23211454.9474   -8277367.76446  -2845396.87146                  23211459.5064
        16.5004         12.0004
  23571720.2444   12876559.75447  10008600.09846                  23571726.5724
        21.2504         18.7504
  25241354.7604     342993.81645    266219.29845                  25241366.3074
        10.7504          5.2504
  22125866.8544    -905156.72147   -705310.48447                  22125871.0844
        27.0004         36.5004
  21591901.8544  -11558763.37948  -8960219.56147                  21591907.1974
        29.0004         38.5004
 00  5 16 16 13 45.0020000  0  7G 2G 4G 5G 7G16G 9G24
  24409206.7054   13150182.57445   6085208.50845                  24409218.2874
        11.5004          7.5004
  21188533.0024   -1474864.75047  -1132562.99647                  21188537.1624
        27.5004         35.5004
  23206315.2364   -8304378.44246  -2866444.15446                  23206319.8304
        17.5004         14.5004
  23580024.0414   12920197.43146  10042603.39346                  23580030.1704
        19.2504         17.5004
  25243080.6824     352058.96145    273283.08245                  25243092.1354
        11.5004          6.0004
  22130356.9244    -881561.13147   -686924.33747                  22130361.1194
        27.5004         35.7504
  21589088.4394  -11573547.41548  -8971739.57447                  21589093.6894
        29.0004         38.5004
 00  5 16 16 14  0.0020000  0  7G 2G 4G 5G 7G16G 9G24
  24419141.3694   13202384.92246   6125885.52345                  24419153.3734
        12.7504          6.5004
  21193044.9004   -1451154.33947  -1114087.36748                  21193049.0614
        27.7504         40.2504
  23201180.8774   -8331356.40046  -2887465.90546                  23201186.6434
        15.0004         13.0004
  23588330.9084   12963848.62847  10076617.22446                  23588336.7444
        21.0004         17.5004
  25244830.0254     361252.55246    280446.96945                  25244841.7954
        12.0004          5.5004
  22134873.6744    -857825.65347   -668429.18248                  22134877.8464
        27.5004         40.0004
  21586299.0334  -11588206.23248  -8983162.01447                  21586304.2254
        28.5004         38.5004
 00  5 16 16 14 15.0020000  0  7G 2G 4G 5G 7G16G 9G24
  24429087.8144   13254656.61146   6166616.56445                  24429099.1624
        12.2504          7.2504
  21197585.0414   -1427295.44747  -1095496.04247                  21197589.2604
        27.5004         37.0004
  23196054.2524   -8358299.38946  -2908460.40746                  23196059.3504
        17.7504         13.5004
  23596640.6194   13007515.40646  10110643.21446                  23596646.7834
        19.7504         18.0004
  25246603.8144     370576.49545    287712.44745                  25246616.0294
        10.7504          5.2504
  22139417.2604    -833948.35647   -649823.51947                  22139421.3504
        27.7504         38.0004
  21583533.8854  -11602737.82748  -8994485.31447                  21583539.1824
        28.5004         38.0004
 00  5 16 16 14 30.0020000  0  7G 2G 4G 5G 7G16G 9G24
  24439046.7834   13306993.28745   6207398.24445                  24439058.5414
        11.0004          6.7504
  21202152.7364   -1403292.31247  -1076792.28948                  21202156.6504
        27.5004         41.7504
  23190933.0804   -8385211.28446  -2929430.73646                  23190937.8144
        17.2504         14.7504
  23604952.1824   13051193.53046  10144678.00846                  23604959.0144
        19.7504         18.2504
  25248401.7604     380026.94545    295076.49545                  25248413.5064
        10.2504          5.5004
  22143987.3544    -809933.61347   -631110.78348                  22143991.5254
        27.7504         42.0004
  21580792.0494  -11617146.00048  -9005712.44747                  21580797.4044
        28.5004         38.5004
 00  5 16 16 14 45.0020000  0  7G 2G 4G 5G 7G16G 9G24
  24449020.2134   13359398.51245   6248233.32245                  24449033.5184
        10.5004          6.7504
  21206748.6504   -1379141.61847  -1057973.62448                  21206753.1744
        27.0004         44.5004
  23185818.3074   -8412088.41946  -2950373.91846                  23185824.1784
        16.7504         13.7504
  23613266.8694   13094886.46447  10178724.37846                  23613272.8814
        21.0004         17.2504
  25250224.7684     389607.57145    302541.98645                  25250237.1824
         9.7504          4.7504
  22148583.9864    -785777.96947   -612288.18648                  22148587.7834
        27.7504         45.5004
  21578074.2604  -11631427.12548  -9016840.57947                  21578079.7564
        28.2504         37.7504
 00  5 16 16 15  0.0020000  0  7G 2G 4G 5G 7G16G 9G24
  24459004.5884   13411865.97245   6289116.88045                  24459017.4004
        11.5004          6.7504
  21211371.0884   -1354849.63147  -1039044.84248                  21211375.5184
        27.0004         47.0004
  23180709.4474   -8438936.73746  -2971294.66646                  23180713.9594
        18.2504         14.2504
  23621582.7524   13138587.89946  10212777.37946                  23621589.1274
        19.0004         17.5004
  25252071.7754     399312.43445    310104.27045                  25252085.6194
         9.2504          4.7504
  22153206.1584    -761487.81447   -593360.79548                  22153210.1074
        27.7504         47.5004
  21575379.7364  -11645587.22148  -9027874.40447                  21575385.2214
        28.2504         37.5004
 00  5 16 16 15 15.0020000  0  7G 2G 4G 5G 7G16G 9G24
  24469000.9944   13464398.80846   6330051.41145                  24469012.6354
        12.2504          6.7504
  21216021.1974   -1330413.28747  -1020003.49447                  21216025.4514
        27.0004         33.2504
  23175606.1194   -8465752.87646  -2992190.37246                  23175611.3694
        15.7504         13.2504
  23629901.4944   13182301.08147  10246839.49146                  23629907.9164
        21.7504         17.7504
  25253942.1974     409144.65945    317765.78545                  25253955.0454
         9.0004          4.7504
  22157854.8074    -737060.04648   -574326.24647                  22157858.7684
        28.2504         35.2504
  21572708.8544  -11659622.93948  -9038811.30947                  21572714.2914
        28.2504         37.7504
 00  5 16 16 15 30.0030000  0  7G 2G 4G 5G 7G16G 9G24
  24479010.2804   13517001.17945   6371040.13845                  24479021.1834
        11.0004          5.7504
  21220699.0544   -1305830.45547  -1000848.07748                  21220703.2844
        27.2504         40.0004
  23170509.2184   -8492537.56946  -3013061.51346                  23170514.9604
        17.2504         13.7504
  23638222.8904   13226029.69846  10280913.65546                  23638229.0074
        19.5004         17.0004
  25255838.0224     419105.95545    325527.90044                  25255850.6014
         9.0004          4.2504
  22162529.8824    -712492.29648   -555182.55248                  22162534.0774
        28.0004         41.2504
  21570061.6794  -11673534.21648  -9049651.25247                  21570067.1634
        28.2504         37.7504
 00  5 16 16 15 45.0030000  0  7G 2G 4G 5G 7G16G 9G24
  24489031.9054   13569667.23745   6412078.45145                  24489044.5304
         9.7504          5.5004
  21225404.4444   -1281103.40547   -981580.24147                  21225408.5584
        27.5004         35.2504
  23165419.4054   -8519285.80546  -3033904.29346                  23165424.0934
        17.7504         14.7504
  23646545.7884   13269768.87746  10314996.06446                  23646552.2694
        19.7504         17.5004
  25257758.1554     429196.22945    333390.48544                  25257769.3864
         9.5004          3.7504
  22167231.1874    -687786.75148   -535931.51747                  22167235.3234
        28.0004         37.0004
  21567438.5304  -11687317.96948  -9060391.82347                  21567444.0264
        28.2504         37.7504
 00  5 16 16 16  0.0030000  0  7G 2G 4G 5G 7G16G 9G24
  24499066.6794   13622395.22245   6453165.02045                  24499079.0694
        10.2504          5.7504
  21230136.7494   -1256235.82247   -962202.92147                  21230140.9214
        27.0004         36.7504
  23160334.6944   -8546004.19746  -3054723.81746                  23160340.4374
        16.5004         13.0004
  23654871.2414   13313516.51647  10349085.02446                  23654877.6044
        20.5004         17.0004
  25259701.8274     439411.36145    341350.35944                  25259713.4914
        10.2504          4.0004
  22171958.0934    -662947.03948   -516575.92247                  22171962.3354
        28.2504         38.7504
  21564838.8744  -11700979.81648  -9071037.40047                  21564844.2884
        28.5004         38.0004
 00  5 16 16 16 15.0030000  0  7G 2G 4G 5G 7G16G 9G24
  24509113.4524   13675183.61445   6494298.68445                  24509126.1474
        11.7504          6.2504
  21234895.4214   -1231229.05847   -942717.14547                  21234899.5694
        27.0004         36.7504
  23155256.3514   -8572694.03546  -3075521.05546                  23155261.5304
        18.2504         15.2504
  23663196.9914   13357271.07346  10383179.41346                  23663203.4484
        18.7504         17.2504
  25261669.5774     449749.87745    349406.41344                  25261680.1984
        11.0004          3.5004
  22176710.2334    -637974.79948   -497117.04647                  22176714.4174
        28.2504         38.0004
  21562261.8974  -11714521.23948  -9081589.14847                  21562267.2654
        28.2504         38.0004
 00  5 16 16 16 30.0030000  0  7G 2G 4G 5G 7G16G 9G24
  24519169.5384   13728032.49145   6535479.45445                  24519181.6364
        11.7504          6.2504
  21239680.2334   -1206083.38047   -923123.11247                  21239684.5584
        26.7504         37.2504
  23150183.0384   -8599355.01246  -3096295.84246                  23150187.8544
        17.7504         15.2504
  23671524.6794   13401032.66547  10417279.25446                  23671531.1944
        21.0004         17.2504
  25263660.4134     460212.17845    357558.88744                  25263671.3864
        11.2504          3.7504
  22181487.4374    -612869.98048   -477554.88447                  22181491.5734
        28.5004         39.0004
  21559708.0224  -11727941.79348  -9092046.70547                  21559713.3314
        28.5004         38.2504
 00  5 16 16 16 45.0030000  0  7G 2G 4G 5G 7G16G 9G24
  24529237.9764   13780943.43045   6576708.59845                  24529249.6164
        10.7504          5.7504
  21244491.9994   -1180797.24447   -903419.64347                  21244496.4174
        26.7504         36.2504
  23145114.7264   -8625985.27146  -3117046.68546                  23145120.1044
        16.5004         13.5004
  23679854.3354   13444802.73946  10451385.72146                  23679860.3824
        19.2504         16.0004
  25265675.5624     470799.91445    365809.10644                  25265685.3044
        11.5004          3.7504
  22186290.1794    -587631.06948   -457888.22447                  22186294.4444
        28.5004         38.5004
  21557177.5384  -11741239.81248  -9102408.78347                  21557182.9174
        28.5004         38.0004
 00  5 16 16 17  0.0030000  0  7G 2G 4G 5G 7G16G 9G24
  24539319.5934   13833919.55845   6617988.54745                  24539332.2654
        10.2504          5.0004
  21249331.2884   -1155367.56347   -883604.31447                  21249335.7654
        27.0004         37.0004
  23140053.9764   -8652581.31246  -3137770.84346                  23140059.2724
        17.7504         14.2504
  23688185.2574   13488584.63747  10485501.40146                  23688191.9254
        20.2504         18.0004
  25267714.5694     481516.50645    374159.73243                  25267724.4764
        10.7504          3.2504
  22191119.1404    -562255.09948   -438114.77047                  22191123.3824
        29.0004         38.7504
  21554671.0154  -11754411.78648  -9112672.64147                  21554676.3474
        28.5004         38.0004
 00  5 16 16 17 15.0030000  0  7G 2G 4G 5G 7G16G 9G24
  24549412.1874   13886957.60145   6659316.72645                  24549424.6714
        10.5004          5.2504
  21254197.0304   -1129797.77847   -863679.81747                  21254201.3194
        27.5004         37.0004
  23134998.6084   -8679146.12846  -3158470.68646                  23135003.9874
        17.0004         14.2504
  23696518.8194   13532375.10047  10519623.73846                  23696524.7024
        20.2504         16.0004
  25269777.2884     492358.90845    382608.39844                  25269789.3394
         9.5004          4.0004
  22195973.5694    -536745.27148   -418237.00547                  22195977.6834
        28.7504         38.7504
  21552187.7574  -11767460.82248  -9122840.70347                  21552193.2654
        28.5004         38.2504
 00  5 16 16 17 30.0030000  0  7G 2G 4G 5G 7G16G 9G24
  24559517.2024   13940063.42245   6700697.71345                  24559529.5114
        10.7504          6.2504
  21259090.6874   -1104082.00147   -843641.56047                  21259094.8124
        27.7504         38.0004
  23129950.6634   -8705673.58946  -3179141.41946                  23129955.7374
        17.7504         14.5004
  23704854.5384   13576179.91846  10553757.29146                  23704862.1014
        18.7504         17.5004
  25271865.1324     503332.98045    391159.66243                  25271878.2724
         8.0004          3.2504
  22200854.7184    -511095.77048   -398250.41248                  22200858.6794
        29.0004         39.7504
  21549729.2104  -11780380.88148  -9132908.26947                  21549734.8704
        28.2504         38.7504
 00  5 16 16 17 45.0030000  0  7G 2G 4G 5G 7G16G 9G24
  24569635.0934   13993229.74545   6742125.86945                  24569648.6204
        10.2504          6.7504
  21264010.8664   -1078227.73348   -823495.38547                  21264014.7804
        28.0004         38.2504
  23124909.0154   -8732170.60046  -3199788.42946                  23124913.9834
        19.0004         16.0004
  23713191.9994   13619991.87347  10587896.37546                  23713197.9294
        20.5004         16.5004
  25273977.4604     514431.87345    399808.22644                  25273991.4794
         7.5004          3.7504
  22205760.8044    -485314.01548   -378160.76048                  22205764.7184
        29.2504         39.7504
  21547293.8044  -11793178.92648  -9142880.75447                  21547299.4764
        28.0004         38.5004
 00  5 16 16 18  0.0030000  0  7G 2G 4G 5G 7G16G 9G24
  24579766.0304   14046466.50245   6783608.85845                  24579779.7334
         9.0004          5.5004
  21268958.6084   -1052225.13647   -803233.62847                  21268962.5934
        27.5004         37.2504
  23119874.1324   -8758626.89546  -3220403.71246                  23119879.3354
        17.7504         15.0004
  23721531.9524   13663820.99047  10622048.86046                  23721538.7374
        20.2504         17.7504
  25276114.3664     525665.69645    408561.91544                  25276128.8194
         7.5004          3.5004
  22210694.0074    -459390.05748   -357960.30747                  22210697.9564
        29.0004         38.7504
  21544883.5154  -11805844.77348  -9152750.23147                  21544889.0934
        28.2504         39.0004
 00  5 16 16 18 15.0030000  0  7G 2G 4G 5G 7G16G 9G24
  24589908.9294   14099764.62145   6825139.67745                  24589922.3044
         9.5004          5.5004
  21273933.4914   -1026083.19647   -782863.29947                  21273937.4874
        27.5004         39.0004
  23114845.7494   -8785051.16146  -3240994.03746                  23114850.6714
        18.0004         15.0004
  23729874.3584   13707658.31346  10656207.71446                  23729880.4644
        18.7504         16.0004
  25278276.1554     537025.73345    417413.92445                  25278289.3784
         7.7504          4.5004
  22215652.4604    -433333.00948   -337656.13848                  22215656.3744
        29.0004         40.2504
  21542496.9134  -11818387.28448  -9162523.59947                  21542502.4094
        29.0004         39.0004
 00  5 16 16 18 30.0030000  0  7G 2G 4G 5G 7G16G 9G24
  24600063.3044   14153124.42845   6866718.58245                  24600076.6904
        10.7504          5.7504
  21278934.8124    -999801.78347   -762384.28547                  21278938.9134
        27.2504         39.0004
  23109823.4764   -8811442.69746  -3261558.86346                  23109828.4914
        17.7504         15.2504
  23738217.9834   13751504.08547  10690373.17146                  23738224.3234
        20.0004         16.2504
  25280462.4374     548512.29245    426364.55845                  25280475.2964
         8.7504          5.2504
  22220636.4524    -407142.55748   -317248.02748                  22220640.3314
        29.0004         39.7504
  21540133.8584  -11830805.78848  -9172200.34147                  21540139.3314
        28.7504         39.2504
 00  5 16 16 18 45.0030000  0  7G 2G 4G 5G 7G16G 9G24
  24610227.9294   14206540.96445   6908341.70645                  24610239.7224
        11.5004          6.2504
  21283961.3354    -973385.90247   -741800.49047                  21283965.2144
        27.5004         37.2504
  23104806.7654   -8837806.22546  -3282101.84246                  23104812.4954
        17.7504         15.0004
  23746562.3744   13795353.52647  10724541.47046                  23746569.1594
        20.2504         16.2504
  25282672.3194     560120.86545    435410.23645                  25282685.1674
         9.7504          5.7504
  22225644.5224    -380823.80548   -296739.93947                  22225648.2494
        29.0004         38.5004
  21537793.2264  -11843105.06648  -9181784.18147                  21537798.6284
        28.5004         39.2504
 00  5 16 16 19  0.0030000  0  7G 2G 4G 5G 7G16G 9G24
  24620402.2724   14260009.06345   6950004.97345                  24620415.4484
        10.2504          6.2504
  21289012.7654    -946840.72147   -721115.93947                  21289016.5974
        27.7504         37.7504
  23099794.5694   -8864146.59746  -3302626.80446                  23099799.3624
        18.7504         15.2504
  23754905.6554   13839201.41046  10758708.58746                  23754911.7964
        17.2504         15.2504
  25284903.6164     571846.33345    444547.00645                  25284916.3354
        11.0004          5.7504
  22230676.3904    -354381.89548   -276135.88647                  22230680.2574
        28.7504         38.7504
  21535474.5074  -11855289.94348  -9191278.87547                  21535479.8394
        28.7504         39.2504
 00  5 16 16 19 15.0030000  0  7G 2G 4G 5G 7G16G 9G24
  24630588.3514   14313537.88245   6991715.52645                  24630601.7844
        10.0004          5.2504
  21294090.3974    -920157.46947   -700323.80047                  21294094.3944
        27.2504         37.5004
  23094788.3514   -8890454.39746  -3323126.38546                  23094793.0624
        18.7504         16.0004
  23763251.9684   13883056.97947  10792881.63746                  23763258.9684
        21.0004         16.7504
  25287159.2104     583698.17845    453782.26945                  25287170.8864
        11.7504          6.0004
  22235733.2414    -327807.81048   -255428.83547                  22235737.0384
        29.0004         38.7504
  21533179.2494  -11867351.30548  -9200677.32147                  21533184.6754
        28.5004         38.5004
 00  5 16 16 19 30.0030000  0  7G 2G 4G 5G 7G16G 9G24
  24640785.9604   14367120.11345   7033467.72345                  24640800.2264
        11.5004          6.2504
  21299193.0074    -893343.44647   -679429.76347                  21299197.1794
        27.0004         37.2504
  23089786.8124   -8916736.52646  -3343605.94746                  23089792.1084
        18.7504         16.5004
  23771597.4374   13926912.95246  10827055.05746                  23771603.4954
        18.5004         15.5004
  25289437.1554     595669.03745    463110.22645                  25289448.9834
        11.7504          6.0004
  22240813.9374    -301108.85248   -234624.47947                  22240817.6984
        28.7504         38.0004
  21530906.3664  -11879295.98348  -9209984.85147                  21530911.7454
        28.5004         39.0004
 00  5 16 16 19 45.0030000  0  7G 2G 4G 5G 7G16G 9G24
  24650993.5304   14420757.10846   7075262.61145                  24651006.6244
        12.5004          6.2504
  21304320.8044    -866397.22647   -658432.71347                  21304324.8004
        27.0004         37.2504
  23084790.5624   -8942991.32646  -3364064.21946                  23084795.5894
        18.0004         14.7504
  23779942.9134   13970770.76046  10861229.89446                  23779949.5464
        18.7504         16.5004
  25291738.0544     607760.76645    472532.37045                  25291749.8944
        11.7504          5.7504
  22245918.6874    -274283.77448   -213721.84947                  22245922.4374
        29.0004         38.5004
  21528655.6084  -11891122.40448  -9219200.22947                  21528661.0694
        28.5004         38.7504
 00  5 16 16 20  0.0030000  0  7G 2G 4G 5G 7G16G 9G24
  24661211.2884   14474453.76245   7117104.01845                  24661223.6554
        11.7504          6.2504
  21309474.3354    -839314.03047   -637328.93147                  21309478.5894
        26.5004         37.0004
  23079800.7104   -8969213.50446  -3384497.07946                  23079805.3274
        18.7504         15.5004
  23788290.8274   14014635.38247  10895409.98246                  23788297.9334
        20.2504         16.2504
  25294062.8664     619978.46746    482052.65945                  25294074.6244
        12.0004          5.2504
  22251048.0934    -247327.72648   -192717.16647                  22251051.8904
        29.0004         38.0004
  21526428.6164  -11902825.42248  -9228319.44847                  21526434.0544
        28.5004         38.5004
 00  5 16 16 20 15.0030000  0  7G 2G 4G 5G 7G16G 9G24
  24671439.9054   14528208.74545   7158990.81445                  24671453.5734
         9.7504          5.7504
  21314653.8434    -812095.36747   -616119.58547                  21314658.0504
        26.5004         36.5004
  23074816.7024   -8995404.17246  -3404905.38046                  23074822.3514
        17.7504         15.7504
  23796638.4604   14058505.44046  10929594.38446                  23796644.4724
        18.2504         15.0004
  25296411.6324     632320.91545    491670.18145                  25296422.4404
        11.0004          5.0004
  22256202.4994    -220242.15348   -171611.55247                  22256206.1554
        29.2504         38.2504
  21524224.9294  -11914406.18448  -9237343.40247                  21524230.5774
        28.5004         39.0004
 00  5 16 16 20 30.0030000  0  7G 2G 4G 5G 7G16G 9G24
  24681680.4764   14582018.18845   7200920.02845                  24681694.3314
         9.5004          5.5004
  21319858.6244    -784745.20947   -594807.77447                  21319862.9014
        26.7504         37.0004
  23069838.2724   -9021566.95047  -3425291.92446                  23069843.1014
        20.2504         16.5004
  23804987.3194   14102377.17047  10963780.05046                  23804994.5654
        20.2504         16.5004
  25298782.8664     644784.49745    501382.10745                  25298795.1164
        10.2504          4.5004
  22261380.7884    -193031.02148   -150408.10147                  22261384.5154
        29.2504         38.2504
  21522043.7654  -11925868.25648  -9246274.86847                  21522049.3314
        28.7504         39.0004
 00  5 16 16 20 45.0030000  0  7G 2G 4G 5G 7G16G 9G24
  24691930.1474   14635879.84245   7242889.96945                  24691943.2414
        11.5004          6.2504
  21325087.4524    -757265.91547   -573395.34647                  21325091.7534
        27.0004         37.0004
  23064864.6404   -9047703.68246  -3445658.23846                  23064868.8584
        18.5004         15.7504
  23813335.7964   14146248.36246  10997965.30946                  23813341.9484
        18.0004         15.5004
  25301177.2264     657367.07345    511186.73645                  25301189.3354
        10.0004          4.5004
  22266582.2334    -165696.56048   -129108.55347                  22266586.0894
        29.0004         38.2504
  21519884.8194  -11937213.73848  -9255115.49047                  21519890.3864
        29.0004         39.2504
 00  5 16 16 21  0.0030000  0  7G 2G 4G 5G 7G16G 9G24
  24702190.0934   14689797.62045   7284903.63545                  24702203.9374
        11.5004          6.0004
  21330342.0934    -729653.60447   -551879.26547                  21330346.1944
        27.0004         37.2504
  23059896.9134   -9073810.14546  -3466000.90646                  23059902.5154
        18.7504         16.0004
  23821685.3124   14190123.02047  11032153.26946                  23821691.9214
        20.2504         16.5004
  25303594.8274     670072.82345    521087.34545                  25303606.7264
         9.7504          4.5004
  22271807.9134    -138234.76348   -107709.78647                  22271811.9094
        29.0004         37.7504
  21517748.7334  -11948438.33648  -9263861.91748                  21517754.1364
        29.0004         39.5004
 00  5 16 16 21 15.0030000  0  7G 2G 4G 5G 7G16G 9G24
  24712458.7574   14743764.38245   7326955.47145                  24712472.9644
         9.7504          5.0004
  21335620.5464    -701915.56547   -530265.21347                  21335624.7294
        27.5004         37.5004
  23054933.5934   -9099893.03846  -3486325.22146                  23054938.2334
        19.5004         17.2504
  23830033.3824   14233993.99946  11066338.34546                  23830041.2844
        19.2504         16.7504
  25306035.1714     682894.81745    531078.55344                  25306046.8584
         9.7504          4.2504
  22277056.7104    -110652.94148    -86217.48647                  22277060.6944
        29.2504         37.7504
  21515634.5854  -11959549.13848  -9272519.66848                  21515639.9644
        29.0004         39.5004
 00  5 16 16 21 30.0030000  0  7G 2G 4G 5G 7G16G 9G24
  24722739.2024   14797788.48145   7369051.97045                  24722753.1514
         9.0004          4.7504
  21340924.2264    -674043.41747   -508546.66447                  21340928.2104
        27.7504         38.5004
  23049975.5934   -9125943.75346  -3506624.47646                  23049980.4334
        17.2504         14.5004
  23838382.9374   14277869.77046  11100527.16546                  23838388.7374
        19.7504         14.0004
  25308498.9294     695841.56545    541166.94445                  25308511.2024
        10.5004          4.7504
  22282329.8274     -82942.86348    -64625.25247                  22282333.7654
        29.2504         38.2504
  21513543.5154  -11970537.50248  -9281082.01248                  21513548.9404
        29.0004         39.5004
 00  5 16 16 21 45.0030000  0  7G 2G 4G 5G 7G16G 9G24
  24733029.5544   14851860.70045   7411185.98345                  24733042.8124
        10.0004          5.2504
  21346252.0774    -646046.60048   -486730.97047                  21346256.1554
        28.0004         38.2504
  23045023.5304   -9151971.05547  -3526905.47646                  23045027.7964
        21.0004         17.5004
  23846731.1084   14321741.19046  11134712.63046                  23846737.9524
        19.0004         16.2504
  25310984.5774     708904.25245    551345.70445                  25310997.1674
        10.7504          4.7504
  22287625.4524     -55113.75248    -42940.26447                  22287629.4604
        29.0004         38.0004
  21511474.0774  -11981412.26948  -9289555.84047                  21511479.3274
        29.0004         39.0004
 00  5 16 16 22  0.0030000  0  7G 2G 4G 5G 7G16G 9G24
  24743328.9524   14905983.31945   7453359.26245                  24743342.3624
        11.0004          6.0004
  21351603.9054    -617922.92748   -464816.42747                  21351607.9014
        28.0004         38.7504
  23040075.0464   -9177972.54046  -3547166.36846                  23040080.1324
        18.2504         16.7504
  23855079.6634   14365610.52046  11168896.39846                  23855086.5814
        19.2504         16.0004
  25313492.8744     722085.22845    561616.62545                  25313504.8434
        10.2504          4.7504
  22292944.2024     -27163.46348    -21160.85247                  22292948.1634
        28.7504         37.0004
  21509426.7414  -11992171.07548  -9297939.31247                  21509432.1444
        29.0004         39.0004
 00  5 16 16 22 15.0030000  0  7G 2G 4G 5G 7G16G 9G24
  24753638.5154   14960159.20145   7495574.07545                  24753651.7374
         9.5004          5.0004
  21356980.4684    -589669.59648   -442800.85448                  21356984.2764
        28.0004         39.7504
  23035133.0154   -9203944.92247  -3567404.55446                  23035137.6204
        20.2504         15.7504
  23863427.6944   14409480.73346  11203080.90046                  23863434.3154
        19.2504         15.7504
  25316023.5544     735387.54945    571982.11745                  25316035.5814
        10.0004          4.5004
  22298286.6634        910.93448       715.26547                  22298290.7534
        28.5004         38.2504
  21507402.1874  -12002810.80848  -9306229.99647                  21507407.4954
        29.2504         39.2504
 00  5 16 16 22 30.0030000  0  7G 2G 4G 5G 7G16G 9G24
  24763957.8354   15014388.27545   7537830.28245                  24763972.2184
         8.2504          4.5004
  21362381.6244    -561286.87848   -420684.45847                  21362385.4914
        28.5004         39.2504
  23030196.2964   -9229887.96747  -3587619.93646                  23030200.0224
        20.2504         17.7504
  23871776.2574   14453351.75246  11237266.02146                  23871782.1984
        19.5004         14.5004
  25318578.3434     748811.16445    582442.12145                  25318590.7694
        10.0004          4.7504
  22303652.5224      29109.14448     22687.86547                  22303656.6244
        28.5004         37.2504
  21505400.1084  -12013331.31648  -9314427.77447                  21505405.3354
        29.2504         39.0004
 00  5 16 16 22 45.0030000  0  7G 2G 4G 5G 7G16G 9G24
  24774288.3904   15068667.18845   7580125.30545                  24774303.2184
         9.7504          4.5004
  21367806.5464    -532778.00048   -398469.75847                  21367810.3904
        28.5004         39.0004
  23025264.1474   -9255804.61446  -3607814.69746                  23025270.0894
        18.0004         15.7504
  23880123.9994   14497220.39946  11271449.31046                  23880130.3394
        18.5004         15.0004
  25321154.9914     762353.12345    592994.33545                  25321167.8514
        10.2504          4.5004
  22309041.4764      57427.84848     44754.35547                  22309045.4954
        28.2504         37.0004
  21503420.3584  -12023735.63948  -9322535.02747                  21503425.5154
        29.2504         39.2504
 00  5 16 16 23  0.0030000  0  7G 2G 4G 5G 7G16G 9G24
  24784626.6554   15122995.92045   7622459.23045                  24784640.9914
        10.2504          5.2504
  21373255.6164    -504143.32048   -376157.02947                  21373259.4834
        28.2504         38.7504
  23020338.1874   -9281694.45547  -3627988.57246                  23020342.0654
        21.7504         17.7504
  23888471.9294   14541086.67847  11305630.72246                  23888479.1754
        20.2504         16.2504
  25323754.9684     776013.64245    603638.92545                  25323768.1794
        10.5004          5.0004
  22314453.1634      85866.88447     66914.61647                  22314457.3234
        27.7504         36.2504
  21501462.5224  -12034023.67048  -9330551.65647                  21501467.8194
        29.2504         39.2504
 00  5 16 16 23 15.0030000  0  7G 2G 4G 5G 7G16G 9G24
  24794974.4134   15177371.83145   7664829.89545                  24794988.3974
         9.7504          5.5004
  21378727.9684    -475385.37748   -353748.25247                  21378731.7764
        28.2504         39.2504
  23015415.3274   -9307559.97046  -3648143.54346                  23015420.2964
        17.5004         16.0004
  23896818.1474   14584947.97046  11339808.27046                  23896825.1594
        18.2504         15.0004
  25326376.0774     789790.30845    614374.02845                  25326387.9764
        10.0004          4.7504
  22319887.4444     114423.60347     89166.57347                  22319891.7804
        27.7504         36.0004
  21499526.2884  -12044197.65548  -9338479.41947                  21499531.4684
        29.0004         39.2504
 00  5 16 16 23 30.0030000  0  7G 2G 4G 5G 7G16G 9G24
  24805330.6404   15231800.73145   7707241.83945                  24805346.1834
         8.2504          4.5004
  21384224.9914    -446498.73748   -331239.19147                  21384228.9524
        28.2504         38.7504
  23010499.5154   -9333395.07147  -3668274.73446                  23010504.4484
        21.0004         17.7504
  23905164.8744   14628810.13846  11373986.48346                  23905172.0034
        19.5004         15.5004
  25329021.2024     803688.74945    625204.01445                  25329033.6984
         9.5004          5.0004
  22325344.9294     143103.72647    111514.68847                  22325349.3004
        27.5004         35.5004
  21497613.0854  -12054251.72548  -9346313.74447                  21497618.3354
        29.0004         39.2504
 00  5 16 16 23 45.0030000  0  7G 2G 4G 5G 7G16G 9G24
  24815698.8274   15286283.81745   7749695.94845                  24815714.1244
         7.5004          4.5004
  21389746.5544    -417482.08948   -308628.82547                  21389750.6554
        28.0004         38.5004
  23005589.3124   -9359198.04546  -3688380.95846                  23005593.4374
        19.7504         17.5004
  23913512.5304   14672674.52146  11408166.43146                  23913518.6244
        18.2504         13.7504
  25331689.0464     817710.67445    636130.22145                  25331701.2024
         9.7504          4.5004
  22330826.2964     171908.48447    133959.92747                  22330830.3624
        27.7504         35.7504
  21495723.1714  -12064184.39648  -9354053.46847                  21495728.5974
        29.0004         39.2504
 00  5 16 16 24  0.0030000  0  7G 2G 4G 5G 7G16G 9G24
  24826077.0694   15340818.54245   7792190.34445                  24826090.9484
         9.0004          5.0004
  21395292.4374    -388338.10447   -285919.24147                  21395296.5384
        27.7504         38.5004
  23000684.6634   -9384971.10746  -3708463.84946                  23000689.6674
        19.2504         16.2504
  23921859.3434   14716538.58247  11442346.13746                  23921865.2374
        21.2504         15.5004
  25334380.6324     831853.87045    647150.93645                  25334392.8124
         9.7504          4.5004
  22336330.8744     200835.24747    156500.22747                  22336334.9764
        27.5004         35.5004
  21493855.6084  -12073997.91048  -9361700.34747                  21493860.9174
        28.5004         39.0004
 00  5 16 16 24 15.0030000  0  7G 2G 4G 5G 7G16G 9G24
  24836464.2884   15395403.39845   7834723.84145                  24836476.3624
         9.7504          4.7504
  21400862.2654    -359068.41047   -263111.70147                  21400866.3194
        27.7504         38.7504
  22995785.8124   -9410715.43247  -3728524.34946                  22995790.1714
        20.5004         18.5004
  23930205.8434   14760400.98946  11476524.54446                  23930213.8154
        16.7504         15.0004
  25337094.7104     846116.89145    658265.01744                  25337106.7494
         9.0004          4.0004
  22341858.4604     229882.37147    179134.31947                  22341862.7494
        27.5004         35.7504
  21492010.5154  -12083693.60148  -9369255.41547                  21492015.8234
        28.5004         38.5004
 00  5 16 16 24 30.0030000  0  7G 2G 4G 5G 7G16G 9G24
  24846858.9994   15450035.95245   7877294.48845                  24846872.8314
         8.0004          4.7504
  21406455.6084    -329675.59747   -240208.22947                  21406459.6404
        27.7504         38.0004
  22990891.5694   -9436433.15646  -3748564.11546                  22990896.7844
        18.2504         17.0004
  23938552.4054   14804259.19746  11510699.67246                  23938558.2184
        19.7504         14.0004
  25339831.7184     860497.46745    669470.67645                  25339842.9724
         9.2504          4.7504
  22347408.5154     259047.26647    201860.17947                  22347412.7694
        27.7504         35.5004
  21490187.3354  -12093273.66948  -9376720.38147                  21490192.7844
        28.5004         38.5004
 00  5 16 16 24 45.0030000  0  7G 2G 4G 5G 7G16G 9G24
  24857265.5854   15504722.74745   7919907.36444                  24857280.9174
         7.5004          4.2504
  21412073.4994    -300153.11048   -217203.70647                  21412077.5544
        28.2504         38.7504
  22986004.2654   -9462117.29247  -3768577.69846                  22986009.0464
        20.5004         17.7504
  23946898.8744   14848119.91646  11544876.79246                  23946905.5074
        18.0004         14.5004
  25342590.8514     875002.28145    680773.16745                  25342602.4794
         9.7504          4.7504
  22352982.1474     288336.54347    224682.96047                  22352986.2494
        27.7504         36.0004
  21488387.6084  -12102731.40048  -9384090.02647                  21488392.9994
        28.2504         38.0004
 00  5 16 16 25  0.0030000  0  7G 2G 4G 5G 7G16G 9G24
  24867682.2494   15559460.10045   7962559.62044                  24867697.5584
         7.7504          3.7504
  21417715.4134    -270504.91248   -194101.23147                  21417719.6204
        28.2504         37.7504
  22981122.3274   -9487771.21646  -3788567.77446                  22981126.8274
        19.5004         18.0004
  23955245.0304   14891979.49846  11579052.98146                  23955251.6634
        19.7504         14.7504
  25345374.6084     889627.79545    692169.71545                  25345386.6944
         9.2504          4.5004
  22358578.6874     317746.24447    247599.57447                  22358582.8474
        27.7504         35.2504
  21486610.5154  -12112070.32948  -9391367.10047                  21486615.9054
        28.5004         38.0004
 00  5 16 16 25 15.0030000  0  7G 2G 4G 5G 7G16G 9G24
  24878110.2494   15614252.00445   8005254.39145                  24878124.7374
         9.2504          4.5004
  21423381.8194    -240726.95147   -170897.64047                  21423385.9914
        27.7504         38.5004
  22976247.4444   -9513390.55347  -3808530.86346                  22976252.1444
        20.2504         18.2504
  23963591.7574   14935842.05346  11613231.51546                  23963598.7924
        17.7504         14.0004
  25348181.3354     904378.39045    703663.71144                  25348193.1984
         9.7504          4.2504
  22364198.7494     347280.47747    270613.23347                  22364203.0034
        27.5004         35.0004
  21484856.7334  -12121286.01248  -9398548.13047                  21484862.0544
        28.5004         38.5004
 00  5 16 16 25 30.0030000  0  7G 2G 4G 5G 7G16G 9G24
  24888546.7574   15669096.06345   8047989.86545                  24888560.2024
         9.7504          4.5004
  21429072.8514    -210821.74247   -147594.89447                  21429077.0344
        27.7504         38.7504
  22971378.2184   -9538977.38946  -3828468.64846                  22971382.6364
        19.7504         17.7504
  23971938.9294   14979705.34546  11647410.60746                  23971946.0584
        19.2504         15.2504
  25351011.7654     919251.87045    715253.47545                  25351024.6364
        10.0004          4.7504
  22369842.1084     376936.75847    293721.98947                  22369846.2924
        27.2504         34.7504
  21483126.2184  -12130380.72148  -9405634.90347                  21483131.5384
        29.0004         38.5004
 00  5 16 16 25 45.0030000  0  7G 2G 4G 5G 7G16G 9G24
  24898994.7414   15723996.46345   8090769.20444                  24899009.3474
         9.2504          4.2504
  21434788.5384    -180785.34048   -124189.92647                  21434792.5934
        28.2504         39.0004
  22966516.0304   -9564527.23946  -3848377.60846                  22966521.0814
        19.2504         17.7504
  23980286.5774   15023573.52446  11681593.49946                  23980293.7534
        19.0004         14.5004
  25353865.9604     934252.41545    726942.23845                  25353877.6474
        10.0004          4.5004
  22375509.6944     406719.18347    316929.03847                  22375514.0424
        27.0004         34.7504
  21481419.2884  -12139350.05748  -9412623.98247                  21481424.5264
        28.7504         38.2504
 00  5 16 16 26  0.0030000  0  7G 2G 4G 5G 7G16G 9G24
  24909451.6164   15778951.67545   8133591.26144                  24909465.4834
         7.7504          3.5004
  21440529.0624    -150619.34048   -100683.96847                  21440532.9994
        28.2504         39.2504
  22961661.0464   -9590041.26946  -3868258.64946                  22961665.8864
        19.7504         18.2504
  23988635.2654   15067445.07546  11715779.04846                  23988641.6634
        17.7504         12.7504
  25356744.5154     949378.76845    738729.04545                  25356757.1044
        10.2504          4.7504
  22381200.7884     436626.04247    340233.05347                  22381205.2654
        27.0004         34.5004
  21479736.1404  -12148195.30748  -9419516.36847                  21479741.3194
        29.0004         39.0004
 00  5 16 16 26 15.0030000  0  7G 2G 4G 5G 7G16G 9G24
  24919919.4604   15833957.90745   8176453.03244                  24919934.6404
         7.7504          4.0004
  21446293.4834    -120327.59148    -77080.02947                  21446297.4914
        28.5004         39.2504
  22956812.0154   -9615522.94647  -3888114.47846                  22956816.8544
        20.0004         18.7504
  23996983.8274   15111316.33546  11749964.35846                  23996991.8474
        18.5004         15.7504
  25359646.4914     964627.26845    750611.01645                  25359658.9644
        10.7504          4.7504
  22386914.9374     466653.62347    363631.13247                  22386919.3544
        27.0004         33.7504
  21478075.9444  -12156920.05548  -9426314.85647                  21478081.1714
        29.2504         38.7504
 00  5 16 16 26 30.0030000  0  7G 2G 4G 5G 7G16G 9G24
  24930397.7024   15889019.23745   8219357.75644                  24930411.4994
         9.0004          4.0004
  21452082.4764     -89906.10548    -53374.99347                  21452086.6124
        28.2504         39.0004
  22951969.8824   -9640967.77046  -3907941.60346                  22951975.0624
        19.7504         18.5004
  24005332.9914   15155191.57546  11784152.73446                  24005340.4374
        18.0004         14.0004
  25362571.7724     980002.21545    762591.53045                  25362584.6554
        10.2504          5.0004
  22392652.4834     496806.00547    387126.46147                  22392656.8904
        26.7504         34.0004
  21476439.3744  -12165519.89148  -9433016.01447                  21476444.6944
        29.2504         38.7504
 00  5 16 16 26 45.0030000  0  7G 2G 4G 5G 7G16G 9G24
  24940885.7104   15944136.92045   8262306.42945                  24940899.6474
         9.0004          4.5004
  21457896.3974     -59353.78448    -29568.00847                  21457900.3944
        28.2504         39.0004
  22947135.3354   -9666374.16847  -3927738.77446                  22947140.1044
        20.7504         18.7504
  24013683.2724   15199072.02946  11818345.23546                  24013689.3784
        18.7504         13.0004
  25365522.2024     995505.19845    774671.82445                  25365534.3704
        10.0004          5.0004
  22398414.2884     527084.17647    410719.81147                  22398418.6944
        26.7504         33.5004
  21474826.8124  -12173993.51548  -9439618.81747                  21474832.1204
        29.0004         38.7504
 00  5 16 16 27  0.0030000  0  7G 2G 4G 5G 7G16G 9G24
  24951386.0934   15999320.91645   8305306.77144                  24951400.1714
         8.5004          3.7504
  21463736.9444     -28660.75848     -5651.38447                  21463741.0814
        28.5004         39.0004
  22942309.9054   -9691731.76747  -3947497.94046                  22942314.6044
        20.0004         18.5004
  24022036.1634   15242967.67846  11852549.54446                  24022043.9954
        18.0004         14.5004
  25368498.7024    1011146.19345    786859.63945                  25368511.2924
        10.5004          5.0004
  22404201.7884     557498.00247    434418.86647                  22404206.1124
        26.7504         33.5004
  21473240.2654  -12182330.75148  -9446115.34847                  21473245.5504
        29.0004         38.5004
 00  5 16 16 27 15.0030000  0  7G 2G 4G 5G 7G16G 9G24
  24961899.2184   16054557.53045   8348348.03944                  24961914.2694
         8.2504          3.5004
  21469602.0624       2159.25448     18364.18248                  21469606.0934
        28.7504         39.7504
  22937491.1634   -9717053.84747  -3967229.40446                  22937496.1904
        20.2504         18.7504
  24030389.9214   15286865.15846  11886755.27346                  24030396.8394
        17.2504         13.5004
  25371498.5624    1026911.86645    799144.63145                  25371511.2574
         9.7504          5.0004
  22410012.7804     588033.83547    458212.99247                  22410017.2104
        26.7504         33.5004
  21471677.2104  -12190544.81148  -9452515.89847                  21471682.6834
        28.5004         39.0004
 00  5 16 16 27 30.0030000  0  7G 2G 4G 5G 7G16G 9G24
  24972423.2654   16109861.22945   8391441.62844                  24972439.2184
         9.0004          3.7504
  21475493.6014      33120.49748     42489.80347                  21475497.5504
        28.7504         39.2504
  22932681.9914   -9742325.74547  -3986921.78846                  22932686.7964
        20.0004         18.7504
  24038746.3904   15330778.78146  11920973.59046                  24038754.2454
        19.0004         15.2504
  25374525.2104    1042816.70045    811538.02945                  25374537.9874
        10.0004          5.2504
  22415849.6084     618705.95947    482113.31747                  22415854.0264
        26.7504         33.5004
  21470140.4294  -12198621.36748  -9458809.29947                  21470145.7964
        28.5004         38.7504
 00  5 16 16 27 45.0030000  0  7G 2G 4G 5G 7G16G 9G24
  24982957.1244   16165220.04945   8434578.16145                  24982972.2574
         9.0004          4.5004
  21481409.9914      64210.86748     66716.04248                  21481413.8824
        29.0004         39.7504
  22927880.4134   -9767558.93147  -4006583.98646                  22927885.4994
        21.0004         19.5004
  24047103.5694   15374696.82746  11955195.34246                  24047111.3194
        17.5004         14.2504
  25377575.7334    1058849.01045    824030.76545                  25377588.0774
         9.5004          4.7504
  22421709.7654     649502.41147    506110.51647                  22421714.2294
        26.2504         32.7504
  21468627.2574  -12206571.80948  -9465004.43247                  21468632.7764
        28.7504         38.5004
 00  5 16 16 28  0.0030000  0  7G 2G 4G 5G 7G16G 9G24
  24993502.4834   16220635.69345   8477758.98144                  24993515.6364
         9.0004          4.0004
  21487351.2024      95431.97548     91044.15248                  21487355.2924
        28.5004         39.7504
  22923086.4914   -9792751.44847  -4026214.50846                  22923091.4604
        20.5004         19.7504
  24055462.3514   15418620.92546  11989421.82246                  24055468.9374
        17.0004         13.0004
  25380651.5074    1075010.54945    836624.19745                  25380665.1984
        10.0004          4.7504
  22427594.1944     680424.84047    530205.88247                  22427598.8474
        25.7504         32.7504
  21467138.6474  -12214394.45648  -9471099.99147                  21467144.0264
        28.5004         38.2504
 00  5 16 16 28 15.0030000  0  7G 2G 4G 5G 7G16G 9G24
  25004058.2334   16276110.03845   8520985.52844                  25004072.8514
         8.0004          3.7504
  21493317.5384     126785.66448    115475.57447                  21493321.5344
        28.2504         39.2504
  22918300.7264   -9817901.09847  -4045811.61946                  22918305.6474
        21.2504         19.2504
  24063822.1714   15462553.05546  12023654.56046                  24063829.7334
        18.2504         13.7504
  25383751.3124    1091303.58945    849320.12045                  25383765.2024
         9.5004          4.7504
  22433502.6634     711475.00447    554400.78447                  22433507.5974
        25.5004         32.5004
  21465674.9684  -12222087.16148  -9477094.28947                  21465680.2884
        28.5004         38.5004
 00  5 16 16 28 30.0030000  0  7G 2G 4G 5G 7G16G 9G24
  25014627.6714   16331645.77845   8564259.93244                  25014642.9094
         8.7504          3.7504
  21499309.6404     158274.49548    140012.29748                  21499313.7294
        29.0004         39.5004
  22913523.4444   -9843004.73047  -4065372.88146                  22913528.5424
        20.0004         19.0004
  24072184.5224   15506496.07146  12057895.79046                  24072191.3084
        17.2504         13.0004
  25386877.4994    1107730.77945    862120.53144                  25386889.8194
         9.2504          4.0004
  22439436.1554     742655.46047    578697.20847                  22439441.1244
        25.2504         31.7504
  21464236.1944  -12229647.11748  -9482985.14647                  21464241.4794
        28.7504         38.2504
 00  5 16 16 28 45.0030000  0  7G 2G 4G 5G 7G16G 9G24
  25025206.9684   16387242.51845   8607581.82145                  25025222.2764
         8.7504          4.5004
  21505327.5384     189897.87748    164653.87048                  21505331.6874
        28.5004         39.7504
  22908755.2494   -9868062.36747  -4084898.28846                  22908760.1364
        21.2504         19.0004
  24080548.8664   15550449.61746  12092145.21046                  24080556.8624
        18.7504         14.7504
  25390028.8274    1124291.96745    875025.39545                  25390041.6984
         8.5004          4.5004
  22445394.5224     773965.76847    603094.81847                  22445399.6674
        25.2504         31.5004
  21462822.7964  -12237074.29348  -9488772.53947                  21462828.0814
        28.7504         38.2504
